[[{"header":{"parameterUnit":"m.s-1","parameterCategory":1,"la1":30.6,"la2":29.2853,"lo1":-89.7004,"lo2":-87.6739,"dy":0.0162,"dx":0.0183,"nx":112,"ny":82,"refTime":"2024-03-12T06:00:00:Z","depth":0,"parameterNumber":2,"parameterNumberName":"U-component_of_WINDS"},"data":[0.0,0.0,0.0,0.0,0.0,0.0,0.0,0.0,0.0,0.0,0.0,0.0,0.0,0.0,0.0,0.0,0.0,0.0,0.0,0.0,0.0,0.0,0.0,0.0,0.0,0.0,0.0,0.0,0.0,0.0,0.0,0.0,0.0,0.0,0.0,0.0,0.0,0.0,0.0,0.0,0.0,0.0,0.0,0.0,0.0,0.0,0.0,0.0,0.0,0.0,0.0,0.0,0.0,0.0,0.0,0.0,0.0,0.0,0.0,0.0,0.0,0.0,0.0,0.0,0.0,0.0,0.0,0.0,0.0,0.0,0.0,0.0,0.0,0.0,0.0,0.0,0.0,0.0,0.0,0.0,0.0,0.0,0.0,0.0,0.0,0.0,0.0,0.0,0.0,0.0,-4.879,-4.7794,-4.8034,-4.8202,-4.8049,-4.8049,-4.788,-4.7639,0.0,0.0,0.0,0.0,0.0,0.0,0.0,0.0,0.0,0.0,0.0,0.0,0.0,0.0,0.0,0.0,0.0,0.0,0.0,0.0,0.0,0.0,0.0,0.0,0.0,0.0,0.0,0.0,0.0,0.0,0.0,0.0,0.0,0.0,0.0,0.0,0.0,0.0,0.0,0.0,0.0,0.0,0.0,0.0,0.0,0.0,0.0,0.0,0.0,0.0,0.0,0.0,0.0,0.0,0.0,0.0,0.0,0.0,0.0,0.0,0.0,0.0,0.0,0.0,0.0,0.0,0.0,0.0,0.0,0.0,0.0,0.0,0.0,0.0,0.0,0.0,0.0,0.0,0.0,0.0,0.0,0.0,0.0,0.0,0.0,0.0,0.0,0.0,0.0,0.0,0.0,0.0,0.0,0.0,0.0,0.0,0.0,0.0,0.0,0.0,0.0,0.0,0.0,0.0,-4.7949,-4.8202,-4.8805,-4.8969,-4.8286,-4.8286,-4.8049,-4.7624,0.0,0.0,0.0,0.0,0.0,0.0,0.0,0.0,0.0,0.0,0.0,0.0,0.0,0.0,0.0,0.0,0.0,0.0,0.0,0.0,0.0,0.0,0.0,0.0,0.0,0.0,0.0,0.0,0.0,0.0,0.0,0.0,0.0,0.0,0.0,0.0,0.0,0.0,0.0,0.0,0.0,0.0,0.0,0.0,0.0,0.0,0.0,0.0,0.0,0.0,0.0,0.0,0.0,0.0,0.0,0.0,0.0,0.0,0.0,0.0,0.0,0.0,0.0,0.0,0.0,0.0,0.0,0.0,0.0,0.0,0.0,0.0,0.0,0.0,0.0,0.0,0.0,0.0,0.0,0.0,0.0,0.0,0.0,0.0,0.0,0.0,0.0,0.0,0.0,0.0,0.0,0.0,0.0,0.0,0.0,0.0,0.0,0.0,0.0,0.0,0.0,0.0,0.0,-4.7864,-4.8118,-4.8949,-4.9,-4.8821,-4.8537,-4.8453,-4.8286,-4.788,-4.7849,0.0,0.0,0.0,0.0,0.0,0.0,0.0,0.0,0.0,0.0,0.0,0.0,0.0,0.0,0.0,0.0,0.0,0.0,0.0,0.0,0.0,0.0,0.0,0.0,0.0,0.0,0.0,0.0,0.0,0.0,0.0,0.0,0.0,0.0,0.0,0.0,0.0,0.0,0.0,0.0,0.0,0.0,0.0,0.0,0.0,0.0,0.0,0.0,0.0,0.0,0.0,0.0,0.0,0.0,0.0,0.0,0.0,0.0,0.0,0.0,0.0,0.0,0.0,0.0,0.0,0.0,0.0,0.0,0.0,0.0,0.0,0.0,0.0,0.0,0.0,0.0,0.0,0.0,0.0,0.0,0.0,0.0,0.0,0.0,0.0,0.0,0.0,0.0,0.0,0.0,0.0,0.0,0.0,0.0,0.0,0.0,0.0,0.0,0.0,0.0,0.0,0.0,-4.8506,-4.8589,-4.9275,-4.9097,-4.8852,-4.862,-4.862,-4.8453,-4.8049,-4.7988,0.0,0.0,0.0,0.0,0.0,0.0,0.0,0.0,0.0,0.0,0.0,0.0,0.0,0.0,0.0,0.0,0.0,0.0,0.0,0.0,0.0,0.0,0.0,0.0,0.0,0.0,0.0,0.0,0.0,0.0,0.0,0.0,0.0,0.0,0.0,0.0,0.0,0.0,0.0,0.0,0.0,0.0,0.0,0.0,0.0,0.0,0.0,0.0,0.0,0.0,0.0,0.0,0.0,0.0,0.0,0.0,0.0,0.0,0.0,0.0,0.0,0.0,0.0,0.0,0.0,0.0,0.0,0.0,0.0,0.0,0.0,0.0,0.0,0.0,0.0,0.0,0.0,0.0,0.0,0.0,0.0,0.0,0.0,0.0,0.0,0.0,0.0,0.0,0.0,0.0,0.0,0.0,0.0,0.0,0.0,0.0,0.0,0.0,0.0,0.0,0.0,0.0,-4.8887,-4.9197,-4.8687,-4.9325,-4.9486,-4.8687,-4.862,-4.8453,-4.8049,-4.7988,0.0,0.0,0.0,0.0,0.0,0.0,0.0,0.0,0.0,0.0,0.0,0.0,0.0,0.0,0.0,0.0,0.0,0.0,0.0,0.0,0.0,0.0,0.0,0.0,0.0,0.0,0.0,0.0,0.0,0.0,0.0,0.0,0.0,0.0,0.0,0.0,0.0,0.0,0.0,0.0,0.0,0.0,0.0,0.0,0.0,0.0,0.0,0.0,0.0,0.0,0.0,0.0,0.0,0.0,0.0,0.0,0.0,0.0,0.0,0.0,0.0,0.0,0.0,0.0,0.0,0.0,0.0,0.0,0.0,0.0,0.0,0.0,0.0,0.0,0.0,0.0,0.0,0.0,0.0,0.0,0.0,0.0,0.0,0.0,0.0,0.0,0.0,0.0,0.0,0.0,0.0,0.0,0.0,0.0,0.0,0.0,0.0,0.0,0.0,0.0,0.0,0.0,-4.8438,-4.8738,-4.8604,-4.8934,-4.8934,-4.862,-4.862,-4.8453,-4.8049,0.0,0.0,0.0,0.0,0.0,0.0,0.0,0.0,0.0,0.0,0.0,0.0,0.0,0.0,0.0,0.0,0.0,0.0,0.0,0.0,0.0,0.0,0.0,0.0,0.0,0.0,0.0,0.0,0.0,0.0,0.0,0.0,0.0,0.0,0.0,0.0,0.0,0.0,0.0,0.0,0.0,0.0,0.0,0.0,0.0,0.0,0.0,0.0,0.0,0.0,0.0,0.0,0.0,0.0,0.0,0.0,0.0,0.0,0.0,0.0,0.0,0.0,0.0,0.0,0.0,0.0,0.0,0.0,0.0,0.0,0.0,0.0,0.0,0.0,0.0,0.0,0.0,0.0,0.0,0.0,0.0,0.0,0.0,0.0,0.0,0.0,0.0,0.0,0.0,0.0,0.0,0.0,0.0,0.0,0.0,0.0,0.0,0.0,0.0,0.0,0.0,0.0,-4.7964,-4.8202,-4.8453,-4.862,-4.862,-4.862,-4.862,-4.862,-4.8453,-4.8049,0.0,0.0,0.0,0.0,0.0,0.0,0.0,0.0,0.0,0.0,0.0,0.0,0.0,0.0,0.0,0.0,0.0,0.0,0.0,0.0,0.0,0.0,0.0,0.0,0.0,0.0,0.0,0.0,0.0,0.0,0.0,0.0,0.0,0.0,0.0,0.0,0.0,0.0,0.0,0.0,0.0,0.0,0.0,0.0,0.0,0.0,0.0,0.0,0.0,0.0,0.0,0.0,0.0,0.0,0.0,0.0,0.0,0.0,0.0,0.0,0.0,0.0,0.0,0.0,0.0,0.0,0.0,0.0,0.0,0.0,0.0,0.0,0.0,0.0,0.0,0.0,0.0,0.0,0.0,0.0,0.0,0.0,0.0,0.0,0.0,0.0,0.0,0.0,0.0,0.0,0.0,0.0,0.0,0.0,0.0,0.0,0.0,0.0,0.0,0.0,0.0,0.0,-4.7964,-4.837,-4.862,-4.862,-4.862,-4.862,-4.862,-4.862,-4.8453,0.0,0.0,0.0,0.0,0.0,0.0,0.0,0.0,0.0,0.0,0.0,0.0,0.0,0.0,0.0,0.0,0.0,0.0,0.0,0.0,0.0,0.0,0.0,0.0,0.0,0.0,0.0,0.0,0.0,0.0,0.0,0.0,0.0,0.0,0.0,0.0,0.0,0.0,0.0,0.0,0.0,0.0,0.0,0.0,0.0,0.0,0.0,0.0,0.0,0.0,0.0,0.0,0.0,0.0,0.0,0.0,0.0,0.0,0.0,0.0,0.0,0.0,0.0,0.0,0.0,0.0,0.0,0.0,0.0,0.0,0.0,0.0,0.0,0.0,0.0,0.0,0.0,0.0,0.0,0.0,0.0,0.0,0.0,0.0,0.0,0.0,0.0,0.0,0.0,0.0,0.0,0.0,0.0,0.0,0.0,0.0,0.0,0.0,0.0,0.0,0.0,0.0,0.0,-4.7964,-4.837,-4.862,-4.862,-4.862,-4.862,-4.862,-4.862,-4.8438,-4.8072,0.0,0.0,0.0,0.0,0.0,0.0,0.0,0.0,0.0,0.0,0.0,0.0,0.0,0.0,0.0,0.0,0.0,0.0,0.0,0.0,0.0,0.0,0.0,0.0,0.0,0.0,0.0,0.0,0.0,0.0,0.0,0.0,0.0,0.0,0.0,0.0,0.0,0.0,0.0,0.0,0.0,0.0,0.0,0.0,0.0,0.0,0.0,0.0,0.0,0.0,0.0,0.0,0.0,0.0,0.0,0.0,0.0,0.0,0.0,0.0,0.0,0.0,0.0,0.0,0.0,0.0,0.0,0.0,0.0,0.0,0.0,0.0,0.0,0.0,0.0,0.0,0.0,0.0,0.0,0.0,0.0,0.0,0.0,0.0,0.0,0.0,0.0,0.0,0.0,0.0,0.0,0.0,0.0,0.0,0.0,0.0,0.0,0.0,0.0,0.0,0.0,0.0,-4.7964,-4.837,-4.862,-4.862,-4.862,-4.862,-4.862,-4.862,-4.8438,-4.8157,0.0,0.0,0.0,0.0,0.0,0.0,0.0,0.0,0.0,0.0,0.0,0.0,0.0,0.0,0.0,0.0,0.0,0.0,0.0,0.0,0.0,0.0,0.0,0.0,0.0,0.0,0.0,0.0,0.0,0.0,0.0,0.0,0.0,0.0,0.0,0.0,0.0,0.0,0.0,0.0,0.0,0.0,0.0,0.0,0.0,0.0,0.0,0.0,0.0,0.0,0.0,0.0,0.0,0.0,0.0,0.0,0.0,0.0,0.0,0.0,0.0,0.0,0.0,0.0,0.0,0.0,0.0,0.0,0.0,0.0,0.0,0.0,0.0,0.0,0.0,0.0,0.0,0.0,0.0,0.0,0.0,0.0,0.0,0.0,0.0,0.0,0.0,0.0,0.0,0.0,0.0,0.0,0.0,0.0,0.0,0.0,0.0,0.0,0.0,0.0,0.0,0.0,-4.7782,-4.8186,-4.8419,-4.8419,-4.8419,-4.8419,-4.8419,-4.8481,-4.8444,-4.821,0.0,0.0,0.0,0.0,0.0,0.0,0.0,0.0,0.0,0.0,0.0,0.0,0.0,0.0,0.0,0.0,0.0,0.0,0.0,0.0,0.0,0.0,0.0,0.0,0.0,0.0,0.0,0.0,0.0,0.0,0.0,0.0,0.0,0.0,0.0,0.0,0.0,0.0,0.0,0.0,0.0,0.0,0.0,0.0,0.0,0.0,0.0,0.0,0.0,0.0,0.0,0.0,0.0,0.0,0.0,0.0,0.0,0.0,0.0,0.0,-4.6405,-4.557,0.0,0.0,0.0,0.0,0.0,0.0,0.0,0.0,0.0,0.0,0.0,0.0,0.0,0.0,0.0,0.0,0.0,0.0,0.0,0.0,0.0,0.0,0.0,0.0,0.0,0.0,0.0,0.0,0.0,0.0,0.0,0.0,0.0,0.0,0.0,0.0,0.0,0.0,0.0,0.0,-4.6462,-4.6793,-4.7034,-4.7034,-4.7034,-4.7034,-4.7034,-4.7511,-4.7702,-4.7577,-4.798,0.0,0.0,0.0,0.0,0.0,0.0,0.0,0.0,0.0,0.0,0.0,0.0,0.0,0.0,0.0,0.0,0.0,0.0,0.0,0.0,0.0,0.0,0.0,0.0,0.0,0.0,0.0,0.0,0.0,0.0,0.0,0.0,0.0,0.0,0.0,0.0,0.0,0.0,0.0,0.0,0.0,0.0,0.0,0.0,0.0,0.0,0.0,0.0,0.0,0.0,0.0,0.0,0.0,0.0,0.0,0.0,0.0,0.0,0.0,-4.7181,-4.6872,0.0,0.0,0.0,0.0,0.0,0.0,0.0,0.0,0.0,0.0,0.0,0.0,0.0,0.0,0.0,0.0,0.0,0.0,0.0,0.0,0.0,0.0,0.0,0.0,0.0,0.0,0.0,0.0,0.0,0.0,0.0,0.0,0.0,0.0,0.0,0.0,0.0,0.0,0.0,0.0,-4.6022,-4.6364,-4.6603,-4.6603,-4.6603,-4.6603,-4.6603,-4.6927,-4.7062,-4.6977,-4.7191,0.0,0.0,0.0,0.0,0.0,0.0,0.0,0.0,0.0,0.0,0.0,0.0,0.0,0.0,0.0,0.0,0.0,0.0,0.0,0.0,0.0,0.0,0.0,0.0,0.0,0.0,0.0,0.0,0.0,0.0,0.0,0.0,0.0,0.0,0.0,0.0,0.0,0.0,0.0,0.0,0.0,0.0,0.0,0.0,0.0,0.0,0.0,0.0,0.0,0.0,0.0,0.0,0.0,-4.5336,-4.5586,-4.5608,-4.6709,-4.7495,-4.7997,-4.7929,-4.8394,-4.9042,-4.783,0.0,0.0,0.0,0.0,0.0,0.0,0.0,0.0,0.0,0.0,0.0,0.0,0.0,0.0,0.0,0.0,0.0,0.0,0.0,0.0,0.0,0.0,-5.0009,-4.9401,-4.9299,-4.9145,-4.8408,0.0,0.0,0.0,0.0,0.0,0.0,0.0,0.0,0.0,0.0,0.0,-4.5723,-4.6012,-4.6249,-4.6249,-4.6249,-4.6249,-4.6249,-4.6357,-4.6419,-4.6419,-4.6383,-4.6528,0.0,0.0,0.0,0.0,0.0,0.0,0.0,0.0,0.0,0.0,0.0,0.0,0.0,0.0,0.0,0.0,0.0,0.0,0.0,0.0,0.0,0.0,0.0,0.0,0.0,0.0,0.0,0.0,0.0,0.0,0.0,0.0,-4.1459,-4.2378,0.0,0.0,0.0,0.0,0.0,0.0,0.0,0.0,0.0,0.0,0.0,0.0,0.0,-4.3141,-4.3242,-4.3931,-4.4374,-4.4524,-4.5943,-4.6672,-4.6809,-4.7594,-4.7993,-4.8093,-4.8179,0.0,-4.9296,-4.8488,0.0,0.0,0.0,0.0,0.0,0.0,0.0,0.0,0.0,0.0,0.0,0.0,0.0,0.0,0.0,0.0,0.0,0.0,0.0,0.0,0.0,0.0,-4.8992,-4.8912,-4.8959,-4.9005,-4.8942,-4.7906,-4.7014,-4.6936,-4.6367,-4.5798,0.0,0.0,0.0,0.0,0.0,0.0,-4.454,-4.4695,-4.4849,-4.4849,-4.4849,-4.4849,-4.4849,-4.5387,-4.5726,-4.5726,-4.6122,-4.6249,-4.6179,-4.5867,0.0,0.0,0.0,0.0,0.0,0.0,0.0,0.0,0.0,0.0,0.0,0.0,0.0,0.0,0.0,0.0,0.0,0.0,0.0,0.0,0.0,0.0,0.0,0.0,0.0,0.0,0.0,0.0,0.0,-4.1407,-4.251,-4.3289,-4.3514,-4.3497,0.0,0.0,0.0,0.0,0.0,0.0,0.0,0.0,0.0,-4.465,-4.447,-4.4386,-4.449,-4.4869,-4.5111,-4.5216,-4.5875,-4.6253,-4.6323,-4.7226,-4.761,-4.7595,-4.8136,-4.859,-4.8887,-4.8503,-4.8472,-4.8702,0.0,0.0,0.0,0.0,-4.8341,-4.8133,-4.8761,-4.8601,-4.8174,-4.8421,0.0,0.0,0.0,0.0,0.0,0.0,0.0,-4.842,-4.8627,-4.8707,-4.8832,-4.8894,-4.8956,-4.8877,-4.845,-4.761,-4.6843,-4.677,-4.5772,-4.4917,-4.4614,-4.4614,0.0,0.0,0.0,-4.454,-4.4327,-4.4511,-4.4572,-4.4572,-4.4572,-4.4572,-4.4572,-4.4849,-4.5018,-4.5018,-4.514,-4.5336,-4.5544,-4.4721,-4.4071,0.0,0.0,0.0,0.0,0.0,0.0,0.0,0.0,0.0,0.0,0.0,0.0,0.0,0.0,0.0,0.0,0.0,0.0,0.0,0.0,0.0,0.0,0.0,0.0,0.0,0.0,0.0,0.0,-4.2568,-4.3468,-4.4069,-4.426,-4.4136,0.0,0.0,0.0,0.0,0.0,0.0,-4.4334,-4.4835,-4.5216,-4.5302,-4.5441,-4.5545,-4.5667,-4.5736,-4.5788,-4.5858,-4.585,-4.586,-4.5912,-4.6622,-4.6917,-4.6952,-4.7629,-4.8014,-4.8208,-4.8417,-4.8709,-4.911,-4.8642,-4.8635,-4.8916,-4.9413,-4.9371,-4.917,-4.948,-4.919,-4.8574,-4.8591,-4.8601,-4.8564,-4.8564,0.0,0.0,0.0,0.0,-4.8627,-4.8832,-4.8832,-4.8894,-4.8956,-4.8861,-4.8576,-4.8032,-4.7137,-4.6464,-4.6308,-4.5274,-4.4281,-4.391,-4.3988,0.0,-4.3925,-4.4143,-4.4281,-4.4358,-4.4511,-4.4572,-4.4572,-4.4572,-4.4572,-4.4572,-4.4572,-4.4496,-4.4496,-4.4281,-4.4356,-4.4858,-4.3775,-4.323,-4.3459,0.0,0.0,0.0,0.0,0.0,0.0,0.0,0.0,0.0,0.0,0.0,0.0,0.0,0.0,0.0,0.0,0.0,0.0,0.0,0.0,0.0,0.0,0.0,0.0,0.0,0.0,0.0,0.0,0.0,-4.4722,-4.4885,0.0,0.0,0.0,0.0,-4.4903,-4.5024,-4.5146,-4.5111,-4.5441,-4.5561,-4.5561,-4.5718,-4.5788,-4.5775,-4.5793,-4.5828,-4.5982,-4.5965,-4.6067,-4.6154,-4.6256,-4.6274,-4.6274,-4.6309,-4.6776,-4.7527,-4.8277,-4.8325,-4.7956,-4.8707,-4.8864,-4.8864,-5.0006,-5.0008,-4.9478,-5.0056,-4.9616,-4.8804,-4.8951,-4.8877,-4.8769,-4.8769,-4.8627,0.0,0.0,-4.8769,-4.8832,-4.894,-4.9001,-4.9001,-4.9001,-4.845,-4.795,-4.7885,-4.6795,-4.5769,-4.5769,-4.5142,-4.4511,-4.4281,0.0,-4.4281,-4.4281,-4.4281,-4.4358,-4.4572,-4.4572,-4.4572,-4.4572,-4.4572,-4.4572,-4.4572,-4.4419,-4.4281,-4.4281,-4.391,-4.3784,-4.3814,-4.3468,-4.2752,-4.1688,-4.1601,0.0,0.0,0.0,0.0,0.0,0.0,0.0,0.0,0.0,0.0,0.0,0.0,0.0,0.0,0.0,0.0,0.0,0.0,0.0,0.0,0.0,0.0,0.0,0.0,0.0,0.0,0.0,0.0,-4.479,-4.4895,0.0,-4.5103,-4.5144,-4.5181,-4.525,-4.5302,-4.5353,-4.5458,-4.5544,-4.5632,-4.5732,-4.5887,-4.592,-4.5912,-4.6032,-4.6084,-4.6119,-4.6119,-4.6137,-4.6172,-4.6172,-4.6172,-4.6172,-4.6172,-4.6469,-4.6897,-4.7184,-4.7768,-4.8536,-4.8798,-4.903,-4.915,-4.9756,-4.9678,-4.924,-4.9667,-4.943,-4.8968,-4.8984,-4.894,-4.8956,-4.8956,-4.8877,-4.8815,-4.8894,-4.8956,-4.8956,-4.9001,-4.9001,-4.9001,-4.9001,-4.845,-4.7754,-4.7288,-4.6394,-4.5551,-4.5067,-4.4799,-4.4511,-4.4358,-4.4435,-4.4435,-4.4143,-4.4358,-4.4511,-4.4435,-4.4511,-4.4587,-4.4435,-4.4435,-4.4358,-4.4205,-4.4127,-4.4143,-4.4143,-4.3832,-4.3423,-4.2805,-4.2578,-4.2009,-4.094,-4.094,-4.0443,0.0,0.0,0.0,0.0,0.0,0.0,0.0,0.0,0.0,0.0,0.0,0.0,0.0,0.0,0.0,0.0,0.0,0.0,0.0,0.0,0.0,0.0,0.0,0.0,0.0,-4.4287,-4.4787,-4.4921,-4.5042,-4.5199,-4.5321,-4.5355,-4.5407,-4.551,-4.5511,-4.5563,-4.5667,-4.5702,-4.5786,-4.586,-4.6014,-4.6067,-4.6067,-4.6137,-4.6172,-4.6172,-4.6172,-4.6172,-4.6172,-4.6172,-4.6235,-4.6358,-4.6358,-4.6478,-4.6712,-4.6724,-4.74,-4.8402,-4.855,-4.8781,-4.9082,-4.9521,-4.9461,-4.9118,-4.8936,-4.8575,-4.8318,-4.8545,-4.8646,-4.868,-4.8934,-4.9001,-4.9001,-4.9001,-4.9001,-4.9001,-4.9001,-4.9001,-4.894,-4.8719,-4.8048,-4.7355,-4.6604,-4.5841,-4.5216,-4.4723,-4.4572,-4.4587,-4.4419,-4.4511,-4.4511,-4.4127,-4.4358,-4.4435,-4.4205,-4.4281,-4.4358,-4.4205,-4.4205,-4.405,-4.3551,-4.3472,-4.3299,-4.2951,-4.2805,-4.24,-4.1782,-4.163,-4.1113,-4.0159,-3.9839,-3.9414,-3.8805,0.0,0.0,0.0,0.0,0.0,0.0,0.0,0.0,0.0,0.0,0.0,0.0,0.0,0.0,0.0,0.0,0.0,0.0,0.0,0.0,0.0,0.0,0.0,-4.4502,-4.493,-4.5216,-4.5233,-4.5302,-4.5459,-4.5586,-4.56,-4.566,-4.5788,-4.5788,-4.5767,-4.5824,-4.5912,-4.6014,-4.6032,-4.6119,-4.6172,-4.6172,-4.6172,-4.6172,-4.6172,-4.6172,-4.6172,-4.6172,-4.6221,-4.6341,-4.6613,-4.6613,-4.6757,-4.7008,-4.7017,-4.7119,-4.7339,-4.7886,-4.8254,-4.8587,-4.9343,-4.9434,-4.8996,-4.7957,-4.7245,-4.6944,-4.7614,-4.7885,-4.802,-4.8714,-4.8934,-4.8934,-4.8968,-4.8968,-4.8968,-4.9001,-4.9001,-4.8798,-4.8096,-4.7355,-4.6604,-4.5841,-4.5142,-4.4572,-4.4572,-4.4572,-4.4572,-4.4572,-4.4572,-4.4496,-4.4358,-4.4281,0.0,-4.4065,-4.3988,-4.3988,-4.3988,-4.3988,-4.3551,-4.268,-4.2356,-4.185,-4.0986,-4.0675,-4.0603,-4.0589,-4.0589,-4.0073,-3.921,-3.8304,-3.79,-3.79,0.0,0.0,0.0,0.0,0.0,0.0,0.0,0.0,0.0,0.0,0.0,0.0,0.0,0.0,0.0,0.0,0.0,0.0,0.0,0.0,0.0,-4.4631,-4.4971,-4.4898,-4.5075,-4.525,-4.5319,-4.5353,-4.5459,-4.5594,-4.5588,-4.5638,-4.5765,-4.578,-4.5845,-4.593,-4.5996,-4.6049,-4.6137,-4.6154,-4.6172,-4.6172,-4.6172,-4.6172,-4.6172,-4.6172,-4.6172,-4.6221,-4.6401,-4.6536,-4.6618,-4.6793,-4.6996,-4.7204,-4.7204,-4.738,-4.759,-4.7567,-4.7699,-4.7959,-4.8158,-4.8038,-4.7764,-4.7609,-4.7244,-4.6844,-4.7022,-4.7107,-4.7141,-4.7327,-4.7394,-4.7513,-4.8054,-4.8206,-4.8342,-4.8866,-4.9001,-4.8798,-4.8096,-4.7355,-4.6604,-4.5841,-4.5142,-4.4572,-4.4572,-4.4572,-4.4572,-4.4572,-4.4572,-4.4496,-4.4358,-4.4281,-4.4205,-4.4065,-4.3988,-4.391,-4.3769,-4.314,-4.2629,-4.2222,-4.1449,-4.093,-4.0675,-4.0589,-4.0246,-3.9637,-3.9549,-3.9135,-3.8317,-3.7979,-3.79,0.0,0.0,0.0,0.0,0.0,0.0,0.0,0.0,0.0,0.0,0.0,0.0,0.0,0.0,0.0,0.0,0.0,0.0,0.0,0.0,0.0,0.0,-4.5012,-4.5174,-4.5094,-4.5216,-4.5302,-4.5371,-4.5441,-4.5546,-4.5681,-4.5463,-4.5365,-4.547,-4.519,-4.5032,-4.5145,-4.5133,-4.5137,-4.5238,-4.5256,-4.5256,-4.5256,-4.5589,-4.5796,-4.5875,-4.6209,-4.6416,-4.656,-4.6717,-4.6837,-4.689,-4.7068,-4.7252,-4.745,-4.747,-4.7548,-4.7699,0.0,0.0,0.0,0.0,-4.7273,-4.6743,-4.6934,-4.6464,-4.5923,-4.6227,-4.6346,-4.6397,-4.6701,-4.6786,-4.6887,-4.7327,-4.7445,-4.7547,-4.797,-4.8088,-4.781,-4.6781,-4.624,-4.5729,-4.4991,-4.4499,-4.4233,-4.4526,-4.4572,0.0,-4.4572,-4.4572,-4.4496,-4.4205,-4.4205,-4.405,-4.3738,-4.3738,-4.3503,-4.301,-4.2482,-4.1796,-4.0944,-4.0332,0.0,0.0,0.0,-3.9237,-3.8639,-3.8639,0.0,0.0,0.0,-3.79,-3.79,-3.79,0.0,0.0,-3.79,-3.79,0.0,0.0,0.0,0.0,0.0,0.0,0.0,0.0,0.0,0.0,0.0,0.0,0.0,0.0,0.0,0.0,-4.5144,-4.5233,-4.5233,-4.5338,-4.5407,-4.5477,-4.5476,-4.5542,-4.5778,-4.5141,-4.4847,-4.4935,-4.432,-4.3898,-4.3902,-4.3898,0.0,0.0,0.0,-4.3904,-4.3904,-4.4606,-4.5082,-4.5298,-4.6006,-4.6518,-4.6855,-4.69,-4.7071,-4.7302,-4.732,-4.7468,-4.7717,-4.7717,-4.7717,-4.7717,-4.7717,-4.7717,-4.7717,-4.7717,-4.7017,-4.6098,-4.6098,0.0,0.0,-4.5365,-4.5585,-4.5703,-4.6346,-4.6532,-4.6566,-4.665,-4.6667,-4.6684,-4.671,-4.6667,-4.6317,-4.4935,-4.4608,-4.4385,-4.3676,-4.3464,-4.3633,-4.4233,-4.4356,-4.4341,-4.4341,-4.4479,-4.4404,-4.3959,-4.3866,-4.368,-4.3199,-4.318,-4.2892,-4.1971,-4.1864,0.0,-3.9373,-3.9121,-3.8715,-3.7992,-3.79,-3.79,-3.79,-3.79,-3.79,-3.79,-3.79,-3.79,-3.79,-3.79,-3.79,-3.79,-3.79,-3.79,0.0,0.0,0.0,0.0,0.0,0.0,0.0,0.0,0.0,0.0,0.0,0.0,0.0,0.0,0.0,-4.5127,-4.5284,-4.5389,-4.5494,-4.5329,-4.5396,-4.6046,-4.54,-4.5102,-4.5581,-4.4613,-4.4003,-4.4115,-4.3974,-4.3886,-4.3915,-4.3886,-4.3904,-4.3904,-4.3904,-4.3904,-4.3904,-4.4044,-4.4272,-4.4519,-4.4678,0.0,-4.6034,-4.6193,-4.6665,-4.7302,-4.7511,-4.7657,-4.7717,-4.7717,-4.7717,-4.7717,-4.7717,-4.7717,-4.7717,-4.7717,-4.7017,-4.6098,-4.6098,-4.5442,-4.4604,-4.4756,-4.479,-4.4823,-4.4959,-4.501,0.0,-4.5754,-4.5923,-4.5925,-4.5985,-4.5996,-4.5606,-4.4225,-4.3886,-4.3674,-4.2958,-4.2802,-4.2833,-4.2956,-4.2824,-4.2735,-4.2735,-4.3639,-4.4174,-4.3563,-4.3183,-4.268,-4.2123,-4.2361,-4.2208,-4.1302,-4.0996,-4.0418,-3.9285,-3.8549,-3.807,-3.79,-3.79,-3.79,-3.79,-3.79,-3.79,-3.79,-3.79,-3.79,-3.79,-3.79,-3.79,-3.79,-3.79,-3.79,0.0,0.0,0.0,0.0,0.0,0.0,0.0,0.0,0.0,0.0,0.0,-4.3764,-4.4614,0.0,-4.523,-4.5302,-4.5336,-4.5423,-4.5581,-4.5209,-4.5133,-4.5711,-4.523,-4.4831,-4.4947,-4.4094,-4.349,-4.3342,-4.2973,-4.2745,-4.2745,-4.2745,-4.2745,-4.2745,-4.2745,-4.2745,-4.2745,-4.3268,-4.3642,-4.3898,-4.4403,-4.495,-4.5558,-4.5665,-4.5923,-4.6302,-4.6445,-4.6739,-4.7138,-4.7536,-4.7717,-4.7717,-4.7717,-4.7717,-4.7675,-4.7407,-4.6799,-4.6049,-4.58,-4.5249,-4.4587,-4.4587,-4.4587,-4.4587,-4.4587,-4.4587,-4.4654,-4.5043,-4.5145,-4.5098,-4.4737,-4.4622,-4.4299,-4.2969,-4.2568,-4.2475,-4.2058,-4.1935,-4.2042,-4.2233,-4.2221,-4.2132,-4.2132,-4.2259,-4.2408,-4.2515,-4.2334,-4.2062,-4.1641,-4.1394,-4.0871,-3.9977,-3.941,-3.8659,-3.7718,-3.724,-3.7129,-3.7429,-3.7456,-3.7586,-3.79,-3.79,-3.79,-3.79,-3.79,-3.79,-3.79,-3.79,-3.79,-3.79,-3.79,-3.79,0.0,0.0,0.0,0.0,0.0,0.0,0.0,-4.0758,-4.128,-4.2847,-4.3393,-4.3864,-4.4852,-4.514,-4.5247,-4.5371,-4.5423,-4.5424,-4.5425,-4.5033,-4.4794,-4.5017,-4.4807,-4.4563,-4.4414,-4.3668,-4.3028,-4.2687,-4.2088,-4.1719,-4.1719,-4.1788,-4.1831,-4.1831,-4.1831,-4.1831,-4.1831,-4.2579,-4.3131,-4.3399,-4.4091,-4.4692,-4.5073,-4.5073,-4.5146,-4.5291,-4.5291,-4.5671,-4.6323,-4.6975,-4.7337,-4.7482,-4.7482,-4.7572,-4.7615,-4.7107,-4.6548,-4.6,-4.5511,-4.4981,-4.4587,-4.4587,-4.4587,-4.4587,-4.4587,-4.4587,-4.4587,-4.4587,-4.4587,-4.4384,-4.3529,-4.3317,-4.2953,-4.1641,-4.1276,-4.1232,-4.1162,-4.1087,-4.1168,-4.1571,-4.1605,-4.1531,-4.1531,-4.071,-4.0268,-4.113,-4.1069,-4.0873,-4.0588,-4.0032,-3.9304,-3.8417,-3.7868,-3.7107,-3.6184,-3.6109,-3.6305,-3.6789,-3.6828,-3.705,-3.7534,-3.7547,-3.7547,-3.7547,-3.7678,-3.773,-3.773,-3.7848,-3.79,-3.79,-3.79,-3.79,-3.9104,-3.9394,-3.961,-3.9681,-3.998,-4.0261,0.0,-4.0888,-4.1641,-4.2458,-4.3317,-4.4169,-4.4852,-4.5211,-4.5371,-4.5423,-4.5528,-4.539,-4.4883,-4.4847,-4.4713,-4.4227,-4.3781,-4.385,-4.4602,-4.3249,-4.2299,-4.2258,-4.2169,-4.2133,-4.2133,-4.2462,-4.2657,-4.2657,-4.2657,-4.2657,-4.2657,-4.2609,-4.2721,-4.2951,-4.2886,-4.3358,-4.4222,-4.4222,-4.4621,-4.5291,-4.5291,-4.5345,-4.5436,-4.5526,-4.5997,-4.6631,-4.6631,-4.7083,-4.7615,-4.7107,-4.6548,-4.6,-4.5511,-4.4981,-4.4587,-4.4587,-4.4587,-4.4587,-4.4587,-4.4587,-4.4587,-4.4587,-4.4587,-4.431,-4.297,-4.2645,-4.2269,-4.0956,-4.0524,-4.0416,-4.0438,-4.0243,-4.0132,-4.0208,-4.0066,-3.9994,-3.9994,-3.9151,-3.8745,-3.9604,-3.8909,-3.8132,-3.7473,-3.7833,-3.7788,-3.6893,-3.7204,-3.7107,-3.6184,-3.6109,-3.6136,-3.6201,-3.6201,-3.624,-3.6305,-3.6305,-3.6305,-3.6305,-3.6828,-3.7103,-3.7103,-3.7639,-3.79,-3.79,-3.79,-3.79,-3.9394,-3.9696,-3.9854,-3.9854,-4.0066,-4.0401,-4.0768,-4.1142,-4.1591,-4.2332,-4.33,-4.4112,-4.4356,-4.4961,-4.5423,-4.5423,-4.5165,-4.4921,-4.4692,-4.4021,-4.3665,-4.396,-4.343,-4.3297,-4.3903,-4.3306,-4.281,-4.258,-4.2541,-4.2541,-4.2541,-4.2754,-4.2848,-4.281,-4.2829,-4.2848,-4.2848,-4.279,-4.2826,-4.2976,-4.2844,-4.2987,-4.3389,-4.3389,-4.3588,-4.3914,-4.4385,-4.4603,-4.4639,-4.511,-4.549,-4.5798,-4.5798,-4.6015,-4.6313,-4.6415,-4.631,-4.595,-4.5196,-4.4759,-4.4587,-4.4587,-4.4587,-4.4587,-4.4587,-4.4587,-4.4587,-4.4587,-4.431,-4.3722,-4.2769,-4.2205,-4.1641,-4.0662,-4.0331,-4.0277,-3.998,-3.991,-3.9768,-3.964,-3.9568,-3.9409,-3.8943,-3.8084,-3.7394,-3.7338,-3.7302,-3.7189,-3.6922,-3.674,-3.6279,-3.5392,-3.5535,-3.5513,-3.5103,-3.5103,-3.526,-3.5613,-3.5639,-3.577,-3.6096,-3.6109,-3.6109,-3.6109,-3.6358,-3.6488,-3.6488,-3.6737,-3.6854,-3.6854,-3.6854,-3.6854,-3.961,-3.9839,-3.9996,-4.0066,-4.0207,-4.0455,-4.0956,-4.1091,-4.1343,-4.2332,-4.312,-4.3864,-4.4226,-4.4889,-4.5423,-4.5423,-4.4906,-4.4538,-4.4362,-4.3559,-4.317,-4.3599,-4.336,-4.3248,-4.356,-4.3474,-4.3283,-4.2996,-4.2959,-4.2978,-4.2978,-4.3159,-4.323,-4.3212,-4.323,-4.3265,-4.3281,-4.3213,-4.316,-4.3178,-4.305,-4.2957,-4.2882,-4.2882,-4.2882,-4.2918,-4.3516,-4.3769,-4.3806,-4.4385,-4.4765,-4.4965,-4.4965,-4.5091,-4.5296,-4.5439,-4.5607,-4.567,-4.4892,-4.4587,-4.4587,-4.4587,-4.4587,-4.4587,-4.4587,-4.4587,-4.4587,-4.4587,-4.4047,-4.3333,-4.2691,-4.1965,-4.1276,-4.0455,-4.0207,-4.0051,-3.9753,-3.9696,-3.9553,-3.9424,-3.9192,-3.8885,-3.8277,-3.7309,-3.6346,-3.583,-3.5963,-3.6188,-3.6188,-3.5736,-3.5114,-3.4481,-3.4397,-3.4397,-3.4397,-3.4397,-3.458,-3.5012,-3.5051,-3.5221,-3.5626,-3.5639,-3.5639,-3.5639,-3.5796,-3.5874,-3.5874,-3.6031,-3.6109,-3.6109,-3.6109,-3.6109,-3.961,-3.9839,-4.0081,-4.0277,-4.0401,-4.0524,-4.0524,-4.0524,-4.0904,-4.2205,-4.2753,-4.342,-4.4725,-4.5211,-4.5423,-4.5423,-4.4991,-4.4428,-4.3663,-4.3764,-4.3674,-4.2936,-4.3493,-4.3974,-4.3974,-4.3627,-4.3387,-4.3387,-4.3371,-4.3422,-4.3471,-4.3923,-4.4214,-4.4237,-4.4195,-4.4195,-4.4255,-4.3992,-4.3781,-4.3579,-4.3373,-4.316,-4.2882,-4.2882,-4.2882,-4.2882,-4.2918,-4.2936,-4.2936,-4.2955,-4.3425,-4.4132,-4.4132,-4.4603,-4.517,-4.4236,-4.4295,-4.4886,-4.465,-4.4587,-4.4587,-4.4587,-4.4587,-4.4587,-4.4587,-4.4587,-4.4587,-4.4587,-4.4047,-4.3333,-4.2691,-4.1901,-4.1158,-4.047,-3.998,-3.9681,-3.9681,-3.9553,-3.9424,-3.9424,-3.8738,-3.8202,-3.8202,-3.6858,-3.5749,-3.5669,-3.5032,-3.4481,-3.4481,-3.4468,-3.4397,-3.4397,-3.4397,-3.4397,-3.4397,-3.4397,-3.441,-3.4424,-3.4424,-3.4437,-3.445,-3.445,-3.445,-3.445,-3.5025,-3.5325,-3.5325,-3.5848,-3.6109,-3.6109,-3.6109,-3.6109,-3.9839,-4.0066,-4.0277,-4.0401,-4.047,-4.0524,-4.0524,-4.0524,-4.0662,-4.1225,-4.1885,-4.2629,-4.3706,-4.4373,-4.4906,-4.5318,-4.4558,-4.3899,-4.3915,-4.3284,-4.2886,-4.3178,-4.344,-4.3712,-4.3955,-4.3892,-4.3809,-4.3809,-4.386,-4.3942,-4.3974,-4.4165,-4.4274,-4.4244,-4.4214,-4.4244,-4.4285,-4.4023,-4.3814,-4.3646,-4.3232,-4.2995,-4.2882,-4.2882,-4.2882,-4.2882,-4.2882,-4.2882,-4.2882,-4.2882,-4.3045,-4.3299,-4.3299,-4.3462,-4.3635,-4.3165,-4.3156,-4.3418,-4.3712,-4.3809,-4.3893,-4.4418,-4.4587,-4.4587,-4.4587,-4.4587,-4.4587,-4.4587,-4.3739,-4.2753,-4.2583,-4.1575,-4.0524,-4.0207,-3.991,-3.9681,-3.9553,-3.9424,-3.9265,-3.8738,-3.8352,-3.7886,-3.6702,-3.6056,-3.5507,-3.495,-3.4551,-3.4397,-3.4397,-3.4397,-3.4397,-3.4397,-3.4397,-3.4397,-3.4397,-3.4397,-3.4397,-3.4397,-3.4397,-3.4397,-3.4397,-3.4397,-3.4397,-3.4397,-3.4593,-3.4698,-3.4698,-3.4881,-3.4972,-3.4972,-3.4972,-3.4972,-4.0066,-4.0207,-4.0331,-4.047,-4.0524,-4.0524,-4.0524,-4.0524,-4.0593,-4.0972,-4.1575,-4.2316,-4.335,-4.4071,-4.4686,-4.53,-4.4283,-4.3585,-4.4029,-4.3077,-4.2619,-4.3336,-4.3508,-4.3712,-4.3955,-4.4005,-4.4005,-4.4055,-4.4104,-4.4165,-4.4244,-4.4255,-4.4274,-4.4244,-4.4244,-4.4274,-4.4344,-4.4177,-4.3942,-4.3679,-4.3267,-4.2995,-4.2882,-4.2882,-4.2882,-4.2882,-4.2882,-4.2882,-4.2882,-4.2882,-4.2882,-4.2882,-4.2882,-4.2882,-4.286,-4.2351,-4.2191,-4.2265,-4.2825,-4.3014,-4.3149,-4.391,-4.4164,-4.4215,-4.4485,-4.4587,-4.457,-4.4293,-4.341,-4.2458,-4.2141,-4.1142,-4.0137,-3.9925,-3.9768,-3.9553,-3.9424,-3.9424,-3.9192,-3.8352,-3.7947,-3.7309,-3.591,-3.5426,-3.5032,-3.4481,-3.4397,-3.4397,-3.4397,-3.4397,-3.4397,-3.4397,-3.4397,-3.4397,-3.4397,-3.4397,-3.4397,-3.4397,-3.4397,-3.4397,-3.4397,-3.4397,-3.4397,-3.4397,-3.4397,-3.4397,-3.4397,-3.4397,-3.4397,-3.4397,-3.4397,-3.4397,-4.0207,-4.0347,-4.0331,-4.047,-4.0524,-4.0524,-4.0524,-4.0524,-4.0646,-4.1343,-4.1755,-4.2425,-4.3731,-4.4243,-4.4686,-4.53,-4.4232,-4.3489,-4.4057,-4.325,-4.2811,-4.3371,-4.3777,-4.4005,-4.4005,-4.4005,-4.4055,-4.4184,-4.4085,-4.4097,-4.4285,-4.4244,-4.4244,-4.4285,-4.4285,-4.4344,-4.4383,-4.4383,-4.414,-4.3679,-4.3408,-4.3124,-4.2882,-4.2882,-4.2882,-4.2882,-4.2882,-4.2882,-4.2882,-4.2882,-4.2882,-4.2882,-4.2882,-4.2882,-4.2806,-4.1828,-4.1481,-4.1558,-4.2006,-4.2202,-4.2371,-4.3115,-4.3386,-4.3555,-4.4299,-4.4553,-4.444,-4.3706,-4.3015,-4.2332,-4.1525,-4.0631,-3.9925,-3.9768,-3.9553,-3.9424,-3.9424,-3.9352,-3.9119,-3.8277,-3.7386,-3.6503,-3.5736,-3.495,-3.4397,-3.4397,-3.4397,-3.4397,-3.4397,-3.4397,-3.4397,-3.4397,-3.4397,-3.4397,-3.4397,-3.4397,-3.4397,-3.4397,-3.4397,-3.4397,-3.4397,-3.4397,-3.4397,-3.4397,-3.4397,-3.4397,-3.4397,-3.4397,-3.4397,-3.4397,-3.4397,-3.4397,-4.0261,-4.0401,-4.047,-4.0455,-4.0524,-4.0524,-4.0524,-4.0524,-4.0593,-4.0904,-4.1509,-4.2316,-4.329,-4.4013,-4.4686,-4.53,-4.4283,-4.371,-4.4464,-4.3494,-4.3014,-4.3777,-4.3923,-4.4005,-4.4005,-4.4005,-4.4055,-4.4184,-4.4184,-4.4165,-4.4214,-4.4214,-4.4214,-4.4214,-4.4214,-4.4274,-4.4314,-4.4036,-4.3809,-4.3679,-4.3232,-4.2957,-4.2882,-4.2882,-4.2882,-4.2882,-4.2882,-4.2882,-4.2882,-4.2882,-4.2882,-4.2882,-4.2882,-4.2882,-4.2806,-4.1828,-4.1481,-4.1401,-4.0878,-4.1018,-4.1593,-4.2337,-4.2963,-4.3453,-4.3656,-4.4113,-4.444,-4.3621,-4.2847,-4.2141,-4.1327,-4.0424,-3.9768,-3.9681,-3.9553,-3.9424,-3.9424,-3.8958,-3.8263,-3.7372,-3.6042,-3.4937,-3.4799,-3.4551,-3.4397,-3.4397,-3.4397,-3.4397,-3.4397,-3.4397,-3.4397,-3.4397,-3.4397,-3.4397,-3.4397,-3.4397,-3.4397,-3.4397,-3.4397,-3.4397,-3.4397,-3.4397,-3.4397,-3.4397,-3.4397,-3.4397,-3.4397,-3.4397,-3.4397,-3.4397,-3.4397,-3.4397,-4.0401,-4.047,-4.0524,-4.0524,-4.0524,-4.0524,-4.0524,-4.0524,-4.0524,-4.0662,-4.1343,-4.2141,-4.3031,-4.3839,-4.4631,-4.53,-4.4283,-4.3663,-4.4351,-4.3454,-4.2978,-4.366,-4.3892,-4.4005,-4.4005,-4.4005,-4.4036,-4.4104,-4.4104,-4.4135,-4.4184,-4.4135,-4.4104,-4.4104,-4.4214,-4.4226,-4.4188,-4.3986,-4.3744,-4.3511,-4.3232,-4.3032,-4.2882,-4.2882,-4.2882,-4.2882,-4.2882,-4.2882,-4.2882,-4.2882,-4.2882,-4.2882,-4.2882,-4.275,-4.2498,-4.1743,-4.1348,-4.1094,-4.0336,-4.0358,-4.0832,-4.1576,-4.21,-4.2574,-4.3217,-4.3669,-4.3849,-4.307,-4.252,-4.1869,-4.0721,-4.0091,-3.9696,-3.9625,-3.9481,-3.9424,-3.9424,-3.8738,-3.7796,-3.6596,-3.5345,-3.4397,-3.4397,-3.4397,-3.4397,-3.4397,-3.4397,-3.4397,-3.4397,-3.4397,-3.4397,-3.4397,-3.4397,-3.4397,-3.4397,-3.4397,-3.4397,-3.4397,-3.4397,-3.4397,-3.4397,-3.4397,-3.4397,-3.4397,-3.4397,-3.4397,-3.4397,-3.4397,-3.4397,-3.4397,-3.4397,-3.4397,-4.047,-4.0524,-4.0524,-4.0524,-4.0524,-4.0524,-4.0524,-4.0524,-4.0524,-4.0524,-4.1225,-4.2094,-4.286,-4.3706,-4.4575,-4.5264,-4.4232,-4.3489,-4.4029,-4.325,-4.2811,-4.3336,-4.3744,-4.4005,-4.4005,-4.4005,-4.4005,-4.4005,-4.4005,-4.4055,-4.4184,-4.4055,-4.4005,-4.4036,-4.4207,-4.4237,-4.4091,-4.406,-4.3809,-4.3303,-4.3267,-4.3142,-4.2882,-4.2882,-4.2882,-4.2882,-4.2882,-4.2882,-4.2882,-4.2882,-4.2882,-4.2882,-4.2882,-4.2634,-4.2157,-4.1656,-4.1185,-4.0707,-4.0254,-4.007,-4.0189,-4.0849,-4.1119,-4.1441,-4.2743,-4.3158,-4.3053,-4.2337,-4.2061,-4.1609,-4.0076,-3.9681,-3.9625,-3.9409,-3.9424,-3.9424,-3.9424,-3.8649,-3.7567,-3.583,-3.495,-3.4397,-3.4397,-3.4397,-3.4397,-3.4397,-3.4397,-3.4397,-3.4397,-3.4397,-3.4397,-3.4397,-3.4397,-3.4397,-3.4397,-3.4397,-3.4397,-3.4397,-3.4397,-3.4397,-3.4397,-3.4397,-3.4397,-3.4397,-3.4397,-3.4397,-3.4397,-3.4397,-3.4397,-3.4397,-3.4397,-3.4397,-4.0455,-4.0524,-4.0524,-4.0524,-4.0524,-4.0524,-4.0524,-4.0524,-4.0524,-4.0524,-4.126,-4.2189,-4.286,-4.3806,-4.4669,-4.5318,-4.4333,-4.3633,-4.4029,-4.335,-4.2904,-4.3371,-4.3744,-4.4005,-4.4005,-4.4005,-4.4005,-4.4005,-4.4005,-4.4005,-4.4036,-4.4005,-4.4085,-4.4237,-4.4344,-4.4277,-4.4091,-4.3873,-4.3612,-4.3303,-4.3069,-4.2957,-4.2882,-4.2882,-4.2882,-4.2882,-4.2882,-4.2882,-4.2882,-4.2882,-4.2882,-4.2882,-4.2882,-4.2634,-4.2157,-4.1656,-4.1185,-4.0707,-4.0254,-4.007,-4.0104,-4.0223,-4.0696,-4.1255,-4.1508,-4.2348,-4.2936,-4.1552,-4.1438,-4.1412,-3.9879,-3.9409,-3.9409,-3.9424,-3.9424,-3.9424,-3.9424,-3.8234,-3.666,-3.495,-3.4481,-3.4397,-3.4397,-3.4397,-3.4397,-3.4397,-3.4397,-3.4397,-3.4397,-3.4397,-3.4397,-3.4397,-3.4397,-3.4397,-3.4397,-3.4397,-3.4397,-3.4397,-3.4397,-3.4397,-3.4397,-3.4397,-3.4397,-3.4397,-3.4397,-3.4397,-3.4397,-3.4397,-3.4397,-3.4397,-3.4397,-3.4397,-4.0524,-4.0524,-4.0524,-4.0524,-4.0524,-4.0524,-4.0524,-4.0593,-4.0662,-4.0662,-4.1425,-4.2301,-4.3031,-4.3839,-4.4631,-4.5318,-4.4333,-4.3554,-4.374,-4.3245,-4.2867,-4.3069,-4.3627,-4.4005,-4.4005,-4.4005,-4.4005,-4.4005,-4.4005,-4.4005,-4.4005,-4.4005,-4.4097,-4.4285,-4.4344,-4.4188,-4.3905,-4.3744,-4.3511,-4.3105,-4.2957,-4.2882,-4.2882,-4.2882,-4.2882,-4.2882,-4.2882,-4.2882,-4.2882,-4.2882,-4.2882,-4.2882,-4.2882,-4.244,-4.1803,-4.1569,-4.1047,-4.0385,-4.0171,-4.007,-4.007,-4.007,-4.0324,-4.0696,-4.1085,-4.1305,-4.1361,-4.1013,-4.0704,-4.0406,-3.9591,-3.9424,-3.9424,-3.9424,-3.9424,-3.9177,-3.8308,-3.7434,-3.6425,-3.4703,-3.4397,-3.4397,-3.4397,-3.4397,-3.4397,-3.4397,-3.4397,-3.4397,-3.4397,-3.4397,-3.4397,-3.4397,-3.4397,-3.4397,-3.4397,-3.4397,-3.4397,-3.4397,-3.4397,-3.4397,-3.4397,-3.4397,-3.4397,-3.4397,-3.4397,-3.4397,-3.4397,-3.4397,-3.4397,-3.4397,-3.4397,-3.4397,-4.0524,-4.0524,-4.0524,-4.0524,-4.0524,-4.0524,-4.0524,-4.0662,-4.0867,-4.0987,-4.1638,-4.2396,-4.335,-4.3972,-4.4575,-4.5264,-4.4333,-4.3475,-4.3523,-4.301,-4.2678,-4.281,-4.344,-4.3892,-4.4005,-4.4005,-4.4005,-4.4005,-4.4005,-4.4005,-4.4005,-4.4036,-4.4116,-4.4285,-4.4314,-4.4128,-4.3712,-4.3712,-4.3442,-4.2882,-4.2882,-4.2882,-4.2882,-4.2882,-4.2882,-4.2882,-4.2882,-4.2882,-4.2882,-4.2882,-4.2882,-4.2882,-4.2806,-4.2239,-4.1481,-4.1393,-4.0832,-4.007,-4.007,-4.007,-4.007,-4.007,-4.007,-4.0189,-4.0592,-4.0296,-3.983,-4.0128,-3.9875,-3.9465,-3.9264,-3.9305,-3.9424,-3.9424,-3.9424,-3.8943,-3.7281,-3.688,-3.6425,-3.4703,-3.4397,-3.4397,-3.4397,-3.4397,-3.4397,-3.4397,-3.4397,-3.4397,-3.4397,-3.4397,-3.4397,-3.4397,-3.4397,-3.4397,-3.4397,-3.4397,-3.4397,-3.4397,-3.4397,-3.4397,-3.4397,-3.4397,-3.4397,-3.4397,-3.4397,-3.4397,-3.4397,-3.4397,-3.4481,-3.4716,-3.4716,-3.4786,-4.0524,-4.0524,-4.0524,-4.0524,-4.0524,-4.0524,-4.0524,-4.0662,-4.0987,-4.1607,-4.1997,-4.2661,-4.3905,-4.4299,-4.4669,-4.5318,-4.4232,-4.3377,-4.3458,-4.2679,-4.2262,-4.2716,-4.3177,-4.3594,-4.3955,-4.4005,-4.4005,-4.4005,-4.4005,-4.4005,-4.4005,-4.4104,-4.4214,-4.4285,-4.4373,-4.4158,-4.3712,-4.3712,-4.3442,-4.2882,-4.2882,-4.2882,-4.2882,-4.2882,-4.2882,-4.2882,-4.2882,-4.2882,-4.2882,-4.2882,-4.2882,-4.2844,-4.2418,-4.1931,-4.1437,-4.1019,-4.0531,-4.007,-4.007,-4.007,-4.007,-4.007,-4.007,-3.9969,-3.9329,-3.9413,-3.9503,-3.8262,-3.8673,-3.9342,-3.8677,-3.8945,-3.9424,-3.9424,-3.9424,-3.8943,-3.7281,-3.688,-3.6425,-3.4703,-3.4397,-3.4397,-3.4397,-3.4397,-3.4397,-3.4397,-3.4397,-3.4397,-3.4397,-3.4397,-3.4397,-3.4397,-3.4397,-3.4397,-3.4397,-3.4397,-3.4397,-3.4397,-3.4397,-3.4397,-3.4397,-3.4397,-3.4397,-3.4397,-3.4397,-3.4397,-3.4397,-3.4397,-3.4799,-3.5588,-3.5588,-3.5963,-4.0524,-4.0524,-4.0524,-4.0524,-4.0524,-4.0524,-4.0662,-4.0814,-4.1205,-4.1933,-4.2317,-4.2863,-4.4186,-4.4429,-4.4686,-4.53,-4.4681,-4.3965,-4.3576,-4.3102,-4.2816,-4.2788,-4.3141,-4.356,-4.3955,-4.4005,-4.4005,-4.4005,-4.4005,-4.4005,-4.4005,-4.4055,-4.4147,-4.4285,-4.4314,-4.4128,-4.3712,-4.3873,-4.3594,-4.2882,-4.305,-4.3069,-4.2882,-4.2882,-4.2882,-4.2882,-4.2882,-4.2882,-4.2882,-4.2882,-4.2882,-4.2844,-4.2378,-4.1931,-4.1437,-4.0972,-4.0483,-4.007,-4.007,-4.007,-4.0087,-3.9986,-3.9696,-3.9315,-3.9016,-3.8721,-3.836,-3.7748,-3.7621,-3.7812,-3.8267,-3.8901,-3.9424,-3.9424,-3.9031,-3.8337,-3.7127,-3.6503,-3.5816,-3.4634,-3.4397,-3.4397,-3.4397,-3.4397,-3.4397,-3.4397,-3.4397,-3.4397,-3.4397,-3.4397,-3.4397,-3.4397,-3.4397,-3.4397,-3.4397,-3.4397,-3.4397,-3.4397,-3.4397,-3.4397,-3.4397,-3.4397,-3.4397,-3.4397,-3.4397,-3.4397,-3.4397,-3.495,-3.5345,-3.5749,-3.6201,-3.6582,-4.0524,-4.0524,-4.0524,-4.0524,-4.0524,-4.0524,-4.073,0.0,-4.1339,-4.238,-4.274,-4.3229,-4.4558,-4.478,-4.4961,-4.5371,-4.5042,-4.4411,-4.3676,-4.3356,-4.3024,-4.2688,-4.2867,-4.3248,-4.3777,-4.3923,-4.4005,-4.4005,-4.4005,-4.4005,-4.4005,-4.4005,-4.4097,-4.4285,-4.4285,-4.4128,-4.3809,-4.3936,-4.366,-4.3032,-4.3124,-4.3087,-4.2882,-4.2882,-4.2882,-4.2882,-4.2882,-4.2882,-4.2882,-4.2882,-4.2806,-4.2634,-4.2198,-4.1717,-4.123,-4.0754,-4.0385,-4.007,-4.007,-4.007,-4.0037,-3.9952,-3.9401,-3.8761,-3.858,-3.7962,-3.727,-3.7032,-3.6864,-3.7015,-3.8108,-3.8901,-3.9424,-3.9424,-3.8958,-3.8263,-3.7127,-3.6425,-3.5655,-3.4634,-3.4314,-3.4314,-3.4397,-3.4397,-3.4397,-3.4397,-3.4397,-3.4397,-3.4397,-3.4397,-3.4397,-3.4397,-3.4397,-3.4397,-3.4397,-3.4397,-3.4481,-3.4799,-3.4799,-3.4868,-3.5101,-3.495,-3.4868,-3.5101,-3.495,-3.4868,-3.5182,-3.5736,-3.6215,-3.6452,-3.6986,-3.7448,-4.0524,-4.0524,-4.0524,-4.0524,-4.0524,-4.0524,0.0,-4.095,-4.1554,-4.3003,-4.341,-4.3864,-4.514,-4.5528,-4.5581,-4.5581,-4.5076,-4.4443,-4.382,-4.3051,-4.2492,-4.2222,-4.2198,-4.2541,-4.3336,-4.3777,-4.4005,-4.4005,-4.4005,-4.4005,-4.4005,-4.4005,-4.4097,-4.4285,-4.4285,-4.4237,-4.4109,-4.3841,-4.3579,-4.3303,-4.3032,-4.2882,-4.2882,-4.2882,-4.2882,-4.2882,-4.2882,-4.2882,-4.2882,-4.2882,-4.2634,-4.2157,-4.17,-4.123,-4.0754,-4.0254,-4.0121,-4.007,-4.007,-4.0037,-3.9901,-3.9901,-3.9259,-3.839,-3.7822,-3.716,-3.6446,-3.5733,-3.6417,-3.7554,-3.8212,-3.8901,-3.9424,-3.9424,-3.9424,-3.8943,-3.7281,-3.6724,-3.6188,-3.4716,-3.4243,-3.416,-3.4397,-3.4397,-3.4397,-3.4397,-3.4397,-3.4397,-3.4397,-3.4397,-3.4397,-3.4397,-3.4397,-3.4397,-3.4397,-3.4397,-3.4799,-3.5669,-3.5669,-3.6042,-3.6802,-3.6122,-3.6042,-3.688,-3.6122,-3.6042,-3.688,-3.688,-3.7295,-3.8202,-3.8202,-3.8575,-4.0524,-4.0524,-4.0524,-4.0524,-4.0593,-4.073,-4.0966,-4.1153,-4.1638,-4.3152,-4.3453,-4.3864,-4.5194,-4.5528,-4.5632,-4.5632,-4.5561,-4.5152,-4.389,-4.36,-4.3163,-4.2276,-4.2422,-4.2734,-4.2959,-4.3105,-4.3177,-4.3177,-4.3177,-4.3283,-4.3594,-4.3594,-4.3777,-4.4214,-4.4274,-4.4207,-4.4017,-4.3999,-4.3744,-4.3303,-4.3196,-4.3069,-4.2882,-4.2882,-4.2882,-4.2882,-4.2882,-4.2882,-4.2882,-4.2882,-4.2634,-4.2157,-4.1656,-4.123,-4.0754,-4.0254,-4.0037,-3.9935,-3.9935,-3.9901,-3.9661,-3.9135,-3.8446,-3.7764,-3.7011,-3.6646,-3.6352,-3.5668,-3.6118,-3.6926,-3.7554,-3.8212,-3.8841,-3.9305,-3.8885,-3.8098,-3.6972,-3.6029,-3.5413,-3.5087,-3.4538,-3.4314,-3.5114,-3.4799,-3.4634,-3.5196,-3.5264,-3.5264,-3.5264,-3.5803,-3.5883,-3.5345,-3.5803,-3.5642,-3.4481,-3.495,-3.5426,-3.5669,-3.6201,-3.666,-3.688,-3.666,-3.666,-3.6894,-3.666,-3.666,-3.688,-3.7462,-3.8173,-3.9031,-3.9031,-3.9192,-4.0524,-4.0524,-4.0593,-4.0836,-4.1039,-4.1307,-4.1688,0.0,0.0,0.0,0.0,0.0,-4.5194,-4.5581,-4.5684,-4.5684,-4.5871,-4.553,-4.3973,-4.3857,-4.3399,-4.2136,-4.232,-4.258,-4.258,-4.2734,-4.281,-4.281,-4.281,-4.2996,-4.3371,-4.3406,-4.3627,-4.4104,-4.4226,-4.4237,-4.4158,-4.4017,-4.3777,-4.3442,-4.3232,-4.3069,-4.2882,-4.2882,-4.2882,-4.2882,-4.2882,-4.2882,0.0,-4.2711,-4.236,-4.1888,-4.141,-4.0926,-4.0451,-4.0121,-3.9935,-3.9833,-3.9833,-3.9746,-3.952,-3.8756,-3.7879,-3.7011,-3.6258,-3.6085,-3.5958,-3.5619,-3.5983,-3.6626,-3.724,-3.7898,-3.8556,-3.926,-3.8885,-3.8023,-3.688,-3.6188,-3.5722,-3.5386,-3.5087,-3.5182,-3.6042,-3.5722,-3.5575,-3.6042,-3.6122,-3.6122,-3.6122,-3.6582,-3.6738,-3.6201,-3.6582,-3.6503,-3.5413,-3.5803,-3.6281,-3.6624,-3.7078,-3.7525,-3.7829,-3.7525,-3.7525,-3.7829,-3.7539,-3.7525,-3.7829,-3.8412,-3.8885,-3.9424,-3.9424,-3.9424,0.0,-4.0524,-4.0646,-4.1327,-4.1656,-4.2029,-4.2814,0.0,0.0,0.0,0.0,0.0,0.0,0.0,-4.577,-4.577,-4.6023,-4.5677,-4.4115,-4.3799,-4.3202,-4.178,-4.1941,-4.2175,-4.2175,-4.2501,-4.2716,-4.2716,-4.2716,-4.2904,-4.3318,-4.3371,-4.3542,-4.3923,-4.4128,-4.4266,-4.4354,-4.3923,-4.3679,-4.3646,-4.3124,-4.2882,-4.2882,-4.2882,-4.2882,-4.2882,-4.2882,-4.2882,-4.2806,-4.2378,-4.1888,-4.1393,-4.0972,-4.0451,-3.9901,-3.9901,-3.9781,-3.9677,-3.9677,-3.959,-3.9379,-3.8629,-3.7472,-3.6258,-3.5683,-3.5504,-3.5504,-3.5504,-3.5953,-3.6567,-3.724,-3.7853,-3.8497,-3.9245,-3.9265,-3.8634,-3.7035,-3.6958,-3.688,-3.5695,-3.5963,-3.6439,-3.6894,-3.6958,-3.688,-3.6958,-3.6958,-3.6958,-3.6958,-3.7035,-3.7049,-3.6972,-3.7035,-3.7035,-3.7035,-3.7049,-3.7372,-3.8127,-3.8277,-3.8649,-3.9337,-3.8664,-3.8664,-3.9424,-3.8664,-3.8664,-3.9424,-3.9424,-3.9424,-3.9424,-3.9424,-3.9454,-4.0662,0.0,-4.0919,-4.1541,-4.1997,-4.2364,0.0,0.0,0.0,0.0,0.0,0.0,0.0,0.0,0.0,-4.577,-4.6023,-4.5677,-4.4115,-4.2886,-4.2008,-4.1639,-4.1675,-4.1762,-4.1762,-4.1831,-4.1856,-4.1856,-4.1856,-4.2198,-4.2904,-4.2959,-4.3141,-4.3508,-4.3642,-4.3791,-4.4023,-4.3795,-4.3612,-4.3408,-4.3069,-4.2882,-4.2882,-4.2882,-4.2882,-4.2882,-4.2882,-4.2711,-4.2378,-4.2257,-4.1656,-4.0814,-4.0672,-4.0286,-3.9729,-3.9729,-3.9642,-3.9554,-3.9554,-3.9432,-3.9148,-3.801,-3.6784,-3.5683,-3.5569,-3.5504,-3.5504,-3.5504,-3.5609,-3.5998,-3.712,-3.7524,-3.7943,-3.914,-3.9265,-3.8782,-3.751,-3.7357,-3.7357,-3.7035,-3.6738,-3.6816,-3.7706,-3.7372,-3.7127,-3.7782,-3.7872,-3.7872,-3.7872,-3.8412,-3.856,-3.7947,-3.8486,-3.8782,-3.8782,-3.8248,-3.7962,-3.8202,-3.8811,-3.9192,-3.9424,-3.9192,-3.9192,-3.9424,-3.9192,-3.9192,-3.9424,-3.9424,-3.9424,-3.9424,-3.9424,-3.9694,-4.073,-4.0799,-4.1039,-4.2094,-4.2537,-4.2986,-4.3956,0.0,0.0,0.0,0.0,0.0,0.0,0.0,0.0,-4.5871,-4.5775,-4.5168,-4.3605,-4.2359,-4.1604,-4.1604,-4.1604,-4.1604,-4.1604,-4.1604,-4.1604,-4.1604,-4.1604,-4.1856,-4.2501,-4.2541,-4.2696,-4.3105,-4.3176,-4.3281,-4.344,-4.3389,-4.332,-4.3142,-4.2976,-4.2882,-4.2882,-4.2882,-4.2882,-4.2882,-4.2882,-4.2634,-4.2198,-4.1973,-4.1393,-4.0594,-4.0368,-4.0003,-3.959,-3.959,-3.9537,-3.9395,-3.9395,-3.8969,-3.8254,-3.7251,-3.6258,-3.5359,-3.5359,-3.5294,-3.5294,-3.5439,-3.5504,-3.5804,-3.7075,-3.7404,-3.7749,-3.9095,-3.9265,-3.8782,-3.7753,-3.7767,-3.7857,-3.7525,-3.7587,-3.7843,-3.8649,-3.8397,-3.8234,-3.8649,-3.8738,-3.8738,-3.8738,-3.9119,-3.9265,-3.8811,-3.9119,-3.9424,-3.9424,-3.9031,-3.8738,-3.8738,-3.9192,-3.9424,-3.9424,-3.9424,-3.9424,-3.9424,-3.9424,-3.9424,-3.9424,-3.9424,-3.9424,-3.9424,-3.9723,-4.0053,-4.0904,-4.0987,-4.1358,-4.2567,-4.3092,-4.3663,-4.4835,0.0,0.0,0.0,0.0,0.0,0.0,-4.5736,-4.5871,-4.5972,-4.5387,-4.4431,-4.3009,-4.2113,-4.1604,-4.1604,-4.1604,-4.1604,-4.1604,-4.1604,-4.1604,-4.1604,-4.1604,-4.1805,-4.2157,-4.2198,-4.236,-4.2696,-4.2774,-4.2755,-4.268,-4.2847,-4.2921,-4.2884,-4.2882,-4.2844,-4.2862,-4.29,-4.2882,-4.2882,-4.2882,-4.2634,-4.2115,-4.1674,-4.1076,-4.0497,-4.002,-3.9694,-3.9448,-3.9448,-3.9379,-3.9272,-3.9202,-3.8367,-3.731,-3.66,-3.5831,-3.5213,-3.5148,-3.5001,-3.5001,-3.5294,-3.5439,-3.5723,-3.7075,-3.7404,-3.7749,-3.9095,-3.9265,-3.887,-3.7919,-3.8173,-3.8412,-3.7843,-3.8308,-3.8943,-3.9337,-3.9424,-3.9424,-3.9424,-3.9424,-3.9424,-3.9424,-3.9424,-3.9424,-3.9424,-3.9424,-3.9424,-3.9424,-3.9424,-3.9424,-3.9424,-3.9424,-3.9424,-3.9424,-3.9424,-3.9424,-3.9424,-3.9424,-3.9424,-3.9424,-3.9514,-3.9574,-3.9589,-4.0247,-4.0606,-4.1641,-4.1965,-4.211,-4.2364,-4.297,-4.3689,-4.4429,0.0,0.0,0.0,0.0,0.0,0.0,-4.577,-4.5972,-4.5972,-4.4914,-4.3781,-4.2938,-4.2113,-4.1604,-4.1604,-4.1604,-4.1604,-4.1604,-4.1604,-4.1604,-4.1604,-4.1604,-4.1805,-4.2157,-4.2198,-4.2239,-4.2279,-4.2302,-4.2157,-4.177,-4.2418,-4.2634,-4.2391,-4.2552,-4.2649,-4.2631,-4.2824,-4.2882,-4.2882,-4.2882,-4.2555,-4.1924,-4.1499,-4.0861,-4.0121,-3.9746,-3.9501,-3.9325,-3.9325,-3.9325,-3.9218,-3.8645,-3.801,-3.7251,-3.6492,-3.5767,-3.5148,-3.5001,-3.4935,-3.4935,-3.5001,-3.5082,-3.5576,-3.7007,-3.7404,-3.7749,-3.9095,-3.9352,-3.9192,-3.8708,-3.8797,-3.8958,-3.8634,-3.887,-3.9104,-3.9337,-3.9424,-3.9424,-3.9424,-3.9424,-3.9424,-3.9424,-3.9424,-3.9424,-3.9424,-3.9424,-3.9424,-3.9424,-3.9424,-3.9424,-3.9424,-3.9424,-3.9424,-3.9424,-3.9424,-3.9424,-3.9424,-3.9424,-3.9424,-3.9424,-3.9978,-4.0247,-4.0262,-4.092,-4.1534,-4.2458,-4.2785,-4.2863,-4.2909,-4.3512,-4.4186,-4.4852,0.0,0.0,0.0,0.0,0.0,0.0,-4.5871,-4.5743,-4.5001,-4.4313,-4.3483,-4.2324,-4.1832,-4.1604,-4.1604,-4.1604,-4.1604,-4.1604,-4.1604,-4.1604,-4.1604,-4.1604,-4.1675,-4.1874,-4.1874,-4.1874,-4.1874,-4.1874,-4.1788,-4.1604,-4.1917,-4.2086,-4.2103,-4.2432,-4.2609,-4.2609,-4.2824,-4.2862,-4.2747,-4.2747,-4.2374,-4.1701,-4.1293,-4.0754,-4.007,-3.9642,-3.9448,-3.9272,-3.9272,-3.9272,-3.9148,-3.8181,-3.7648,-3.7191,-3.607,-3.5394,-3.5016,-3.4817,-3.475,-3.4668,-3.475,-3.52,-3.5821,-3.6975,-3.755,-3.8057,-3.9113,-3.9424,-3.9337,-3.9017,-3.9017,-3.9104,-3.8943,-3.9031,-3.9177,-3.9337,-3.9424,-3.9424,-3.9424,-3.9424,-3.9424,-3.9424,-3.9424,-3.9424,-3.9424,-3.9424,-3.9424,-3.9424,-3.9424,-3.9424,-3.9424,-3.9424,-3.9424,-3.9424,-3.9424,-3.9424,-3.9424,-3.9424,-3.9589,-3.9948,-4.0247,-4.0591,-4.095,-4.1609,-4.2073,-4.3273,-4.3545,-4.3663,-4.3864,0.0,0.0,0.0,0.0,0.0,0.0,0.0,0.0,0.0,-4.5972,-4.5565,-4.415,-4.3904,-4.336,-4.1815,-4.1604,-4.1604,-4.1604,-4.1604,-4.1604,-4.1604,-4.1604,-4.1604,-4.1604,-4.1604,-4.1604,-4.1604,-4.1604,-4.1604,-4.1604,-4.1604,-4.1604,-4.1604,-4.1604,-4.1692,-4.1849,-4.231,-4.253,-4.253,-4.2747,-4.2747,-4.2609,-4.257,-4.2145,-4.1498,-4.1146,-4.0628,-4.0037,-3.959,-3.9379,-3.9272,-3.9272,-3.9202,-3.8914,-3.778,-3.731,-3.6951,-3.5559,-3.5001,-3.4868,-3.4683,-3.4481,-3.4443,-3.4806,-3.5439,-3.6247,-3.6971,-3.7649,-3.8302,-3.9101,-3.9337,-3.9337,-3.9104,-3.9104,-3.9104,-3.9104,-3.9104,-3.9177,-3.9337,-3.9424,-3.9424,-3.9424,-3.9424,-3.9424,-3.9424,-3.9424,-3.9424,-3.9424,-3.9424,-3.9424,-3.9424,-3.9424,-3.9424,-3.9424,-3.9424,-3.9424,-3.9424,-3.9424,-3.9424,-3.9424,-3.9574,-3.9903,-4.0397,-4.0711,-4.1115,-4.1624,-4.2282,-4.2581,-4.3889,-4.4282,-4.4558,-4.5123,-4.4906,0.0,-4.4558,-4.5069,0.0,-4.5581,-4.577,-4.5972,-4.5972,-4.6073,-4.5663,-4.415,-4.3904,-4.336,-4.1815,-4.1604,-4.1604,-4.1604,-4.1604,-4.1604,-4.1604,-4.1604,-4.1604,-4.1604,-4.1604,-4.1604,-4.1604,-4.1604,-4.1604,-4.1604,-4.1604,-4.1604,-4.1604,-4.1604,-4.1604,-4.1648,-4.2121,-4.2328,-4.2328,-4.253,-4.2609,-4.2609,-4.2409,-4.1977,-4.1391,-4.099,-4.0434,-3.9901,-3.9484,-3.9325,-3.9272,-3.9272,-3.8898,-3.8294,-3.7605,-3.7011,-3.6305,-3.5249,-3.4935,-3.4868,-3.4549,-3.4414,-3.453,-3.5194,-3.5904,-3.6626,-3.6895,-3.7508,-3.8288,-3.8941,-3.9265,-3.9337,-3.9104,-3.9104,-3.9104,-3.9104,-3.9104,-3.9177,-3.9337,-3.9424,-3.9424,-3.9424,-3.9424,-3.9424,-3.9424,-3.9424,-3.9424,-3.9424,-3.9424,-3.9424,-3.9424,-3.9424,-3.9424,-3.9424,-3.9424,-3.9424,-3.9424,-3.9424,-3.9424,-3.9424,-4.0023,-4.0352,-4.0397,-4.1624,-4.2237,-4.2312,-4.2955,-4.3269,-4.4635,-4.4998,-4.514,-4.5371,-4.5247,0.0,0.0,-4.5406,-4.5615,-4.5736,-4.5871,-4.6023,-4.6122,-4.6172,-4.5712,-4.415,-4.3904,-4.336,-4.1815,-4.1604,-4.1604,-4.1604,-4.1604,-4.1604,-4.1604,-4.1604,-4.1604,-4.1604,-4.1604,-4.1604,-4.1604,-4.1604,-4.1604,-4.1604,-4.1604,-4.1604,-4.1604,-4.1604,-4.1604,-4.1604,-4.1892,-4.2061,-4.2061,-4.231,-4.231,-4.2187,-4.2103,-4.1701,-4.1117,-4.0707,-4.0286,-3.9849,-3.9484,-3.9272,-3.9272,-3.9272,-3.9148,-3.8788,-3.778,-3.7251,-3.6768,-3.5365,-3.4935,-3.4868,-3.4481,-3.469,-3.5053,-3.5369,-3.6254,-3.7285,-3.7443,-3.8115,-3.8807,-3.9205,-3.9337,-3.9352,-3.9265,-3.9265,-3.9265,-3.9265,-3.9265,-3.9337,-3.9424,-3.9424,-3.9424,-3.9424,-3.9424,-3.9424,-3.9424,-3.9424,-3.9424,-3.9424,-3.9424,-3.9424,-3.9424,-3.9424,-3.9424,-3.9424,-3.9424,-3.9424,-3.9424,-3.9813,-4.0023,-4.0023,-4.0666,-4.1205,-4.1624,-4.2117,-4.2566,-4.297,-4.321,-4.3329,-4.4852,-4.514,-4.514,-4.5371,0.0,0.0,-4.5563,-4.5667,-4.5718,-4.5821,-4.5972,-4.6073,-4.6172,-4.6172,-4.5712,-4.415,-4.3904,-4.336,-4.1815,-4.1604,-4.1604,-4.1604,-4.1604,-4.1604,-4.1604,-4.1604,-4.1604,-4.1604,-4.1604,-4.1604,-4.1604,-4.1604,-4.1604,-4.1604,-4.1604,-4.1604,-4.1604,-4.1604,-4.1604,-4.1604,-4.1719,-4.1849,-4.1934,-4.2103,-4.2203,-4.2245,-4.2071,-4.1789,-4.1495,-4.1067,-4.0561,-4.0029,-3.9531,-3.9272,-3.9272,-3.9272,-3.9148,-3.8843,-3.801,-3.737,-3.6829,-3.5608,-3.5052,-3.4846,-3.4714,-3.5092,-3.5598,-3.5991,-3.6877,-3.7826,-3.8191,-3.8705,-3.9104,-3.9265,-3.9337,-3.9424,-3.9424,-3.9424,-3.9424,-3.9424,-3.9424,-3.9424,-3.9424,-3.9424,-3.9481,-3.9681,-3.9553,-3.9481,-3.9681,-3.9553,-3.9424,-3.9424,-3.9424,-3.9424,-3.9424,-3.9805,-3.9998,-3.9723,-4.0106,-4.0209,-3.9738,-4.0367,-4.0711,-4.0711,-4.1354,-4.1908,-4.2357,-4.2566,-4.2895,-4.3329,-4.3329,-4.3329,-4.4446,-4.4502,-4.4614,-4.5247,0.0,0.0,-4.5649,-4.577,-4.5821,-4.5972,-4.6122,-4.6172,-4.6172,-4.6172,-4.5712,-4.415,-4.3904,-4.336,-4.1815,-4.1604,-4.1604,-4.1604,-4.1604,-4.1604,-4.1604,-4.1604,-4.1604,-4.1604,-4.1604,-4.1604,-4.1604,-4.1604,-4.1604,-4.1604,-4.1604,-4.1604,-4.1604,-4.1604,-4.1604,-4.1622,-4.1622,-4.1736,-4.1892,-4.1892,-4.2377,-4.3059,-4.2387,-4.2339,-4.2654,-4.2199,-4.1364,-4.0315,-3.964,-3.9342,-3.9288,-3.9288,-3.8898,-3.8294,-3.8278,-3.737,-3.6196,-3.5991,-3.5379,-3.4829,-3.5252,-3.5525,-3.601,-3.7214,-3.7853,-3.8374,-3.8926,-3.9104,-3.9104,-3.9104,-3.9265,-3.9424,-3.9424,-3.9424,-3.9424,-3.9424,-3.9409,-3.9409,-3.9424,-3.9409,-3.9681,-4.0409,-3.9879,-3.9681,-4.0424,-3.9879,-3.9424,-3.9424,-3.9424,-3.9424,-3.9424,-4.0787,-4.124,-4.0486,-4.1763,-4.1897,-4.0442,-4.104,-4.1384,-4.1384,-4.2043,-4.2372,-4.2372,-4.3015,-4.3329,-4.3329,-4.3329,-4.3329,-4.378,-4.4128,-4.4558,-4.4835,0.0,0.0,0.0,-4.5922,0.0,0.0,-4.6172,-4.6172,-4.6172,-4.6172,-4.5712,-4.415,-4.3904,-4.336,-4.1815,-4.1604,-4.1604,-4.1604,-4.1604,-4.1604,-4.1604,-4.1604,-4.1604,-4.1604,-4.1604,-4.1604,-4.1604,-4.1604,-4.1604,-4.1604,-4.1604,-4.1604,-4.1604,-4.1604,-4.1885,-4.2447,-4.2447,-4.2492,-4.2537,-4.2537,-4.2805,-4.3223,-4.3013,-4.2671,-4.2199,-4.1782,-4.1388,-4.1077,-4.0862,-4.0481,-4.005,-4.005,-3.9594,-3.8952,-3.8463,-3.7895,-3.7207,-3.6228,-3.5924,-3.5844,-3.5507,-3.6137,-3.7082,-3.7462,-3.8178,-3.8852,-3.9045,-3.9177,-3.9337,-3.9337,-3.9337,-3.9424,-3.9424,-3.9424,-3.9553,-4.0076,-3.9753,-3.9681,-4.0737,-4.0478,-4.0409,-4.1127,-4.1008,-4.0805,-4.0547,-4.0285,-4.0146,-4.0146,-4.0542,-4.1014,-4.1626,-4.1983,-4.2099,-4.1897,-4.2744,-4.2541,-4.119,-4.1728,-4.2073,-4.2073,-4.2716,-4.3045,-4.3045,-4.324,-4.3329,-4.3329,-4.3329,-4.3329,-4.3591,-4.4013,-4.4558,-4.4889,-4.5159,-4.5424,-4.5972,-4.6073,-4.6073,-4.6172,-4.6172,-4.6172,-4.6172,-4.6172,-4.5712,-4.415,-4.3904,-4.336,-4.1815,-4.1604,-4.1604,-4.1604,-4.1604,-4.1604,-4.1604,-4.1604,-4.1604,-4.1604,-4.1604,-4.1604,-4.1604,-4.1604,-4.1604,-4.1604,-4.1604,-4.1604,-4.1604,-4.192,-4.2324,-4.2816,-4.3096,-4.3412,-4.3711,-4.3377,-4.3406,-4.3729,-4.3735,-4.3257,-4.2579,-4.2086,-4.1856,-4.1823,-4.1524,-4.116,-4.0796,-4.0796,-4.0514,-4.0062,-3.968,-3.9153,-3.8508,-3.7809,-3.7461,-3.7237,-3.7211,-3.791,-3.8687,-3.862,-3.9335,-3.9975,-3.9722,-3.9935,-4.0076,-3.9553,-3.9424,-3.9481,-3.9753,-3.9809,-4.0076,-4.0737,-4.0547,-4.0462,-4.1327,-4.1127,-4.1127,-4.1852,-4.1722,-4.1327,-4.094,-4.0916,-4.1017,-4.133,-4.1922,-4.252,-4.3015,-4.351,-4.371,-4.337,-4.4297,-4.4153,-4.2667,-4.2677,-4.2746,-4.2746,-4.3135,-4.3329,-4.3329,-4.3329,-4.3329,-4.3329,-4.3329,-4.3329,-4.369,-4.3989,-4.4614,-4.5194,-4.5159,-4.5178,-4.6005,-4.6172,-4.6172,-4.6172,-4.6172,-4.6172,-4.6172,-4.6172,-4.5712,-4.415,-4.3904,-4.336,-4.1815,-4.1604,-4.1604,-4.156,-4.156,-4.1604,-4.156,-4.156,-4.1604,-4.1604,-4.1604,-4.1604,-4.1604,-4.1604,-4.1604,-4.1604,-4.1604,-4.1639,-4.171,-4.2447,-4.2886,-4.3026,-4.3693,-4.4431,-4.5168,-4.4313,-4.4126,-4.4371,-4.427,-4.4023,-4.3578,-4.2899,-4.2618,-4.2551,-4.1872,-4.1574,-4.1508,-4.1508,-4.1475,-4.1409,-4.1409,-4.0684,-3.9872,-4.0084,-3.9502,-3.8877,-3.9745,-4.0175,-4.0363,-4.0293,-4.0857,-4.1327,-4.0737,-4.106,-4.1194,-3.9879,-3.9625,-3.9753,-4.0478,-4.0615,-4.0805,-4.1459,-4.1525,-4.1525,-4.1656,-4.1656,-4.1852,-4.2585,-4.2109,-4.1686,-4.1686,-4.1831,-4.2131,-4.2766,-4.3468,-4.3881,-4.3965,-4.5166,-4.5584,-4.496,-4.6111,-4.6166,-4.4662,-4.3849,-4.3409,-4.3329,-4.3329,-4.3329,-4.3329,-4.3329,-4.3329,-4.3329,-4.3329,-4.3329,-4.3797,-4.4036,0.0,-4.478,-4.5319,-4.5803,-4.6023,-4.6122,-4.6172,-4.6172,-4.6172,-4.6172,-4.6172,-4.6172,-4.5712,-4.415,-4.3904,-4.336,-4.1815,-4.1604,-4.1498,-4.1163,-4.1408,-4.1471,-4.1163,-4.1408,-4.1604,-4.1604,-4.1604,-4.1604,-4.1604,-4.1604,-4.1604,-4.1604,-4.1604,-4.1903,-4.2552,-4.2728,-4.3412,-4.4606,-4.4764,-4.5238,-4.5909,-4.4809,-4.4303,-4.4282,-4.3898,-4.3671,-4.3611,-4.3446,-4.338,-4.338,-4.3214,-4.2783,-4.2286,-4.2286,-4.1922,-4.1409,-4.1409,-4.1124,-4.0658,-4.034,-4.0208,-4.0181,-4.0016,-4.0504,-4.1025,-4.0982,-4.1229,-4.1459,-4.1327,-4.1393,-4.1393,-4.1127,-4.106,-4.106,-4.126,-4.126,-4.1525,-4.2253,-4.1917,-4.1852,-4.2974,-4.271,-4.2585,-4.3295,-4.326,-4.3235,-4.3235,-4.3716,-4.4166,-4.4299,-4.4895,-4.5516,-4.6159,-4.6466,-4.6516,-4.6378,-4.6662,-4.6394,-4.5478,-4.4662,-4.3927,-4.3329,-4.3329,-4.3329,-4.3329,-4.3329,-4.3329,-4.3329,-4.3329,-4.3329,-4.3767,0.0,0.0,-4.4691,0.0,-4.5922,-4.6073,-4.6122,-4.6172,-4.6172,-4.6172,-4.6172,-4.6172,-4.6172,-4.5712,-4.415,-4.3904,-4.336,-4.1815,-4.1604,-4.1453,-4.1071,-4.118,-4.1163,-4.0754,-4.1007,-4.1209,-4.1209,-4.1408,-4.1515,-4.1515,-4.156,-4.1604,-4.1604,-4.1604,-4.199,-4.2798,-4.3149,-4.3921,-4.5098,-4.5466,-4.5737,-4.5887,-4.5044,-4.4514,-4.4293,-4.3789,-4.3628,-4.3628,-4.3628,-4.3628,-4.3628,-4.3628,-4.3396,-4.3048,-4.3048,-4.28,-4.2469,-4.2469,-4.2235,-4.1999,-4.189,-4.1817,-4.1862,-4.1737,-4.1995,-4.2285,-4.1949,-4.2173,-4.2443,-4.2126,-4.2253,-4.2506,-4.2506,-4.1981,-4.1591,-4.1917,-4.2061,-4.2253,-4.2912,-4.2772,-4.2772,-4.3492,-4.3295,-4.335,-4.4015,-4.3869,-4.3912,-4.4589,-4.5066,-4.5439,-4.5799,-4.6422,-4.698,-4.7421,-4.7408,-4.7404,-4.7404,-4.7404,-4.6844,-4.5769,-4.5608,-4.5079,-4.3927,-4.3849,-4.3708,-4.3329,-4.3329,-4.3329,-4.3329,-4.3329,-4.3329,-4.3961,0.0,-4.3748,-4.4618,-4.5249,0.0,-4.6073,-4.6172,-4.6172,-4.6172,-4.6172,-4.6172,-4.6172,-4.6172,-4.5698,-4.423,-4.388,-4.3302,-4.1793,-4.1478,-4.1209,-4.0772,-4.0772,-4.0659,-4.0186,-4.0546,-4.0754,-4.0754,-4.1163,-4.138,-4.138,-4.1515,-4.156,-4.1604,-4.1745,-4.2201,-4.2991,-4.3728,-4.4518,-4.5308,-4.5923,-4.6023,-4.558,-4.5125,-4.4708,-4.4293,-4.3789,-4.3628,-4.3628,-4.3628,-4.3628,-4.3628,-4.3628,-4.3628,-4.3628,-4.3628,-4.3628,-4.3628,-4.3628,-4.3432,-4.3235,-4.3492,-4.3432,-4.3235,-4.3509,-4.3628,-4.3492,-4.2912,-4.3174,-4.3492,-4.2912,-4.3174,-4.3628,-4.3628,-4.271,-4.2045,-4.2648,-4.2772,-4.2912,-4.3492,-4.3628,-4.3628,-4.3628,-4.3727,-4.4009,-4.4605,-4.4453,-4.464,-4.5835,-4.6126,-4.6438,-4.7009,-4.7636,-4.8001,-4.8001,-4.8001,-4.8001,-4.8001,-4.8001,-4.7354,-4.5985,-4.6464,-4.6095,-4.451,-4.451,-4.4066,-4.3329,-4.3329,-4.3329,-4.3329,-4.3329,-4.3329,0.0,0.0,-4.3689,0.0,-4.4855,-4.5196,0.0,-4.6122,-4.6172,-4.6172,-4.6172,-4.6172,-4.6172,-4.6172,-4.5775,-4.4538,-4.3776,-4.2933,-4.1709,-4.0974,-4.0351,-3.968,-3.9902,-3.9885,-3.9176,-4.0002,-4.0594,-4.0449,-4.1024,-4.138,-4.138,-4.1426,-4.1471,-4.1604,-4.2289,-4.3009,-4.3746,-4.4536,-4.5326,-4.6081,-4.6168,-4.6023,-4.558,-4.5125,-4.4708,-4.4293,-4.3789,-4.3628,-4.3628,-4.3628,-4.3628,-4.3628,-4.3628,-4.3628,-4.3628,-4.3628,-4.3628,-4.3628,-4.3628,-4.3568,-4.3552,-4.3568,-4.3568,-4.3552,-4.3568,-4.3628,-4.3568,-4.3492,-4.3509,-4.3568,-4.3492,-4.3552,-4.3628,-4.3628,-4.3432,-4.3372,-4.3432,-4.3492,-4.3492,-4.3552,-4.3628,-4.3628,-4.3628,-4.4141,-4.4572,-4.4671,-4.5719,-4.6562,-4.6742,-4.7323,-4.7704,-4.7852,-4.7934,-4.8001,-4.8001,-4.8001,-4.8001,-4.8001,-4.8001,-4.7555,-4.6673,-4.6742,-4.6095,-4.451,-4.451,-4.4066,-4.3329,-4.3329,-4.3329,-4.3329,-4.3329,-4.3329,-4.43,-4.3956,-4.3905,0.0,-4.4635,-4.491,-4.5302,-4.5407,-4.5459,-4.5459,-4.5459,-4.5615,-4.6122,-4.6023,-4.561,-4.4893,-4.411,-4.3201,-4.2081,-4.1254,-4.0476,-3.954,-3.9542,-3.9525,-3.9193,-3.9749,-4.022,-4.0611,-4.0913,-4.1163,-4.138,-4.1471,-4.177,-4.2271,-4.2622,-4.3377,-4.4553,-4.4922,-4.5484,-4.6172,-4.6172,-4.6023,-4.558,-4.5125,-4.4708,-4.4293,-4.3789,-4.3628,-4.3628,-4.3628,-4.3628,-4.3628,-4.3628,-4.3628,-4.3628,-4.3628,-4.3628,-4.3628,-4.3628,-4.3628,-4.3628,-4.3628,-4.3628,-4.3628,-4.3628,-4.3628,-4.3628,-4.3628,-4.3628,-4.3628,-4.3628,-4.3628,-4.3628,-4.3628,-4.3628,-4.3628,-4.3628,-4.3628,-4.3628,-4.3628,-4.3628,-4.3744,-4.4158,-4.4473,-4.497,-4.5798,-4.6477,-4.704,-4.7454,-4.7802,-4.8001,-4.8001,-4.8001,-4.8001,-4.8001,-4.8001,-4.8001,-4.8001,-4.8001,-4.7421,-4.6253,-4.6604,-4.5865,-4.3849,-4.4297,-4.4066,-4.3329,-4.3329,-4.3329,-4.3329,-4.3329,-4.3329,0.0,0.0,-4.3809,-4.4164,-4.432,-4.4468,0.0,-4.491,-4.491,-4.491,-4.491,-4.5072,-4.5615,-4.558,-4.5286,-4.4954,-4.4199,-4.3318,-4.2398,-4.1494,-4.0584,-3.9644,-3.9342,-3.9242,-3.9135,-3.9523,-3.9952,-4.0351,-4.0754,-4.1053,-4.1226,-4.1646,-4.2121,-4.2798,-4.3184,-4.3939,-4.5098,-4.5176,-4.5513,-4.6073,-4.6073,-4.5905,-4.558,-4.5125,-4.4708,-4.4293,-4.3789,-4.3628,-4.3628,-4.3628,-4.3628,-4.3628,-4.3628,-4.3628,-4.3628,-4.3628,-4.3628,-4.3628,-4.3628,-4.3628,-4.3628,-4.3628,-4.3628,-4.3628,-4.3628,-4.3628,-4.3628,-4.3628,-4.3628,-4.3628,-4.3628,-4.3628,-4.3628,-4.3628,-4.3628,-4.3628,-4.3628,-4.3628,-4.3628,-4.3628,-4.3761,-4.4059,-4.4605,-4.5003,-4.5616,-4.6725,-4.7057,-4.7371,-4.7934,-4.8001,-4.8001,-4.8001,-4.8001,-4.8001,-4.8001,-4.8001,-4.8001,-4.8001,-4.8001,-4.7286,-4.5769,-4.6253,-4.552,-4.3329,-4.3927,-4.3927,-4.3329,-4.3329,-4.3329,-4.3329,-4.3329,-4.3329,0.0,-4.3727,0.0,-4.4063,-4.3845,-4.3647,-4.4674,-4.491,-4.491,-4.491,-4.491,-4.4838,-4.4546,-4.4729,-4.4801,-4.4412,-4.3693,-4.3037,-4.2575,-4.1282,-4.0293,-3.9893,-3.927,-3.875,-3.8504,-3.9401,-3.9817,-3.9295,-4.0563,-4.1209,-4.0849,-4.1905,-4.2654,-4.2798,-4.422,-4.5027,-4.5098,-4.5436,-4.5597,-4.5632,-4.5632,-4.5632,-4.558,-4.5125,-4.4708,-4.4293,-4.3789,-4.3628,-4.3628,-4.3628,-4.3628,-4.3628,-4.3628,-4.3628,-4.3628,-4.3628,-4.3628,-4.3628,-4.3628,-4.3628,-4.3628,-4.3628,-4.3628,-4.3628,-4.3628,-4.3628,-4.3628,-4.3628,-4.3628,-4.3628,-4.3628,-4.3628,-4.3628,-4.3628,-4.3628,-4.3628,-4.3628,-4.3628,-4.3628,-4.3628,-4.4175,-4.4638,-4.4671,-4.5847,-4.6808,-4.6891,-4.7504,-4.7968,-4.8001,-4.8001,-4.8001,-4.8001,-4.8001,-4.8001,-4.8001,-4.8001,-4.8001,-4.8001,-4.8001,-4.7286,-4.5769,-4.5769,-4.4962,-4.3329,-4.3329,-4.3329,-4.3329,-4.3329,-4.3329,-4.3329,-4.3329,-4.3329,0.0,0.0,0.0,-4.4168,-4.3823,-4.3608,-4.3721,-4.3722,-4.3781,-4.4047,-4.3914,-4.3722,-4.3604,-4.4088,-4.4485,-4.4356,-4.387,-4.3339,-4.3026,-4.2128,-4.1288,-4.0656,-4.0361,-4.0074,-3.9787,-4.0277,-4.0544,-4.0353,-4.1315,-4.1957,-4.2068,-4.294,-4.3682,-4.4273,-4.4817,-4.5229,-4.5453,-4.5783,-4.5684,-4.5125,-4.5477,-4.5319,-4.478,-4.4614,-4.4276,-4.3848,-4.3671,-4.3628,-4.3628,-4.3628,-4.3628,-4.3628,-4.3628,-4.3628,-4.3628,-4.3628,-4.3628,-4.3628,-4.3628,-4.3628,-4.3628,-4.3628,-4.3628,-4.3628,-4.3628,-4.3628,-4.3628,-4.3628,-4.3628,-4.3628,-4.3628,-4.3628,-4.3628,-4.3628,-4.3628,-4.3628,-4.3628,-4.3628,-4.3761,-4.4208,-4.4506,-4.4986,-4.5947,-4.6543,-4.7057,-4.7537,-4.7835,-4.8001,-4.8001,-4.8001,-4.8001,-4.8001,-4.8001,-4.8001,-4.8001,-4.8001,-4.8001,-4.8001,-4.7488,-4.6759,-4.5769,-4.5184,-4.445,-4.3329,-4.3329,-4.3329,-4.3329,-4.3329,-4.3329,-4.3329,-4.3329,-4.3329,-4.5757,0.0,0.0,0.0,-4.4026,-4.3509,-4.348,-4.3293,-4.3174,-4.3509,-4.3355,-4.3052,-4.2974,-4.3383,-4.3798,-4.3939,-4.368,-4.3429,-4.3337,-4.2593,-4.1927,-4.1568,-4.1288,-4.1057,-4.0823,-4.11,-4.1305,-4.1368,-4.2109,-4.2662,-4.2964,-4.384,-4.4659,-4.5449,-4.5484,-4.5498,-4.558,-4.5684,-4.5459,-4.491,-4.5089,-4.4835,-4.431,-4.431,-4.4023,-4.3628,-4.3628,-4.3628,-4.3628,-4.3628,-4.3628,-4.3628,-4.3628,-4.3628,-4.3628,-4.3628,-4.3628,-4.3628,-4.3628,-4.3628,-4.3628,-4.3628,-4.3628,-4.3628,-4.3628,-4.3628,-4.3628,-4.3628,-4.3628,-4.3628,-4.3628,-4.3628,-4.3628,-4.3628,-4.3628,-4.3694,-4.3926,-4.3976,-4.4125,-4.4589,-4.5086,-4.5748,-4.6725,-4.7106,-4.7438,-4.7934,-4.8001,-4.8001,-4.8001,-4.8001,-4.8001,-4.8001,-4.8001,-4.8001,-4.8001,-4.8001,-4.8001,-4.8001,-4.7253,-4.6464,-4.5697,-4.4962,-4.4143,-4.3329,-4.3329,-4.3329,-4.3329,-4.3329,-4.3329,-4.3329,-4.3329,-4.3329,0.0,0.0,0.0,-4.5138,-4.4186,-4.3427,-4.4054,-4.3608,-4.319,-4.3509,-4.3295,-4.2974,-4.2648,-4.2585,-4.271,-4.3035,-4.3096,-4.3235,-4.3568,-4.2686,-4.2167,-4.2493,-4.1922,-4.1475,-4.1442,-4.1799,-4.2055,-4.2109,-4.286,-4.3346,-4.3311,-4.4484,-4.5466,-4.6154,-4.6172,-4.6023,-4.558,-4.5125,-4.491,-4.491,-4.4502,-4.4293,-4.431,-4.431,-4.4023,-4.3628,-4.3628,-4.3628,-4.3628,-4.3628,-4.3628,-4.3628,-4.3628,-4.3628,-4.3628,-4.3628,-4.3628,-4.3628,-4.3628,-4.3628,-4.3628,-4.3628,-4.3628,-4.3628,-4.3628,-4.3628,-4.3628,-4.3628,-4.3628,-4.3628,-4.3628,-4.3628,-4.3628,-4.3628,-4.3645,-4.3843,-4.4539,-4.4721,-4.4754,-4.4754,-4.5914,-4.6908,-4.6924,-4.7537,-4.8001,-4.8001,-4.8001,-4.8001,-4.8001,-4.8001,-4.8001,-4.8001,-4.8001,-4.8001,-4.8001,-4.8001,-4.8001,-4.8001,-4.7186,-4.6464,-4.5697,-4.4887,-4.4066,-4.3329,-4.3329,-4.3329,-4.3329,-4.3329,-4.3329,-4.3329,-4.3329,-4.3329,-4.5807,0.0,0.0,0.0,0.0,0.0,-4.3603,-4.3347,-4.3169,-4.3211,-4.2974,-4.2772,-4.2912,-4.2974,-4.2974,-4.3096,-4.2912,-4.2912,-4.3492,-4.3131,-4.2922,-4.3254,-4.3148,-4.28,-4.227,-4.2585,-4.2555,-4.2072,-4.334,-4.4075,-4.4125,-4.5222,-4.601,-4.6172,-4.6172,-4.6023,-4.558,-4.5477,-4.5089,-4.4446,-4.435,-4.4121,-4.3789,-4.3789,-4.373,-4.3628,-4.3628,-4.3628,-4.3628,-4.3628,-4.3628,-4.3628,-4.3628,-4.3628,-4.3628,-4.3628,-4.3628,-4.3628,-4.3628,-4.3628,-4.3628,-4.3628,-4.3628,-4.3628,-4.3628,-4.3628,-4.3628,-4.3628,-4.3628,-4.3628,-4.3628,-4.3628,-4.3628,-4.3628,-4.4026,-4.444,-4.4655,-4.5533,-4.6278,-4.6278,-4.6609,-4.7073,-4.7603,-4.7868,-4.8001,-4.8001,-4.8001,-4.8001,-4.8001,-4.8001,-4.8001,-4.8001,-4.8001,-4.8001,-4.8001,-4.8001,-4.8001,-4.8001,-4.6759,-4.5913,-4.5697,-4.4373,-4.3551,-4.3329,-4.3329,-4.3329,-4.3329,-4.3329,-4.3329,-4.3329,-4.3329,-4.3329,-4.5807,-4.5807,-4.5713,-4.5286,0.0,0.0,-4.3936,-4.3587,-4.3364,-4.3321,-4.3035,-4.2851,-4.2912,-4.2789,-4.2726,-4.2851,-4.2601,-4.2664,-4.3492,-4.3295,-4.3235,-4.3568,-4.3628,-4.3446,-4.3015,-4.3198,-4.3227,-4.2959,-4.3807,-4.449,-4.4854,-4.5711,-4.6172,-4.6172,-4.6172,-4.6073,-4.5854,-4.5477,-4.5035,-4.4558,-4.4179,-4.3848,-4.3628,-4.3628,-4.3628,-4.3628,-4.3628,-4.3628,-4.3628,-4.3628,-4.3628,-4.3628,-4.3628,-4.3628,-4.3628,-4.3628,-4.3628,-4.3628,-4.3628,-4.3628,-4.3628,-4.3628,-4.3628,-4.3628,-4.3628,-4.3628,-4.3628,-4.3628,-4.3628,-4.3628,-4.3628,-4.3628,-4.3694,-4.3992,-4.439,-4.4854,-4.5467,-4.6278,-4.6891,-4.6891,-4.7156,-4.7504,-4.7934,-4.8001,-4.8001,-4.8001,-4.8001,-4.8001,-4.8001,-4.8001,-4.8001,-4.8001,-4.8001,-4.7853,-4.7555,-4.7488,-4.7354,-4.7066,-4.6111,-4.5606,-4.5606,-4.4689,-4.4152,-4.4152,-4.4152,-4.4018,-4.3748,-4.3464,-4.3329,-4.3329,-4.3329,-4.3329,-4.5807,-4.5807,-4.5807,-4.5807,-4.5317,0.0,-4.4712,-4.4268,-4.3783,-4.3608,-4.3305,-4.301,-4.2664,-4.2349,-4.2222,-4.2522,-4.2349,-4.2555,-4.3492,-4.3295,-4.3235,-4.3568,-4.3628,-4.3628,-4.3628,-4.3628,-4.3789,-4.4196,-4.4253,-4.4686,-4.5477,-4.5905,-4.6122,-4.6122,-4.6172,-4.6172,-4.6172,-4.5354,-4.491,-4.491,-4.4006,-4.3628,-4.3628,-4.3628,-4.3628,-4.3628,-4.3628,-4.3628,-4.3628,-4.3628,-4.3628,-4.3628,-4.3628,-4.3628,-4.3628,-4.3628,-4.3628,-4.3628,-4.3628,-4.3628,-4.3628,-4.3628,-4.3628,-4.3628,-4.3628,-4.3628,-4.3628,-4.3628,-4.3628,-4.3628,-4.3628,-4.3678,-4.391,-4.4522,-4.4821,-4.5284,-4.6609,-4.6957,-4.7023,-4.7023,-4.7554,-4.8001,-4.8001,-4.8001,-4.8001,-4.8001,-4.8001,-4.8001,-4.8001,-4.8001,-4.8001,-4.8001,-4.8001,-4.7737,-4.7079,-4.6941,-4.6695,-4.6063,-4.5754,-4.5634,-4.5634,-4.545,-4.5289,-4.5289,-4.5289,-4.5005,-4.4421,-4.3688,-4.3329,-4.3329,-4.3329,-4.3329,-4.5807,-4.5807,-4.5807,-4.5807,-4.5697,0.0,-4.4811,-4.4611,-4.4288,-4.3427,-4.325,-4.3073,-4.2699,-4.2522,-4.2522,-4.2585,-4.2789,-4.3052,-4.3552,-4.3295,-4.3235,-4.3568,-4.3628,-4.3628,-4.3628,-4.3628,-4.3628,-4.3747,-4.408,-4.4502,-4.5018,-4.5477,-4.5701,-4.5701,-4.6023,-4.6172,-4.6172,-4.5354,-4.491,-4.491,-4.4006,-4.3628,-4.3628,-4.3628,-4.3628,-4.3628,-4.3628,-4.3628,-4.3628,-4.3628,-4.3628,-4.3628,-4.3628,-4.3628,-4.3628,-4.3628,-4.3628,-4.3628,-4.3628,-4.3628,-4.3628,-4.3628,-4.3628,-4.3628,-4.3628,-4.3628,-4.3628,-4.3628,-4.3628,-4.3628,-4.3628,-4.4042,-4.4506,-4.4655,-4.5599,-4.6543,-4.6841,-4.7371,-4.7785,-4.7785,-4.7901,-4.8001,-4.8001,-4.8001,-4.8001,-4.8001,-4.8001,-4.8001,-4.8001,-4.8001,-4.8001,-4.8001,-4.8001,-4.8167,-4.8612,-4.7981,-4.7771,-4.828,-4.7027,-4.6326,-4.6326,-4.5692,-4.5289,-4.5289,-4.5289,-4.5229,-4.5095,-4.3913,-4.3329,-4.3329,-4.3329,-4.3329,-4.5807,-4.5807,-4.5807,-4.5807,-4.5807,0.0,0.0,-4.4929,-4.4766,-4.4118,-4.3925,-4.37,-4.3041,-4.2896,-4.2768,-4.2413,-4.2664,-4.2974,-4.3295,-4.3372,-4.3432,-4.3568,-4.3628,-4.3628,-4.3628,-4.3628,-4.3628,-4.3628,-4.4006,-4.4406,-4.4597,-4.5035,-4.5354,-4.558,-4.5803,-4.5905,-4.5905,-4.5249,-4.4801,-4.4597,-4.3889,-4.3628,-4.3628,-4.3628,-4.3628,-4.3628,-4.3628,-4.3628,-4.3628,-4.3628,-4.3628,-4.3628,-4.3628,-4.3628,-4.3628,-4.3628,-4.3628,-4.3628,-4.3628,-4.3628,-4.3628,-4.3628,-4.3628,-4.3628,-4.3628,-4.3628,-4.3628,-4.3628,-4.3628,-4.3711,-4.4059,-4.4423,-4.487,-4.5616,-4.6361,-4.699,-4.7371,-4.7736,-4.8001,-4.8001,-4.8001,-4.8001,-4.8001,-4.8001,-4.8001,-4.8001,-4.8001,-4.8001,-4.8001,-4.8001,-4.7985,-4.7912,-4.7877,-4.7863,-4.7773,-4.7379,-4.7145,-4.7107,-4.6624,-4.6431,-4.6431,-4.6364,-4.6307,-4.6307,-4.5978,-4.5813,-4.5813,-4.4811,-4.4317,-4.4317,-4.4317,-4.4317,-4.5807,-4.5807,-4.5807,-4.5807,-4.5807,-4.5722,0.0,0.0,0.0,-4.4777,-4.4699,-4.4423,-4.3483,-4.3272,-4.3083,-4.2315,-4.2494,-4.2747,-4.3007,-4.3295,-4.3509,-4.3568,-4.3628,-4.3628,-4.3628,-4.3628,-4.3628,-4.3628,-4.3964,-4.4196,-4.4196,-4.4541,-4.4981,-4.5319,-4.5407,-4.5477,-4.5477,-4.5018,-4.4597,-4.4293,-4.3789,-4.3628,-4.3628,-4.3628,-4.3628,-4.3628,-4.3628,-4.3628,-4.3628,-4.3628,-4.3628,-4.3628,-4.3628,-4.3628,-4.3628,-4.3628,-4.3628,-4.3628,-4.3628,-4.3628,-4.3628,-4.3628,-4.3628,-4.3628,-4.3628,-4.3628,-4.3628,-4.3628,-4.3727,-4.3959,-4.4539,-4.4903,-4.5417,-4.6609,-4.7007,-4.7272,-4.7868,-4.8001,-4.8001,-4.8001,-4.8001,-4.8001,-4.8001,-4.8001,-4.8001,-4.8001,-4.8001,-4.8001,-4.8001,-4.8133,-4.8149,-4.7815,-4.7923,-4.77,-4.6966,-4.6806,-4.6483,-4.5981,-4.6286,-4.6516,-4.6516,-4.7025,-4.7309,-4.7309,-4.6785,-4.6516,-4.6516,-4.5948,-4.5544,-4.5289,-4.5289,-4.5289,-4.5807,-4.5807,-4.5807,-4.5807,-4.5807,-4.5792,-4.5713,0.0,-4.5547,-4.4819,0.0,-4.4455,-4.3791,0.0,0.0,-4.2746,-4.2887,-4.3057,-4.2682,-4.2974,-4.3235,-4.3552,-4.3628,-4.3628,-4.3628,-4.3628,-4.3628,-4.3628,-4.3628,-4.3671,-4.3671,-4.4121,-4.4406,-4.4463,-4.4818,-4.4964,-4.4964,-4.4558,-4.435,-4.4293,-4.3789,-4.3628,-4.3628,-4.3628,-4.3628,-4.3628,-4.3628,-4.3628,-4.3628,-4.3628,-4.3628,-4.3628,-4.3628,-4.3628,-4.3628,-4.3628,-4.3628,-4.3628,-4.3628,-4.3628,-4.3628,-4.3628,-4.3628,-4.3628,-4.3628,-4.3628,-4.3628,-4.3628,-4.4075,-4.4572,-4.4671,-4.5665,-4.6692,-4.6858,-4.7404,-4.7901,-4.7984,-4.8001,-4.8001,-4.8001,-4.8001,-4.8001,-4.8001,-4.8001,-4.8001,-4.8001,-4.8001,-4.8001,-4.8001,-4.858,-4.8709,-4.7864,-4.8375,-4.8657,-4.8434,-4.7836,-4.7645,-4.8214,-4.7543,-4.7189,-4.7189,-4.7264,-4.7309,-4.7309,-4.7234,-4.7189,-4.7189,-4.7115,-4.6456,-4.5289,-4.5289,-4.5289,-4.5697,-4.592,-4.6048,-4.588,-4.5936,-4.6048,-4.588,-4.5807,-4.5728,-4.5412,0.0,0.0,0.0,0.0,0.0,0.0,-4.4005,-4.4026,-4.3583,-4.3797,-4.3894,-4.3602,-4.3628,-4.3628,-4.3628,-4.3628,-4.3628,-4.3628,-4.3628,-4.3628,-4.3628,-4.3789,-4.4023,-4.4293,-4.4446,-4.4558,-4.4558,-4.4406,-4.4179,-4.3906,-4.3671,-4.3628,-4.3628,-4.3628,-4.3628,-4.3628,-4.3628,-4.3628,-4.3628,-4.3628,-4.3628,-4.3628,-4.3628,-4.3628,-4.3628,-4.3628,-4.3628,-4.3628,-4.3628,-4.3628,-4.3628,-4.3628,-4.3628,-4.3628,-4.3628,-4.3628,-4.3711,-4.4125,-4.4456,-4.4887,-4.5748,-4.6427,-4.7007,-4.7438,-4.7769,-4.8001,-4.8001,-4.8001,-4.8001,-4.8001,-4.8001,-4.8001,-4.8001,-4.8001,-4.8001,-4.8001,-4.8001,-4.815,-4.858,-4.8912,-4.9052,-4.9046,-4.893,-4.8774,-4.8618,-4.7828,-4.7492,-4.7849,-4.7452,-4.7309,-4.7309,-4.7309,-4.7309,-4.7309,-4.7309,-4.7309,-4.7309,-4.7309,-4.701,-4.6456,-4.6456,-4.6456,-4.5508,-4.5961,-4.623,-4.5864,-4.5992,-4.612,-4.588,-4.5807,-4.5807,-4.5936,-4.5864,0.0,0.0,0.0,-4.5101,-4.5077,0.0,-4.4951,-4.454,-4.4677,-4.4533,-4.3668,-4.3628,-4.3628,-4.3628,-4.3628,-4.3628,-4.3628,-4.3628,-4.3628,-4.3628,-4.3628,-4.373,-4.408,-4.4138,-4.4138,-4.4138,-4.4138,-4.3964,-4.3628,-4.3628,-4.3628,-4.3628,-4.3628,-4.3628,-4.3628,-4.3628,-4.3628,-4.3628,-4.3628,-4.3628,-4.3628,-4.3628,-4.3628,-4.3628,-4.3628,-4.3628,-4.3628,-4.3628,-4.3628,-4.3628,-4.3628,-4.3628,-4.3628,-4.3628,-4.3761,-4.4026,-4.4539,-4.4986,-4.5533,-4.6609,-4.7057,-4.7338,-4.7868,-4.8001,-4.8001,-4.8001,-4.8001,-4.8001,-4.8001,-4.8001,-4.8001,-4.8001,-4.8001,-4.8001,-4.8001,-4.8166,-4.8431,-4.8726,-4.9085,-4.9344,-4.9325,-4.8952,-4.8555,-4.8293,-4.7709,-4.7309,-4.7309,-4.7309,-4.7309,-4.7309,-4.7309,-4.7309,-4.7309,-4.7309,-4.7309,-4.7309,-4.7309,-4.7309,-4.7309,-4.7309,-4.7309,-4.5293,-4.5719,-4.623,-4.5864,-4.5807,-4.5807,-4.5807,-4.5807,-4.5864,-4.623,-4.6064,-4.5992,-4.6722,-4.655,-4.6169,-4.5821,-4.5775,0.0,0.0,-4.5259,-4.4861,-4.3734,-4.3628,-4.3628,-4.3628,-4.3628,-4.3628,-4.3628,-4.3628,-4.3628,-4.3628,-4.3628,-4.3628,-4.3628,-4.3628,-4.3628,-4.3628,-4.3628,-4.3611,-4.3628,-4.3628,-4.3628,-4.3628,-4.3628,-4.3628,-4.3628,-4.3628,-4.3628,-4.3628,-4.3628,-4.3628,-4.3628,-4.3628,-4.3628,-4.3628,-4.3628,-4.3628,-4.3628,-4.3628,-4.3628,-4.3628,-4.3628,-4.3628,-4.3628,-4.3628,-4.4108,-4.4655,-4.4671,-4.5715,-4.6841,-4.6891,-4.7438,-4.7968,-4.8001,-4.8001,-4.8001,-4.8001,-4.8001,-4.8001,-4.8001,-4.8001,-4.8001,-4.8001,-4.8001,-4.8001,-4.8001,-4.8614,-4.8775,-4.795,-4.9111,-4.9373,-4.7735,-4.8158,-4.8225,-4.7381,-4.7309,-4.7309,-4.7309,-4.7309,-4.7309,-4.7309,-4.7309,-4.7309,-4.7309,-4.7309,-4.7309,-4.7309,-4.7309,-4.7309,-4.7309,-4.7309,-4.7309,-4.5346,-4.5969,-4.6245,-4.6119,-4.6333,-4.642,-4.588,-4.5992,-4.6175,-4.6301,-4.6388,-4.6684,-4.715,-4.6945,-4.6795,-4.7193,-4.706,-4.6732,0.0,-4.5906,-4.5491,-4.5119,-4.4208,-4.3628,-4.3628,-4.3628,-4.3628,-4.3628,-4.3628,-4.3628,-4.3628,-4.3628,-4.3628,-4.3628,-4.3628,-4.3628,-4.3628,-4.3628,-4.3628,-4.3628,-4.3628,-4.3628,-4.3628,-4.3628,-4.3628,-4.3628,-4.3628,-4.3628,-4.3628,-4.3628,-4.3628,-4.3628,-4.3628,-4.3628,-4.3628,-4.3628,-4.3628,-4.3628,-4.3628,-4.3628,-4.3628,-4.3628,-4.3628,-4.3711,-4.4191,-4.4489,-4.4887,-4.5864,-4.651,-4.7007,-4.7504,-4.7819,-4.8001,-4.8001,-4.8001,-4.8001,-4.8001,-4.8001,-4.8001,-4.8001,-4.8001,-4.8001,-4.8001,-4.8415,-4.873,-4.873,-4.8945,-4.9154,-4.9264,-4.9653,-4.9748,-4.9111,-4.8748,-4.849,-4.8172,-4.7624,-4.7309,-4.7309,-4.7309,-4.7309,-4.7309,-4.7309,-4.7309,-4.7309,-4.7309,-4.7309,-4.7309,-4.7309,-4.7309,-4.7309,-4.7309,-4.7309,-4.5017,-4.575,-4.629,-4.6152,-4.6544,-4.6754,-4.6278,-4.6333,-4.6582,-4.6636,-4.6791,-4.703,-4.7504,-4.7354,-4.7302,-4.7935,-4.777,-4.7539,0.0,-4.6659,-4.6179,-4.6179,-4.4887,-4.3992,-4.3992,-4.3761,-4.3628,-4.3628,-4.3628,-4.3628,-4.3628,-4.3628,-4.3628,-4.3628,-4.3628,-4.3628,-4.3628,-4.3628,-4.3628,-4.3628,-4.3628,-4.3628,-4.3628,-4.3628,-4.3628,-4.3628,-4.3628,-4.3628,-4.3628,-4.3628,-4.3509,-4.3432,-4.3568,-4.3509,-4.3432,-4.3568,-4.3628,-4.3628,-4.3628,-4.3628,-4.3661,-4.3926,-4.3992,-4.4141,-4.4854,-4.5268,-4.5732,-4.6941,-4.7289,-4.7454,-4.8199,-4.8199,-4.8001,-4.8001,-4.8001,-4.8001,-4.8001,-4.8001,-4.8001,-4.8001,-4.8001,-4.8084,-4.8349,-4.8796,-4.911,-4.911,-4.9541,-4.9826,-4.9592,-4.978,-4.9642,-4.8973,-4.849,-4.8172,-4.8172,-4.7624,-4.7309,-4.7309,-4.7309,-4.7309,-4.7309,-4.7309,-4.7309,-4.7309,-4.7309,-4.7309,-4.7309,-4.7309,-4.7467,-4.7779,-4.7779,-4.7934]},{"header":{"parameterUnit":"m.s-1","parameterCategory":1,"la1":30.6,"la2":29.2853,"lo1":-89.7004,"lo2":-87.6739,"dy":0.0162,"dx":0.0183,"nx":112,"ny":82,"refTime":"2024-03-12T06:00:00:Z","depth":0,"parameterNumber":3,"parameterNumberName":"V-component_of_WINDS"},"data":[0.0,0.0,0.0,0.0,0.0,0.0,0.0,0.0,0.0,0.0,0.0,0.0,0.0,0.0,0.0,0.0,0.0,0.0,0.0,0.0,0.0,0.0,0.0,0.0,0.0,0.0,0.0,0.0,0.0,0.0,0.0,0.0,0.0,0.0,0.0,0.0,0.0,0.0,0.0,0.0,0.0,0.0,0.0,0.0,0.0,0.0,0.0,0.0,0.0,0.0,0.0,0.0,0.0,0.0,0.0,0.0,0.0,0.0,0.0,0.0,0.0,0.0,0.0,0.0,0.0,0.0,0.0,0.0,0.0,0.0,0.0,0.0,0.0,0.0,0.0,0.0,0.0,0.0,0.0,0.0,0.0,0.0,0.0,0.0,0.0,0.0,0.0,0.0,0.0,0.0,-3.7607,-3.905,-3.8724,-3.8514,-3.8736,-3.8736,-3.8945,-3.927,0.0,0.0,0.0,0.0,0.0,0.0,0.0,0.0,0.0,0.0,0.0,0.0,0.0,0.0,0.0,0.0,0.0,0.0,0.0,0.0,0.0,0.0,0.0,0.0,0.0,0.0,0.0,0.0,0.0,0.0,0.0,0.0,0.0,0.0,0.0,0.0,0.0,0.0,0.0,0.0,0.0,0.0,0.0,0.0,0.0,0.0,0.0,0.0,0.0,0.0,0.0,0.0,0.0,0.0,0.0,0.0,0.0,0.0,0.0,0.0,0.0,0.0,0.0,0.0,0.0,0.0,0.0,0.0,0.0,0.0,0.0,0.0,0.0,0.0,0.0,0.0,0.0,0.0,0.0,0.0,0.0,0.0,0.0,0.0,0.0,0.0,0.0,0.0,0.0,0.0,0.0,0.0,0.0,0.0,0.0,0.0,0.0,0.0,0.0,0.0,0.0,0.0,0.0,0.0,-3.8828,-3.8514,-3.7619,-3.7406,-3.8409,-3.8409,-3.8736,-3.9258,0.0,0.0,0.0,0.0,0.0,0.0,0.0,0.0,0.0,0.0,0.0,0.0,0.0,0.0,0.0,0.0,0.0,0.0,0.0,0.0,0.0,0.0,0.0,0.0,0.0,0.0,0.0,0.0,0.0,0.0,0.0,0.0,0.0,0.0,0.0,0.0,0.0,0.0,0.0,0.0,0.0,0.0,0.0,0.0,0.0,0.0,0.0,0.0,0.0,0.0,0.0,0.0,0.0,0.0,0.0,0.0,0.0,0.0,0.0,0.0,0.0,0.0,0.0,0.0,0.0,0.0,0.0,0.0,0.0,0.0,0.0,0.0,0.0,0.0,0.0,0.0,0.0,0.0,0.0,0.0,0.0,0.0,0.0,0.0,0.0,0.0,0.0,0.0,0.0,0.0,0.0,0.0,0.0,0.0,0.0,0.0,0.0,0.0,0.0,0.0,0.0,0.0,0.0,-3.8933,-3.8619,-3.756,-3.7429,-3.7631,-3.8092,-3.8198,-3.8409,-3.8945,-3.8921,0.0,0.0,0.0,0.0,0.0,0.0,0.0,0.0,0.0,0.0,0.0,0.0,0.0,0.0,0.0,0.0,0.0,0.0,0.0,0.0,0.0,0.0,0.0,0.0,0.0,0.0,0.0,0.0,0.0,0.0,0.0,0.0,0.0,0.0,0.0,0.0,0.0,0.0,0.0,0.0,0.0,0.0,0.0,0.0,0.0,0.0,0.0,0.0,0.0,0.0,0.0,0.0,0.0,0.0,0.0,0.0,0.0,0.0,0.0,0.0,0.0,0.0,0.0,0.0,0.0,0.0,0.0,0.0,0.0,0.0,0.0,0.0,0.0,0.0,0.0,0.0,0.0,0.0,0.0,0.0,0.0,0.0,0.0,0.0,0.0,0.0,0.0,0.0,0.0,0.0,0.0,0.0,0.0,0.0,0.0,0.0,0.0,0.0,0.0,0.0,0.0,0.0,-3.8068,-3.7962,-3.7131,-3.7334,-3.7655,-3.7986,-3.7986,-3.8198,-3.8736,-3.8687,0.0,0.0,0.0,0.0,0.0,0.0,0.0,0.0,0.0,0.0,0.0,0.0,0.0,0.0,0.0,0.0,0.0,0.0,0.0,0.0,0.0,0.0,0.0,0.0,0.0,0.0,0.0,0.0,0.0,0.0,0.0,0.0,0.0,0.0,0.0,0.0,0.0,0.0,0.0,0.0,0.0,0.0,0.0,0.0,0.0,0.0,0.0,0.0,0.0,0.0,0.0,0.0,0.0,0.0,0.0,0.0,0.0,0.0,0.0,0.0,0.0,0.0,0.0,0.0,0.0,0.0,0.0,0.0,0.0,0.0,0.0,0.0,0.0,0.0,0.0,0.0,0.0,0.0,0.0,0.0,0.0,0.0,0.0,0.0,0.0,0.0,0.0,0.0,0.0,0.0,0.0,0.0,0.0,0.0,0.0,0.0,0.0,0.0,0.0,0.0,0.0,0.0,-3.7512,-3.7073,-3.7868,-3.7,-3.6785,-3.7868,-3.7986,-3.8198,-3.8736,-3.8687,0.0,0.0,0.0,0.0,0.0,0.0,0.0,0.0,0.0,0.0,0.0,0.0,0.0,0.0,0.0,0.0,0.0,0.0,0.0,0.0,0.0,0.0,0.0,0.0,0.0,0.0,0.0,0.0,0.0,0.0,0.0,0.0,0.0,0.0,0.0,0.0,0.0,0.0,0.0,0.0,0.0,0.0,0.0,0.0,0.0,0.0,0.0,0.0,0.0,0.0,0.0,0.0,0.0,0.0,0.0,0.0,0.0,0.0,0.0,0.0,0.0,0.0,0.0,0.0,0.0,0.0,0.0,0.0,0.0,0.0,0.0,0.0,0.0,0.0,0.0,0.0,0.0,0.0,0.0,0.0,0.0,0.0,0.0,0.0,0.0,0.0,0.0,0.0,0.0,0.0,0.0,0.0,0.0,0.0,0.0,0.0,0.0,0.0,0.0,0.0,0.0,0.0,-3.8185,-3.7737,-3.7974,-3.7548,-3.7548,-3.7986,-3.7986,-3.8198,-3.8736,0.0,0.0,0.0,0.0,0.0,0.0,0.0,0.0,0.0,0.0,0.0,0.0,0.0,0.0,0.0,0.0,0.0,0.0,0.0,0.0,0.0,0.0,0.0,0.0,0.0,0.0,0.0,0.0,0.0,0.0,0.0,0.0,0.0,0.0,0.0,0.0,0.0,0.0,0.0,0.0,0.0,0.0,0.0,0.0,0.0,0.0,0.0,0.0,0.0,0.0,0.0,0.0,0.0,0.0,0.0,0.0,0.0,0.0,0.0,0.0,0.0,0.0,0.0,0.0,0.0,0.0,0.0,0.0,0.0,0.0,0.0,0.0,0.0,0.0,0.0,0.0,0.0,0.0,0.0,0.0,0.0,0.0,0.0,0.0,0.0,0.0,0.0,0.0,0.0,0.0,0.0,0.0,0.0,0.0,0.0,0.0,0.0,0.0,0.0,0.0,0.0,0.0,-3.8841,-3.8514,-3.8198,-3.7986,-3.7986,-3.7986,-3.7986,-3.7986,-3.8198,-3.8736,0.0,0.0,0.0,0.0,0.0,0.0,0.0,0.0,0.0,0.0,0.0,0.0,0.0,0.0,0.0,0.0,0.0,0.0,0.0,0.0,0.0,0.0,0.0,0.0,0.0,0.0,0.0,0.0,0.0,0.0,0.0,0.0,0.0,0.0,0.0,0.0,0.0,0.0,0.0,0.0,0.0,0.0,0.0,0.0,0.0,0.0,0.0,0.0,0.0,0.0,0.0,0.0,0.0,0.0,0.0,0.0,0.0,0.0,0.0,0.0,0.0,0.0,0.0,0.0,0.0,0.0,0.0,0.0,0.0,0.0,0.0,0.0,0.0,0.0,0.0,0.0,0.0,0.0,0.0,0.0,0.0,0.0,0.0,0.0,0.0,0.0,0.0,0.0,0.0,0.0,0.0,0.0,0.0,0.0,0.0,0.0,0.0,0.0,0.0,0.0,0.0,0.0,-3.8841,-3.8303,-3.7986,-3.7986,-3.7986,-3.7986,-3.7986,-3.7986,-3.8198,0.0,0.0,0.0,0.0,0.0,0.0,0.0,0.0,0.0,0.0,0.0,0.0,0.0,0.0,0.0,0.0,0.0,0.0,0.0,0.0,0.0,0.0,0.0,0.0,0.0,0.0,0.0,0.0,0.0,0.0,0.0,0.0,0.0,0.0,0.0,0.0,0.0,0.0,0.0,0.0,0.0,0.0,0.0,0.0,0.0,0.0,0.0,0.0,0.0,0.0,0.0,0.0,0.0,0.0,0.0,0.0,0.0,0.0,0.0,0.0,0.0,0.0,0.0,0.0,0.0,0.0,0.0,0.0,0.0,0.0,0.0,0.0,0.0,0.0,0.0,0.0,0.0,0.0,0.0,0.0,0.0,0.0,0.0,0.0,0.0,0.0,0.0,0.0,0.0,0.0,0.0,0.0,0.0,0.0,0.0,0.0,0.0,0.0,0.0,0.0,0.0,0.0,0.0,-3.8841,-3.8303,-3.7986,-3.7986,-3.7986,-3.7986,-3.7986,-3.7986,-3.8185,-3.8582,0.0,0.0,0.0,0.0,0.0,0.0,0.0,0.0,0.0,0.0,0.0,0.0,0.0,0.0,0.0,0.0,0.0,0.0,0.0,0.0,0.0,0.0,0.0,0.0,0.0,0.0,0.0,0.0,0.0,0.0,0.0,0.0,0.0,0.0,0.0,0.0,0.0,0.0,0.0,0.0,0.0,0.0,0.0,0.0,0.0,0.0,0.0,0.0,0.0,0.0,0.0,0.0,0.0,0.0,0.0,0.0,0.0,0.0,0.0,0.0,0.0,0.0,0.0,0.0,0.0,0.0,0.0,0.0,0.0,0.0,0.0,0.0,0.0,0.0,0.0,0.0,0.0,0.0,0.0,0.0,0.0,0.0,0.0,0.0,0.0,0.0,0.0,0.0,0.0,0.0,0.0,0.0,0.0,0.0,0.0,0.0,0.0,0.0,0.0,0.0,0.0,0.0,-3.8841,-3.8303,-3.7986,-3.7986,-3.7986,-3.7986,-3.7986,-3.7986,-3.8185,-3.8477,0.0,0.0,0.0,0.0,0.0,0.0,0.0,0.0,0.0,0.0,0.0,0.0,0.0,0.0,0.0,0.0,0.0,0.0,0.0,0.0,0.0,0.0,0.0,0.0,0.0,0.0,0.0,0.0,0.0,0.0,0.0,0.0,0.0,0.0,0.0,0.0,0.0,0.0,0.0,0.0,0.0,0.0,0.0,0.0,0.0,0.0,0.0,0.0,0.0,0.0,0.0,0.0,0.0,0.0,0.0,0.0,0.0,0.0,0.0,0.0,0.0,0.0,0.0,0.0,0.0,0.0,0.0,0.0,0.0,0.0,0.0,0.0,0.0,0.0,0.0,0.0,0.0,0.0,0.0,0.0,0.0,0.0,0.0,0.0,0.0,0.0,0.0,0.0,0.0,0.0,0.0,0.0,0.0,0.0,0.0,0.0,0.0,0.0,0.0,0.0,0.0,0.0,-3.8693,-3.8158,-3.7829,-3.7829,-3.7829,-3.7829,-3.7829,-3.7878,-3.8019,-3.8348,0.0,0.0,0.0,0.0,0.0,0.0,0.0,0.0,0.0,0.0,0.0,0.0,0.0,0.0,0.0,0.0,0.0,0.0,0.0,0.0,0.0,0.0,0.0,0.0,0.0,0.0,0.0,0.0,0.0,0.0,0.0,0.0,0.0,0.0,0.0,0.0,0.0,0.0,0.0,0.0,0.0,0.0,0.0,0.0,0.0,0.0,0.0,0.0,0.0,0.0,0.0,0.0,0.0,0.0,0.0,0.0,0.0,0.0,0.0,0.0,-2.9849,-3.0305,0.0,0.0,0.0,0.0,0.0,0.0,0.0,0.0,0.0,0.0,0.0,0.0,0.0,0.0,0.0,0.0,0.0,0.0,0.0,0.0,0.0,0.0,0.0,0.0,0.0,0.0,0.0,0.0,0.0,0.0,0.0,0.0,0.0,0.0,0.0,0.0,0.0,0.0,0.0,0.0,-3.7624,-3.7054,-3.6747,-3.6747,-3.6747,-3.6747,-3.6747,-3.712,-3.7605,-3.8014,-3.8165,0.0,0.0,0.0,0.0,0.0,0.0,0.0,0.0,0.0,0.0,0.0,0.0,0.0,0.0,0.0,0.0,0.0,0.0,0.0,0.0,0.0,0.0,0.0,0.0,0.0,0.0,0.0,0.0,0.0,0.0,0.0,0.0,0.0,0.0,0.0,0.0,0.0,0.0,0.0,0.0,0.0,0.0,0.0,0.0,0.0,0.0,0.0,0.0,0.0,0.0,0.0,0.0,0.0,0.0,0.0,0.0,0.0,0.0,0.0,-2.7653,-2.9147,0.0,0.0,0.0,0.0,0.0,0.0,0.0,0.0,0.0,0.0,0.0,0.0,0.0,0.0,0.0,0.0,0.0,0.0,0.0,0.0,0.0,0.0,0.0,0.0,0.0,0.0,0.0,0.0,0.0,0.0,0.0,0.0,0.0,0.0,0.0,0.0,0.0,0.0,0.0,0.0,-3.7267,-3.6715,-3.6411,-3.6411,-3.6411,-3.6411,-3.6411,-3.6663,-3.6934,-3.72,-3.737,0.0,0.0,0.0,0.0,0.0,0.0,0.0,0.0,0.0,0.0,0.0,0.0,0.0,0.0,0.0,0.0,0.0,0.0,0.0,0.0,0.0,0.0,0.0,0.0,0.0,0.0,0.0,0.0,0.0,0.0,0.0,0.0,0.0,0.0,0.0,0.0,0.0,0.0,0.0,0.0,0.0,0.0,0.0,0.0,0.0,0.0,0.0,0.0,0.0,0.0,0.0,0.0,0.0,-2.4233,-2.488,-2.6199,-2.6158,-2.6192,-2.6332,-2.6295,-2.8364,-3.1849,-3.1808,0.0,0.0,0.0,0.0,0.0,0.0,0.0,0.0,0.0,0.0,0.0,0.0,0.0,0.0,0.0,0.0,0.0,0.0,0.0,0.0,0.0,0.0,-3.0646,-3.1472,-3.1558,-3.1763,-3.2805,0.0,0.0,0.0,0.0,0.0,0.0,0.0,0.0,0.0,0.0,0.0,-3.6861,-3.6436,-3.6134,-3.6134,-3.6134,-3.6134,-3.6134,-3.6218,-3.6266,-3.6266,-3.6565,-3.701,0.0,0.0,0.0,0.0,0.0,0.0,0.0,0.0,0.0,0.0,0.0,0.0,0.0,0.0,0.0,0.0,0.0,0.0,0.0,0.0,0.0,0.0,0.0,0.0,0.0,0.0,0.0,0.0,0.0,0.0,0.0,0.0,-2.8228,-2.805,0.0,0.0,0.0,0.0,0.0,0.0,0.0,0.0,0.0,0.0,0.0,0.0,0.0,-2.5159,-2.5218,-2.5236,-2.4851,-2.4175,-2.4172,-2.4296,-2.4497,-2.4512,-2.4718,-2.5035,-2.508,0.0,-2.5936,-2.5918,0.0,0.0,0.0,0.0,0.0,0.0,0.0,0.0,0.0,0.0,0.0,0.0,0.0,0.0,0.0,0.0,0.0,0.0,0.0,0.0,0.0,0.0,-2.9003,-2.91,-2.8983,-2.8866,-2.8973,-3.2466,-3.5588,-3.5691,-3.6553,-3.7419,0.0,0.0,0.0,0.0,0.0,0.0,-3.5588,-3.5235,-3.504,-3.504,-3.504,-3.504,-3.504,-3.5461,-3.5725,-3.5725,-3.636,-3.6953,-3.7228,-3.7642,0.0,0.0,0.0,0.0,0.0,0.0,0.0,0.0,0.0,0.0,0.0,0.0,0.0,0.0,0.0,0.0,0.0,0.0,0.0,0.0,0.0,0.0,0.0,0.0,0.0,0.0,0.0,0.0,0.0,-2.8061,-2.6434,-2.6398,-2.6405,-2.6395,0.0,0.0,0.0,0.0,0.0,0.0,0.0,0.0,0.0,-2.4878,-2.4397,-2.4225,-2.4156,-2.4235,-2.4239,-2.4168,-2.3627,-2.3314,-2.3349,-2.3289,-2.335,-2.36,-2.3608,-2.3568,-2.358,-2.4448,-2.6318,-2.8688,0.0,0.0,0.0,0.0,-2.876,-2.7371,-2.901,-2.9202,-2.866,-2.8665,0.0,0.0,0.0,0.0,0.0,0.0,0.0,-2.9237,-2.893,-2.8834,-2.8621,-2.8514,-2.8408,-2.8504,-2.9112,-3.1363,-3.3413,-3.3515,-3.4963,-3.6211,-3.6614,-3.6614,0.0,0.0,0.0,-3.5588,-3.526,-3.4932,-3.4823,-3.4823,-3.4823,-3.4823,-3.4823,-3.504,-3.5172,-3.5172,-3.5586,-3.6062,-3.6553,-3.7525,-3.882,0.0,0.0,0.0,0.0,0.0,0.0,0.0,0.0,0.0,0.0,0.0,0.0,0.0,0.0,0.0,0.0,0.0,0.0,0.0,0.0,0.0,0.0,0.0,0.0,0.0,0.0,0.0,0.0,-2.6599,-2.5989,-2.57,-2.5682,-2.574,0.0,0.0,0.0,0.0,0.0,0.0,-2.4197,-2.4217,-2.4168,-2.4214,-2.4161,-2.4089,-2.3773,-2.3809,-2.3836,-2.3745,-2.2985,-2.2615,-2.2641,-2.2613,-2.263,-2.2647,-2.259,-2.2645,-2.2736,-2.414,-2.4819,-2.5023,-2.7661,-2.8648,-2.867,-2.8672,-2.6667,-2.4381,-2.828,-2.8975,-2.8327,-2.8337,-2.8628,-2.9036,-2.9036,0.0,0.0,0.0,0.0,-2.893,-2.8621,-2.8621,-2.8514,-2.8408,-2.8495,-2.89,-2.9723,-3.1051,-3.2083,-3.2275,-3.3808,-3.5223,-3.5716,-3.562,0.0,-3.5729,-3.5428,-3.5223,-3.5126,-3.4932,-3.4823,-3.4823,-3.4823,-3.4823,-3.4823,-3.4823,-3.492,-3.492,-3.5223,-3.5599,-3.6003,-3.7222,-3.8415,-3.9475,0.0,0.0,0.0,0.0,0.0,0.0,0.0,0.0,0.0,0.0,0.0,0.0,0.0,0.0,0.0,0.0,0.0,0.0,0.0,0.0,0.0,0.0,0.0,0.0,0.0,0.0,0.0,0.0,0.0,-2.582,-2.5654,0.0,0.0,0.0,0.0,-2.4254,-2.4319,-2.4258,-2.4239,-2.4161,-2.4225,-2.4225,-2.4181,-2.3709,-2.2698,-2.2707,-2.2724,-2.2676,-2.2667,-2.2593,-2.2636,-2.2561,-2.2569,-2.2569,-2.2586,-2.2562,-2.2669,-2.4202,-2.4756,-2.4832,-2.4952,-2.5032,-2.5032,-2.5068,-2.3452,-2.2029,-2.6755,-2.8358,-2.8319,-2.8262,-2.8504,-2.8727,-2.8727,-2.893,0.0,0.0,-2.8727,-2.8621,-2.8398,-2.8291,-2.8291,-2.8291,-2.9112,-2.9817,-2.9922,-3.1564,-3.3101,-3.3101,-3.4017,-3.4932,-3.5223,0.0,-3.5223,-3.5223,-3.5223,-3.5126,-3.4823,-3.4823,-3.4823,-3.4823,-3.4823,-3.4823,-3.4823,-3.5017,-3.5223,-3.5223,-3.5716,-3.5932,-3.5957,-3.6313,-3.7658,-4.0083,-4.0173,0.0,0.0,0.0,0.0,0.0,0.0,0.0,0.0,0.0,0.0,0.0,0.0,0.0,0.0,0.0,0.0,0.0,0.0,0.0,0.0,0.0,0.0,0.0,0.0,0.0,0.0,0.0,0.0,-2.4827,-2.4758,0.0,-2.4745,-2.4384,-2.415,-2.4187,-2.4214,-2.4242,-2.417,-2.4216,-2.3881,-2.3176,-2.3129,-2.302,-2.2641,-2.2576,-2.2601,-2.2619,-2.2619,-2.2627,-2.2644,-2.2644,-2.2644,-2.2644,-2.2644,-2.2165,-2.162,-2.2886,-2.3427,-2.3411,-2.3406,-2.3913,-2.4639,-2.3069,-2.3829,-2.6044,-2.7672,-2.8251,-2.8271,-2.8281,-2.8398,-2.8408,-2.8408,-2.8504,-2.8611,-2.8514,-2.8408,-2.8408,-2.8291,-2.8291,-2.8291,-2.8291,-2.9112,-3.013,-3.0856,-3.2185,-3.34,-3.4115,-3.4531,-3.4932,-3.5126,-3.503,-3.503,-3.5428,-3.5126,-3.4932,-3.503,-3.4932,-3.4835,-3.503,-3.503,-3.5126,-3.532,-3.5416,-3.5428,-3.5428,-3.5812,-3.6275,-3.6883,-3.7176,-3.7992,-3.9536,-3.9536,-4.0267,0.0,0.0,0.0,0.0,0.0,0.0,0.0,0.0,0.0,0.0,0.0,0.0,0.0,0.0,0.0,0.0,0.0,0.0,0.0,0.0,0.0,0.0,0.0,0.0,0.0,-2.544,-2.4954,-2.4263,-2.4202,-2.4033,-2.3718,-2.361,-2.3764,-2.4198,-2.4071,-2.3845,-2.3646,-2.3664,-2.3329,-2.2615,-2.2567,-2.2593,-2.2593,-2.2627,-2.2644,-2.2644,-2.2644,-2.2644,-2.2644,-2.2644,-2.2426,-2.1988,-2.1988,-2.155,-2.0798,-2.1293,-2.1601,-2.1803,-2.1616,-2.2102,-2.2757,-2.1148,-2.2541,-2.5433,-2.657,-2.7343,-2.7756,-2.8027,-2.8086,-2.8105,-2.8252,-2.8291,-2.8291,-2.8291,-2.8291,-2.8291,-2.8291,-2.8291,-2.8398,-2.8698,-2.9733,-3.0753,-3.188,-3.3001,-3.3918,-3.4628,-3.4823,-3.4835,-3.5017,-3.4932,-3.4932,-3.5416,-3.5126,-3.503,-3.532,-3.5223,-3.5126,-3.532,-3.532,-3.5512,-3.6061,-3.6156,-3.6332,-3.6684,-3.6883,-3.7348,-3.7952,-3.8147,-3.8675,-3.9637,-4.0014,-4.046,-4.1071,0.0,0.0,0.0,0.0,0.0,0.0,0.0,0.0,0.0,0.0,0.0,0.0,0.0,0.0,0.0,0.0,0.0,0.0,0.0,0.0,0.0,0.0,0.0,-2.5693,-2.4777,-2.4168,-2.4177,-2.4214,-2.3791,-2.2728,-2.2611,-2.3015,-2.409,-2.3709,-2.3194,-2.2598,-2.2641,-2.2567,-2.2576,-2.2619,-2.2644,-2.2644,-2.2644,-2.2644,-2.2644,-2.2644,-2.2644,-2.2644,-2.2544,-2.1979,-2.0875,-2.0875,-2.0696,-2.0318,-1.9596,-1.9758,-2.0339,-1.9591,-1.9252,-1.9261,-1.9313,-1.9348,-1.992,-2.3261,-2.5385,-2.6695,-2.749,-2.7646,-2.7725,-2.8125,-2.8252,-2.8252,-2.8271,-2.8271,-2.8271,-2.8291,-2.8291,-2.8601,-2.9618,-3.0753,-3.188,-3.3001,-3.4017,-3.4823,-3.4823,-3.4823,-3.4823,-3.4823,-3.4823,-3.492,-3.5126,-3.5223,0.0,-3.5524,-3.562,-3.562,-3.562,-3.562,-3.6061,-3.6938,-3.7309,-3.7848,-3.8725,-3.9108,-3.921,-3.9197,-3.9197,-3.9724,-4.0603,-4.1619,-4.2092,-4.2092,0.0,0.0,0.0,0.0,0.0,0.0,0.0,0.0,0.0,0.0,0.0,0.0,0.0,0.0,0.0,0.0,0.0,0.0,0.0,0.0,0.0,-2.5509,-2.5185,-2.4632,-2.4347,-2.4187,-2.4223,-2.4242,-2.3917,-2.3231,-2.2854,-2.2754,-2.3067,-2.295,-2.2733,-2.265,-2.2558,-2.2584,-2.2627,-2.2636,-2.2644,-2.2644,-2.2644,-2.2644,-2.2644,-2.2644,-2.2644,-2.2544,-2.176,-2.133,-2.1245,-2.0225,-1.9949,-2.0158,-1.9553,-1.9384,-1.9591,-1.9339,-1.9272,-1.9255,-1.9335,-2.0888,-2.3167,-2.4652,-2.5919,-2.691,-2.7148,-2.7197,-2.7217,-2.7324,-2.7363,-2.7432,-2.7744,-2.7832,-2.791,-2.8213,-2.8291,-2.8601,-2.9618,-3.0753,-3.188,-3.3001,-3.4017,-3.4823,-3.4823,-3.4823,-3.4823,-3.4823,-3.4823,-3.492,-3.5126,-3.5223,-3.532,-3.5524,-3.562,-3.5716,-3.592,-3.6521,-3.7057,-3.752,-3.8315,-3.8841,-3.9108,-3.9197,-3.9549,-4.0159,-4.0246,-4.0703,-4.1633,-4.1995,-4.2092,0.0,0.0,0.0,0.0,0.0,0.0,0.0,0.0,0.0,0.0,0.0,0.0,0.0,0.0,0.0,0.0,0.0,0.0,0.0,0.0,0.0,0.0,-2.4951,-2.4655,-2.423,-2.4168,-2.4214,-2.4251,-2.4035,-2.371,-2.3276,-2.2667,-2.2249,-2.23,-2.2163,-2.2085,-2.1897,-2.2013,-2.2137,-2.2064,-2.2073,-2.2073,-2.2073,-2.2235,-2.2212,-2.2004,-2.2165,-2.2139,-2.1835,-2.1167,-2.0853,-2.0877,-1.9979,-1.9693,-1.9776,-1.942,-1.9332,-1.9272,0.0,0.0,0.0,0.0,-2.1171,-2.3688,-2.4043,-2.5228,-2.6514,-2.6689,-2.6758,-2.6787,-2.6963,-2.7012,-2.707,-2.7324,-2.7393,-2.7451,-2.7695,-2.7764,-2.8162,-2.9659,-3.046,-3.1429,-3.314,-3.3991,-3.4559,-3.4787,-3.4823,0.0,-3.4823,-3.4823,-3.492,-3.532,-3.532,-3.5512,-3.5895,-3.5895,-3.6181,-3.6734,-3.7256,-3.7965,-3.8854,-3.9461,0.0,0.0,0.0,-4.0631,-4.1254,-4.1254,0.0,0.0,0.0,-4.2092,-4.2092,-4.2092,0.0,0.0,-4.2092,-4.2092,0.0,0.0,0.0,0.0,0.0,0.0,0.0,0.0,0.0,0.0,0.0,0.0,0.0,0.0,0.0,0.0,-2.4384,-2.4177,-2.4177,-2.398,-2.389,-2.3926,-2.3547,-2.3205,-2.2824,-2.2261,-2.1752,-2.1795,-2.1497,-2.1292,-2.1058,-2.1292,0.0,0.0,0.0,-2.1413,-2.1413,-2.1756,-2.1624,-2.1123,-2.1453,-2.1322,-2.0861,-2.0759,-2.0467,-2.0078,-2.0086,-1.9783,-1.9279,-1.9279,-1.9279,-1.9279,-1.9279,-1.9279,-1.9279,-1.9279,-2.0688,-2.2484,-2.2484,0.0,0.0,-2.6191,-2.6318,-2.6387,-2.6758,-2.6865,-2.6885,-2.6934,-2.6943,-2.6953,-2.7104,-2.7216,-2.7693,-2.9742,-3.023,-3.0935,-3.3363,-3.3958,-3.409,-3.4559,-3.4655,-3.4643,-3.4643,-3.4751,-3.5005,-3.5439,-3.5522,-3.5688,-3.6088,-3.6232,-3.6633,-3.7625,-3.7861,0.0,-4.0418,-4.0689,-4.1156,-4.2009,-4.2092,-4.2092,-4.2092,-4.2092,-4.2092,-4.2092,-4.2092,-4.2092,-4.2092,-4.2092,-4.2092,-4.2092,-4.2092,-4.2092,0.0,0.0,0.0,0.0,0.0,0.0,0.0,0.0,0.0,0.0,0.0,0.0,0.0,0.0,0.0,-2.4375,-2.4205,-2.4134,-2.3935,-2.2848,-2.2141,-2.1963,-2.2266,-2.212,-2.1255,-2.1519,-2.17,-2.1516,-2.1448,-2.1405,-2.13,-2.1405,-2.1413,-2.1413,-2.1413,-2.1413,-2.1413,-2.1482,-2.1235,-2.0759,-2.0834,0.0,-2.0496,-2.0085,-1.9928,-2.0078,-1.968,-1.9376,-1.9279,-1.9279,-1.9279,-1.9279,-1.9279,-1.9279,-1.9279,-1.9279,-2.0688,-2.2484,-2.2484,-2.3908,-2.5752,-2.584,-2.5859,-2.5879,-2.5957,-2.5986,0.0,-2.6416,-2.6514,-2.6783,-2.7904,-2.8186,-2.8776,-3.0823,-3.1303,-3.1731,-3.3112,-3.344,-3.3464,-3.3561,-3.376,-3.3841,-3.3841,-3.4556,-3.4981,-3.4652,-3.4969,-3.5183,-3.4723,-3.5232,-3.6049,-3.7026,-3.8229,-3.9373,-4.0504,-4.1339,-4.1912,-4.2092,-4.2092,-4.2092,-4.2092,-4.2092,-4.2092,-4.2092,-4.2092,-4.2092,-4.2092,-4.2092,-4.2092,-4.2092,-4.2092,-4.2092,0.0,0.0,0.0,0.0,0.0,0.0,0.0,0.0,0.0,0.0,0.0,-2.6819,-2.5499,0.0,-2.443,-2.4214,-2.4233,-2.4152,-2.3854,-2.2911,-2.2013,-2.1437,-2.0851,-2.0549,-2.0484,-2.0561,-2.0744,-2.1139,-2.096,-2.0848,-2.0848,-2.0848,-2.0848,-2.0848,-2.0848,-2.0848,-2.0848,-2.0754,-2.0467,-2.0006,-1.9886,-1.9662,-1.9338,-1.9032,-1.9022,-1.9179,-1.8883,-1.8884,-1.9045,-1.9206,-1.9279,-1.9279,-1.9279,-1.9279,-1.9383,-1.9879,-2.1081,-2.2584,-2.3085,-2.4313,-2.5742,-2.5742,-2.5742,-2.5742,-2.5742,-2.5742,-2.5781,-2.6006,-2.6064,-2.63,-2.7549,-2.7883,-2.8357,-3.0368,-3.0928,-3.1287,-3.2711,-3.3059,-3.3143,-3.3594,-3.3735,-3.3814,-3.3814,-3.4681,-3.5114,-3.4428,-3.4589,-3.4674,-3.4479,-3.5198,-3.6159,-3.7116,-3.8224,-3.934,-4.0271,-4.0819,-4.1236,-4.157,-4.1599,-4.1744,-4.2092,-4.2092,-4.2092,-4.2092,-4.2092,-4.2092,-4.2092,-4.2092,-4.2092,-4.2092,-4.2092,-4.2092,0.0,0.0,0.0,0.0,0.0,0.0,0.0,-3.1134,-3.0406,-2.8226,-2.7379,-2.6617,-2.5118,-2.4637,-2.444,-2.4251,-2.4152,-2.4026,-2.3647,-2.2698,-2.1727,-2.0753,-1.9599,-1.9031,-1.9427,-1.9328,-1.9609,-2.0475,-2.0188,-2.0011,-2.0011,-1.982,-1.9729,-1.9729,-1.9729,-1.9729,-1.9729,-1.9742,-1.9429,-1.887,-1.8943,-1.8626,-1.8211,-1.8211,-1.824,-1.8299,-1.8299,-1.8452,-1.8716,-1.8979,-1.9125,-1.9184,-1.9184,-1.922,-1.948,-2.0483,-2.1582,-2.2685,-2.3692,-2.4805,-2.5742,-2.5742,-2.5742,-2.5742,-2.5742,-2.5742,-2.5742,-2.5742,-2.5742,-2.6014,-2.72,-2.7463,-2.8028,-2.9977,-3.0543,-3.0929,-3.2304,-3.2682,-3.2893,-3.3514,-3.3691,-3.3781,-3.3781,-3.4616,-3.5159,-3.4512,-3.4614,-3.4755,-3.4819,-3.5574,-3.6492,-3.7424,-3.82,-3.9102,-4.001,-4.0104,-4.0321,-4.0858,-4.0902,-4.1149,-4.1686,-4.17,-4.17,-4.17,-4.1845,-4.1903,-4.1903,-4.2034,-4.2092,-4.2092,-4.2092,-4.2092,-3.3398,-3.3056,-3.2797,-3.2711,-3.2376,-3.2025,0.0,-3.1092,-2.9977,-2.8773,-2.7463,-2.6147,-2.5118,-2.4548,-2.4251,-2.4152,-2.3954,-2.3628,-2.2993,-2.0794,-1.8979,-1.8319,-1.8923,-1.8613,-1.6787,-1.8025,-1.8944,-1.9036,-1.8996,-1.898,-1.898,-1.8133,-1.7669,-1.7669,-1.7669,-1.7669,-1.7669,-1.8087,-1.8024,-1.7572,-1.7984,-1.807,-1.7867,-1.7867,-1.8028,-1.8299,-1.8299,-1.8321,-1.8357,-1.8394,-1.8584,-1.884,-1.884,-1.9023,-1.948,-2.0483,-2.1582,-2.2685,-2.3692,-2.4805,-2.5742,-2.5742,-2.5742,-2.5742,-2.5742,-2.5742,-2.5742,-2.5742,-2.5742,-2.61,-2.8038,-2.8495,-2.905,-3.1003,-3.1661,-3.1862,-3.2022,-3.2299,-3.2498,-3.256,-3.2735,-3.2822,-3.2822,-3.3734,-3.4582,-3.4731,-3.5653,-3.6029,-3.556,-3.606,-3.6811,-3.7707,-3.8359,-3.9102,-4.001,-4.0104,-4.0133,-4.0205,-4.0205,-4.0249,-4.0321,-4.0321,-4.0321,-4.0321,-4.0902,-4.1207,-4.1207,-4.1802,-4.2092,-4.2092,-4.2092,-4.2092,-3.3056,-3.2723,-3.2562,-3.2562,-3.23,-3.1849,-3.1282,-3.0722,-3.0079,-2.8958,-2.7453,-2.6244,-2.5868,-2.4922,-2.4152,-2.4152,-2.3763,-2.326,-2.2895,-2.1352,-1.967,-1.8097,-1.81,-1.7603,-1.6088,-1.6623,-1.7296,-1.7855,-1.7948,-1.7948,-1.7948,-1.7382,-1.7095,-1.7296,-1.7196,-1.7095,-1.7095,-1.7397,-1.7412,-1.7037,-1.7419,-1.7586,-1.753,-1.753,-1.7611,-1.7743,-1.7933,-1.8021,-1.8035,-1.8225,-1.8379,-1.8503,-1.8503,-1.8591,-1.8947,-2.103,-2.2089,-2.2785,-2.4412,-2.5323,-2.5742,-2.5742,-2.5742,-2.5742,-2.5742,-2.5742,-2.5742,-2.5742,-2.61,-2.6924,-2.8308,-2.9143,-2.9977,-3.1484,-3.1937,-3.2038,-3.2376,-3.2463,-3.2636,-3.2822,-3.2909,-3.3068,-3.3556,-3.4441,-3.5331,-3.59,-3.6022,-3.5913,-3.5655,-3.6262,-3.7079,-3.7953,-3.8274,-3.8586,-3.8986,-3.8986,-3.916,-3.9552,-3.9581,-3.9726,-4.0089,-4.0104,-4.0104,-4.0104,-4.0379,-4.0525,-4.0525,-4.08,-4.0931,-4.0931,-4.0931,-4.0931,-3.2797,-3.255,-3.2388,-3.23,-3.2125,-3.1749,-3.1003,-3.0824,-3.0453,-2.8958,-2.7735,-2.6617,-2.6051,-2.5011,-2.4152,-2.4152,-2.3626,-2.2938,-2.2725,-2.1363,-1.9674,-1.7948,-1.6971,-1.617,-1.5425,-1.5609,-1.6075,-1.6828,-1.6922,-1.6821,-1.6821,-1.6351,-1.6163,-1.6264,-1.6163,-1.6069,-1.5967,-1.6372,-1.6567,-1.6466,-1.685,-1.7138,-1.7326,-1.7326,-1.7326,-1.734,-1.7582,-1.7684,-1.7699,-1.7933,-1.8086,-1.8167,-1.8167,-1.8218,-1.8647,-2.1189,-2.2244,-2.2646,-2.4884,-2.5742,-2.5742,-2.5742,-2.5742,-2.5742,-2.5742,-2.5742,-2.5742,-2.5742,-2.6466,-2.7474,-2.8391,-2.9521,-3.0543,-3.1749,-3.2125,-3.2288,-3.2624,-3.2723,-3.2896,-3.3081,-3.3326,-3.3654,-3.4314,-3.5251,-3.6188,-3.678,-3.6596,-3.6346,-3.6346,-3.6844,-3.7491,-3.8127,-3.8202,-3.8202,-3.8202,-3.8202,-3.8405,-3.8884,-3.8928,-3.9117,-3.9567,-3.9581,-3.9581,-3.9581,-3.9755,-3.9842,-3.9842,-4.0017,-4.0104,-4.0104,-4.0104,-4.0104,-3.2797,-3.255,-3.2313,-3.2038,-3.1849,-3.1661,-3.1661,-3.1661,-3.1104,-2.9143,-2.8297,-2.7263,-2.5304,-2.4548,-2.4152,-2.4152,-2.3421,-2.2637,-2.2247,-1.9829,-1.7867,-1.7347,-1.5615,-1.4394,-1.4394,-1.5235,-1.5792,-1.5792,-1.5893,-1.5697,-1.5501,-1.4484,-1.3835,-1.363,-1.3829,-1.3829,-1.3636,-1.44,-1.4968,-1.5432,-1.6001,-1.6567,-1.7326,-1.7326,-1.7326,-1.7326,-1.734,-1.7347,-1.7347,-1.7355,-1.7545,-1.783,-1.783,-1.8021,-1.8595,-2.0627,-2.1724,-2.238,-2.4878,-2.5742,-2.5742,-2.5742,-2.5742,-2.5742,-2.5742,-2.5742,-2.5742,-2.5742,-2.6466,-2.7474,-2.8391,-2.9612,-3.0734,-3.1761,-3.2376,-3.2711,-3.2711,-3.2896,-3.3081,-3.3081,-3.3823,-3.4397,-3.4397,-3.5749,-3.6858,-3.6936,-3.7567,-3.8127,-3.8127,-3.8113,-3.8202,-3.8202,-3.8202,-3.8202,-3.8202,-3.8202,-3.8217,-3.8231,-3.8231,-3.8246,-3.826,-3.826,-3.826,-3.826,-3.8899,-3.9233,-3.9233,-3.9813,-4.0104,-4.0104,-4.0104,-4.0104,-3.255,-3.23,-3.2038,-3.1849,-3.1761,-3.1661,-3.1661,-3.1661,-3.1484,-3.0644,-2.9601,-2.8484,-2.6914,-2.5877,-2.502,-2.435,-2.3196,-2.2127,-2.13,-1.9612,-1.7984,-1.6466,-1.5704,-1.5051,-1.4388,-1.458,-1.4765,-1.4765,-1.4675,-1.449,-1.4394,-1.3925,-1.3642,-1.3738,-1.3835,-1.3738,-1.3539,-1.4304,-1.4873,-1.5242,-1.6379,-1.7044,-1.7326,-1.7326,-1.7326,-1.7326,-1.7326,-1.7326,-1.7326,-1.7326,-1.7391,-1.7494,-1.7494,-1.756,-1.7963,-2.0243,-2.1165,-2.1648,-2.4355,-2.5293,-2.5342,-2.5644,-2.5742,-2.5742,-2.5742,-2.5742,-2.5742,-2.5742,-2.6935,-2.8297,-2.8588,-3.0068,-3.1661,-3.2125,-3.2463,-3.2711,-3.2896,-3.3081,-3.324,-3.3823,-3.423,-3.4716,-3.591,-3.6531,-3.7092,-3.7644,-3.8037,-3.8202,-3.8202,-3.8202,-3.8202,-3.8202,-3.8202,-3.8202,-3.8202,-3.8202,-3.8202,-3.8202,-3.8202,-3.8202,-3.8202,-3.8202,-3.8202,-3.8202,-3.842,-3.8536,-3.8536,-3.8739,-3.8841,-3.8841,-3.8841,-3.8841,-3.23,-3.2125,-3.1937,-3.1761,-3.1661,-3.1661,-3.1661,-3.1661,-3.1572,-3.1015,-3.0068,-2.8947,-2.7484,-2.635,-2.5411,-2.4341,-2.3175,-2.1969,-2.0883,-1.9405,-1.7762,-1.5988,-1.5514,-1.5051,-1.4388,-1.4298,-1.4298,-1.4208,-1.4118,-1.3925,-1.3738,-1.3636,-1.3642,-1.3738,-1.3738,-1.3642,-1.3346,-1.3823,-1.449,-1.5146,-1.6285,-1.7044,-1.7326,-1.7326,-1.7326,-1.7326,-1.7326,-1.7326,-1.7326,-1.7326,-1.7326,-1.7326,-1.7326,-1.7326,-1.7535,-1.9861,-2.0692,-2.1072,-2.386,-2.4834,-2.4912,-2.5352,-2.5498,-2.5527,-2.5684,-2.5742,-2.5732,-2.6091,-2.7389,-2.8773,-2.9235,-3.0722,-3.2213,-3.2475,-3.2636,-3.2896,-3.3081,-3.3081,-3.3326,-3.423,-3.462,-3.5251,-3.6702,-3.7169,-3.7567,-3.8127,-3.8202,-3.8202,-3.8202,-3.8202,-3.8202,-3.8202,-3.8202,-3.8202,-3.8202,-3.8202,-3.8202,-3.8202,-3.8202,-3.8202,-3.8202,-3.8202,-3.8202,-3.8202,-3.8202,-3.8202,-3.8202,-3.8202,-3.8202,-3.8202,-3.8202,-3.8202,-3.2125,-3.195,-3.1937,-3.1761,-3.1661,-3.1661,-3.1661,-3.1661,-3.1472,-3.0453,-2.9784,-2.8751,-2.6798,-2.6061,-2.5411,-2.4341,-2.3272,-2.2159,-2.0779,-1.8918,-1.7188,-1.5893,-1.486,-1.4298,-1.4298,-1.4298,-1.4208,-1.3931,-1.4112,-1.401,-1.3539,-1.3738,-1.3738,-1.3539,-1.3539,-1.3346,-1.3147,-1.3147,-1.3811,-1.5146,-1.5906,-1.6662,-1.7326,-1.7326,-1.7326,-1.7326,-1.7326,-1.7326,-1.7326,-1.7326,-1.7326,-1.7326,-1.7326,-1.7326,-1.7512,-1.9505,-2.0232,-2.0607,-2.3404,-2.4365,-2.4463,-2.4893,-2.5049,-2.5146,-2.5576,-2.5723,-2.5917,-2.6914,-2.7934,-2.8958,-3.017,-3.146,-3.2475,-3.2636,-3.2896,-3.3081,-3.3081,-3.3167,-3.3411,-3.4314,-3.5169,-3.6029,-3.6844,-3.7644,-3.8202,-3.8202,-3.8202,-3.8202,-3.8202,-3.8202,-3.8202,-3.8202,-3.8202,-3.8202,-3.8202,-3.8202,-3.8202,-3.8202,-3.8202,-3.8202,-3.8202,-3.8202,-3.8202,-3.8202,-3.8202,-3.8202,-3.8202,-3.8202,-3.8202,-3.8202,-3.8202,-3.8202,-3.2025,-3.1849,-3.1761,-3.1749,-3.1661,-3.1661,-3.1661,-3.1661,-3.1572,-3.1104,-3.0158,-2.8947,-2.7579,-2.6446,-2.5411,-2.4341,-2.3175,-2.1674,-1.9797,-1.835,-1.6727,-1.486,-1.4484,-1.4298,-1.4298,-1.4298,-1.4208,-1.3931,-1.3931,-1.3925,-1.3835,-1.3835,-1.3835,-1.3835,-1.3835,-1.3642,-1.3443,-1.4202,-1.4765,-1.5146,-1.6379,-1.7138,-1.7326,-1.7326,-1.7326,-1.7326,-1.7326,-1.7326,-1.7326,-1.7326,-1.7326,-1.7326,-1.7326,-1.7326,-1.7512,-1.9505,-2.0232,-2.0529,-2.2659,-2.3682,-2.4014,-2.4443,-2.4805,-2.5088,-2.5205,-2.5469,-2.5917,-2.7125,-2.8226,-2.9235,-3.0441,-3.1725,-3.2636,-3.2711,-3.2896,-3.3081,-3.3081,-3.3569,-3.4301,-3.5156,-3.6517,-3.763,-3.781,-3.8037,-3.8202,-3.8202,-3.8202,-3.8202,-3.8202,-3.8202,-3.8202,-3.8202,-3.8202,-3.8202,-3.8202,-3.8202,-3.8202,-3.8202,-3.8202,-3.8202,-3.8202,-3.8202,-3.8202,-3.8202,-3.8202,-3.8202,-3.8202,-3.8202,-3.8202,-3.8202,-3.8202,-3.8202,-3.1849,-3.1761,-3.1661,-3.1661,-3.1661,-3.1661,-3.1661,-3.1661,-3.1661,-3.1484,-3.0453,-2.9235,-2.7945,-2.6733,-2.5509,-2.4341,-2.3175,-2.177,-2.0095,-1.8445,-1.6821,-1.514,-1.458,-1.4298,-1.4298,-1.4298,-1.4202,-1.4118,-1.4118,-1.4022,-1.3931,-1.4022,-1.4118,-1.4118,-1.3835,-1.3732,-1.3721,-1.4292,-1.4956,-1.5622,-1.6379,-1.6951,-1.7326,-1.7326,-1.7326,-1.7326,-1.7326,-1.7326,-1.7326,-1.7326,-1.7326,-1.7326,-1.7326,-1.7598,-1.8149,-1.9687,-2.0503,-2.1051,-2.2589,-2.3301,-2.3574,-2.4004,-2.4307,-2.458,-2.4951,-2.5339,-2.5958,-2.7704,-2.868,-2.959,-3.1247,-3.2176,-3.2723,-3.281,-3.2982,-3.3081,-3.3081,-3.3823,-3.4786,-3.5963,-3.7246,-3.8202,-3.8202,-3.8202,-3.8202,-3.8202,-3.8202,-3.8202,-3.8202,-3.8202,-3.8202,-3.8202,-3.8202,-3.8202,-3.8202,-3.8202,-3.8202,-3.8202,-3.8202,-3.8202,-3.8202,-3.8202,-3.8202,-3.8202,-3.8202,-3.8202,-3.8202,-3.8202,-3.8202,-3.8202,-3.8202,-3.8202,-3.1761,-3.1661,-3.1661,-3.1661,-3.1661,-3.1661,-3.1661,-3.1661,-3.1661,-3.1661,-3.0644,-2.9338,-2.81,-2.6914,-2.5606,-2.4449,-2.3272,-2.2159,-2.0883,-1.8918,-1.7188,-1.5988,-1.4956,-1.4298,-1.4298,-1.4298,-1.4298,-1.4298,-1.4298,-1.4208,-1.3931,-1.4208,-1.4298,-1.4202,-1.3727,-1.363,-1.3902,-1.3998,-1.4765,-1.619,-1.6285,-1.6669,-1.7326,-1.7326,-1.7326,-1.7326,-1.7326,-1.7326,-1.7326,-1.7326,-1.7326,-1.7326,-1.7326,-1.7878,-1.888,-1.9869,-2.0872,-2.1872,-2.2775,-2.3135,-2.3203,-2.3584,-2.374,-2.3926,-2.4678,-2.5169,-2.5997,-2.8288,-2.9179,-2.9954,-3.2164,-3.2711,-3.281,-3.3068,-3.3081,-3.3081,-3.3081,-3.3894,-3.5032,-3.678,-3.7644,-3.8202,-3.8202,-3.8202,-3.8202,-3.8202,-3.8202,-3.8202,-3.8202,-3.8202,-3.8202,-3.8202,-3.8202,-3.8202,-3.8202,-3.8202,-3.8202,-3.8202,-3.8202,-3.8202,-3.8202,-3.8202,-3.8202,-3.8202,-3.8202,-3.8202,-3.8202,-3.8202,-3.8202,-3.8202,-3.8202,-3.8202,-3.1749,-3.1661,-3.1661,-3.1661,-3.1661,-3.1661,-3.1661,-3.1661,-3.1661,-3.1661,-3.0531,-2.9131,-2.81,-2.6713,-2.5401,-2.435,-2.3078,-2.1873,-2.0883,-1.8737,-1.7008,-1.5893,-1.4956,-1.4298,-1.4298,-1.4298,-1.4298,-1.4298,-1.4298,-1.4298,-1.4202,-1.4298,-1.4112,-1.363,-1.3346,-1.3431,-1.3902,-1.4573,-1.5337,-1.619,-1.6857,-1.7138,-1.7326,-1.7326,-1.7326,-1.7326,-1.7326,-1.7326,-1.7326,-1.7326,-1.7326,-1.7326,-1.7326,-1.7878,-1.888,-1.9869,-2.0872,-2.1872,-2.2775,-2.3135,-2.3154,-2.3223,-2.3496,-2.3818,-2.3965,-2.4697,-2.5926,-2.816,-2.9286,-3.0226,-3.2438,-3.3068,-3.3068,-3.3081,-3.3081,-3.3081,-3.3081,-3.4275,-3.5869,-3.7644,-3.8127,-3.8202,-3.8202,-3.8202,-3.8202,-3.8202,-3.8202,-3.8202,-3.8202,-3.8202,-3.8202,-3.8202,-3.8202,-3.8202,-3.8202,-3.8202,-3.8202,-3.8202,-3.8202,-3.8202,-3.8202,-3.8202,-3.8202,-3.8202,-3.8202,-3.8202,-3.8202,-3.8202,-3.8202,-3.8202,-3.8202,-3.8202,-3.1661,-3.1661,-3.1661,-3.1661,-3.1661,-3.1661,-3.1661,-3.1572,-3.1484,-3.1484,-3.0374,-2.9073,-2.7945,-2.6733,-2.5509,-2.435,-2.3078,-2.2072,-2.157,-1.9028,-1.7102,-1.664,-1.5235,-1.4298,-1.4298,-1.4298,-1.4298,-1.4298,-1.4298,-1.4298,-1.4298,-1.4298,-1.401,-1.3539,-1.3346,-1.3721,-1.4478,-1.4956,-1.5622,-1.6763,-1.7138,-1.7326,-1.7326,-1.7326,-1.7326,-1.7326,-1.7326,-1.7326,-1.7326,-1.7326,-1.7326,-1.7326,-1.7326,-1.8234,-1.9604,-2.0051,-2.1141,-2.2501,-2.296,-2.3135,-2.3135,-2.3135,-2.3281,-2.3496,-2.3721,-2.4696,-2.6097,-2.8187,-2.9573,-3.0726,-3.2636,-3.3081,-3.3081,-3.3081,-3.3081,-3.3313,-3.4191,-3.5061,-3.6108,-3.7872,-3.8202,-3.8202,-3.8202,-3.8202,-3.8202,-3.8202,-3.8202,-3.8202,-3.8202,-3.8202,-3.8202,-3.8202,-3.8202,-3.8202,-3.8202,-3.8202,-3.8202,-3.8202,-3.8202,-3.8202,-3.8202,-3.8202,-3.8202,-3.8202,-3.8202,-3.8202,-3.8202,-3.8202,-3.8202,-3.8202,-3.8202,-3.8202,-3.1661,-3.1661,-3.1661,-3.1661,-3.1661,-3.1661,-3.1661,-3.1484,-3.1217,-3.1026,-3.0114,-2.9002,-2.7484,-2.6552,-2.5606,-2.4449,-2.3078,-2.2271,-2.2176,-1.9601,-1.7569,-1.7296,-1.5704,-1.458,-1.4298,-1.4298,-1.4298,-1.4298,-1.4298,-1.4298,-1.4298,-1.4202,-1.4016,-1.3539,-1.3443,-1.3913,-1.5051,-1.5051,-1.5812,-1.7326,-1.7326,-1.7326,-1.7326,-1.7326,-1.7326,-1.7326,-1.7326,-1.7326,-1.7326,-1.7326,-1.7326,-1.7326,-1.7512,-1.8696,-2.0232,-2.0413,-2.1596,-2.3135,-2.3135,-2.3135,-2.3135,-2.3135,-2.3135,-2.3203,-2.3792,-2.4815,-2.6238,-2.8229,-2.9776,-3.1112,-3.2511,-3.298,-3.3081,-3.3081,-3.3081,-3.3556,-3.5224,-3.5615,-3.6108,-3.7872,-3.8202,-3.8202,-3.8202,-3.8202,-3.8202,-3.8202,-3.8202,-3.8202,-3.8202,-3.8202,-3.8202,-3.8202,-3.8202,-3.8202,-3.8202,-3.8202,-3.8202,-3.8202,-3.8202,-3.8202,-3.8202,-3.8202,-3.8202,-3.8202,-3.8202,-3.8202,-3.8202,-3.8202,-3.8127,-3.7886,-3.7886,-3.7796,-3.1661,-3.1661,-3.1661,-3.1661,-3.1661,-3.1661,-3.1661,-3.1484,-3.1026,-3.0091,-2.9543,-2.8505,-2.6512,-2.5964,-2.5401,-2.435,-2.3272,-2.2461,-2.2262,-2.0357,-1.8596,-1.7475,-1.6358,-1.533,-1.4388,-1.4298,-1.4298,-1.4298,-1.4298,-1.4298,-1.4298,-1.4118,-1.3835,-1.3539,-1.3249,-1.3817,-1.5051,-1.5051,-1.5812,-1.7326,-1.7326,-1.7326,-1.7326,-1.7326,-1.7326,-1.7326,-1.7326,-1.7326,-1.7326,-1.7326,-1.7326,-1.7419,-1.8334,-1.933,-2.0322,-2.1239,-2.2236,-2.3135,-2.3135,-2.3135,-2.3135,-2.3135,-2.3135,-2.3309,-2.4337,-2.523,-2.6271,-2.8312,-2.9809,-3.1015,-3.2025,-3.2679,-3.3081,-3.3081,-3.3081,-3.3556,-3.5224,-3.5615,-3.6108,-3.7872,-3.8202,-3.8202,-3.8202,-3.8202,-3.8202,-3.8202,-3.8202,-3.8202,-3.8202,-3.8202,-3.8202,-3.8202,-3.8202,-3.8202,-3.8202,-3.8202,-3.8202,-3.8202,-3.8202,-3.8202,-3.8202,-3.8202,-3.8202,-3.8202,-3.8202,-3.8202,-3.8202,-3.8202,-3.781,-3.7014,-3.7014,-3.6596,-3.1661,-3.1661,-3.1661,-3.1661,-3.1661,-3.1661,-3.1484,-3.1318,-3.0769,-2.9635,-2.9084,-2.8236,-2.6157,-2.5781,-2.5411,-2.4341,-2.3383,-2.2643,-2.2203,-2.0559,-1.8839,-1.7505,-1.6452,-1.5425,-1.4388,-1.4298,-1.4298,-1.4298,-1.4298,-1.4298,-1.4298,-1.4208,-1.3919,-1.3539,-1.3443,-1.3913,-1.5051,-1.4573,-1.533,-1.7326,-1.685,-1.6857,-1.7326,-1.7326,-1.7326,-1.7326,-1.7326,-1.7326,-1.7326,-1.7326,-1.7326,-1.7419,-1.8427,-1.933,-2.0322,-2.1329,-2.2325,-2.3135,-2.3135,-2.3135,-2.3144,-2.3319,-2.3734,-2.4211,-2.4617,-2.5507,-2.6735,-2.8445,-2.9791,-3.0894,-3.1968,-3.2641,-3.3081,-3.3081,-3.3484,-3.4217,-3.5386,-3.6029,-3.6766,-3.7962,-3.8202,-3.8202,-3.8202,-3.8202,-3.8202,-3.8202,-3.8202,-3.8202,-3.8202,-3.8202,-3.8202,-3.8202,-3.8202,-3.8202,-3.8202,-3.8202,-3.8202,-3.8202,-3.8202,-3.8202,-3.8202,-3.8202,-3.8202,-3.8202,-3.8202,-3.8202,-3.8202,-3.7644,-3.7246,-3.6858,-3.636,-3.5949,-3.1661,-3.1661,-3.1661,-3.1661,-3.1661,-3.1661,-3.1395,0.0,-3.0589,-2.8991,-2.8423,-2.7673,-2.5596,-2.5206,-2.4922,-2.4251,-2.3323,-2.2629,-2.2134,-2.0796,-1.9381,-1.79,-1.7102,-1.617,-1.486,-1.4484,-1.4298,-1.4298,-1.4298,-1.4298,-1.4298,-1.4298,-1.401,-1.3539,-1.3539,-1.3913,-1.4765,-1.4382,-1.514,-1.6951,-1.6662,-1.6756,-1.7326,-1.7326,-1.7326,-1.7326,-1.7326,-1.7326,-1.7326,-1.7326,-1.7512,-1.7878,-1.8788,-1.9786,-2.0782,-2.1784,-2.2501,-2.3135,-2.3135,-2.3135,-2.3232,-2.3416,-2.4145,-2.5052,-2.5294,-2.6213,-2.7452,-2.8802,-2.9985,-3.106,-3.1976,-3.2641,-3.3081,-3.3081,-3.3569,-3.4301,-3.5386,-3.6108,-3.6922,-3.7962,-3.8277,-3.8277,-3.8202,-3.8202,-3.8202,-3.8202,-3.8202,-3.8202,-3.8202,-3.8202,-3.8202,-3.8202,-3.8202,-3.8202,-3.8202,-3.8202,-3.8127,-3.781,-3.781,-3.772,-3.7477,-3.7644,-3.772,-3.7477,-3.7644,-3.772,-3.74,-3.6844,-3.6373,-3.6136,-3.5561,-3.5074,-3.1661,-3.1661,-3.1661,-3.1661,-3.1661,-3.1661,0.0,-3.1139,-3.0329,-2.806,-2.7389,-2.6617,-2.4637,-2.3954,-2.3854,-2.3854,-2.3216,-2.2523,-2.1848,-2.1465,-2.061,-1.902,-1.8788,-1.7948,-1.5988,-1.486,-1.4298,-1.4298,-1.4298,-1.4298,-1.4298,-1.4298,-1.401,-1.3539,-1.3539,-1.363,-1.3908,-1.4669,-1.5432,-1.619,-1.6951,-1.7326,-1.7326,-1.7326,-1.7326,-1.7326,-1.7326,-1.7326,-1.7326,-1.7326,-1.7878,-1.888,-1.9778,-2.0782,-2.1784,-2.2775,-2.3047,-2.3135,-2.3135,-2.3232,-2.3503,-2.3503,-2.4413,-2.5652,-2.6483,-2.7371,-2.8347,-2.9456,-3.0557,-3.1512,-3.2064,-3.2641,-3.3081,-3.3081,-3.3081,-3.3556,-3.5224,-3.5775,-3.6346,-3.7886,-3.8366,-3.8441,-3.8202,-3.8202,-3.8202,-3.8202,-3.8202,-3.8202,-3.8202,-3.8202,-3.8202,-3.8202,-3.8202,-3.8202,-3.8202,-3.8202,-3.781,-3.6936,-3.6936,-3.6517,-3.5695,-3.6439,-3.6517,-3.5615,-3.6439,-3.6517,-3.5615,-3.5615,-3.5237,-3.4397,-3.4397,-3.3979,-3.1661,-3.1661,-3.1661,-3.1661,-3.1572,-3.1395,-3.1151,-3.0871,-3.0114,-2.7757,-2.7284,-2.6617,-2.4538,-2.3954,-2.3755,-2.3755,-2.334,-2.2635,-2.1883,-2.1501,-2.0703,-1.9044,-1.8226,-1.7483,-1.6922,-1.6546,-1.6358,-1.6358,-1.6358,-1.6075,-1.533,-1.533,-1.486,-1.3835,-1.3642,-1.3727,-1.4196,-1.419,-1.4956,-1.619,-1.6473,-1.6857,-1.7326,-1.7326,-1.7326,-1.7326,-1.7326,-1.7326,-1.7326,-1.7326,-1.7878,-1.888,-1.9869,-2.0782,-2.1784,-2.2775,-2.3232,-2.3406,-2.3406,-2.3503,-2.3831,-2.4573,-2.5568,-2.6565,-2.7637,-2.8119,-2.853,-2.9534,-3.0306,-3.0984,-3.1512,-3.2064,-3.2591,-3.298,-3.3654,-3.4454,-3.5548,-3.6503,-3.7155,-3.7462,-3.8023,-3.8277,-3.7491,-3.781,-3.7962,-3.7414,-3.7323,-3.7323,-3.7323,-3.6752,-3.6674,-3.7246,-3.6752,-3.6908,-3.8127,-3.7644,-3.7169,-3.6936,-3.636,-3.5869,-3.5615,-3.5869,-3.5869,-3.5628,-3.5869,-3.5869,-3.5615,-3.5087,-3.4371,-3.3484,-3.3484,-3.3326,-3.1661,-3.1661,-3.1572,-3.1193,-3.0925,-3.0566,-3.0011,0.0,0.0,0.0,0.0,0.0,-2.4538,-2.3854,-2.3655,-2.3655,-2.3247,-2.2577,-2.1804,-2.1509,-2.0933,-1.9537,-1.8511,-1.7855,-1.7855,-1.7483,-1.7296,-1.7296,-1.7296,-1.6828,-1.5893,-1.5798,-1.5235,-1.4118,-1.3732,-1.363,-1.3817,-1.4196,-1.486,-1.5812,-1.6379,-1.6857,-1.7326,-1.7326,-1.7326,-1.7326,-1.7326,-1.7326,0.0,-1.7692,-1.8419,-1.9422,-2.0421,-2.1418,-2.2422,-2.3047,-2.3406,-2.358,-2.358,-2.3764,-2.41,-2.5168,-2.64,-2.7637,-2.8712,-2.8961,-2.9118,-2.9624,-3.0193,-3.0733,-3.1248,-3.18,-3.2353,-3.2943,-3.3654,-3.4538,-3.5615,-3.6346,-3.683,-3.7127,-3.7462,-3.74,-3.6517,-3.683,-3.7,-3.6517,-3.6439,-3.6439,-3.6439,-3.5949,-3.5789,-3.636,-3.5949,-3.6029,-3.7155,-3.6752,-3.6281,-3.599,-3.5494,-3.4992,-3.4664,-3.4992,-3.4992,-3.4664,-3.5006,-3.4992,-3.4664,-3.4134,-3.3654,-3.3081,-3.3081,-3.3081,0.0,-3.1661,-3.1472,-3.0441,-2.9988,-2.9429,-2.8204,0.0,0.0,0.0,0.0,0.0,0.0,0.0,-2.3447,-2.3447,-2.2946,-2.2278,-2.1516,-2.1362,-2.1071,-2.0377,-1.9446,-1.8888,-1.8888,-1.8041,-1.7475,-1.7475,-1.7475,-1.7008,-1.5981,-1.5893,-1.5419,-1.4484,-1.3913,-1.3534,-1.3244,-1.4484,-1.5146,-1.5242,-1.6662,-1.7326,-1.7326,-1.7326,-1.7326,-1.7326,-1.7326,-1.7326,-1.7512,-1.8427,-1.9422,-2.0413,-2.1329,-2.2422,-2.3503,-2.3503,-2.3667,-2.3841,-2.3841,-2.4024,-2.4368,-2.5326,-2.6976,-2.8712,-2.9546,-2.9792,-2.9792,-2.9792,-3.0168,-3.0683,-3.1248,-3.1763,-3.2303,-3.293,-3.324,-3.3882,-3.5453,-3.5534,-3.5615,-3.6802,-3.6596,-3.6122,-3.5628,-3.5534,-3.5615,-3.5534,-3.5534,-3.5534,-3.5534,-3.5453,-3.5467,-3.5548,-3.5453,-3.5453,-3.5453,-3.5467,-3.5156,-3.4481,-3.4314,-3.3894,-3.3154,-3.3907,-3.3907,-3.3081,-3.3907,-3.3907,-3.3081,-3.3081,-3.3081,-3.3081,-3.3081,-3.3106,-3.1484,0.0,-3.1116,-3.0181,-2.9543,-2.898,0.0,0.0,0.0,0.0,0.0,0.0,0.0,0.0,0.0,-2.3447,-2.2946,-2.2278,-2.1516,-2.0917,-2.0489,-2.0309,-2.0102,-1.992,-1.992,-1.9729,-1.9629,-1.9629,-1.9629,-1.8788,-1.7008,-1.6922,-1.6452,-1.5514,-1.5134,-1.4758,-1.4304,-1.4867,-1.5337,-1.5906,-1.6857,-1.7326,-1.7326,-1.7326,-1.7326,-1.7326,-1.7326,-1.7692,-1.8427,-1.8703,-1.9869,-2.1587,-2.1854,-2.2677,-2.3754,-2.3754,-2.3937,-2.412,-2.412,-2.4282,-2.47,-2.6246,-2.7971,-2.9546,-2.9714,-2.9792,-2.9792,-2.9792,-2.988,-3.0206,-3.1148,-3.1486,-3.1838,-3.2842,-3.324,-3.3713,-3.4979,-3.5142,-3.5142,-3.5453,-3.5789,-3.5709,-3.4855,-3.5156,-3.5386,-3.4772,-3.4703,-3.4703,-3.4703,-3.4134,-3.3966,-3.462,-3.405,-3.3713,-3.3713,-3.4288,-3.4634,-3.4397,-3.3738,-3.3326,-3.3081,-3.3326,-3.3326,-3.3081,-3.3326,-3.3326,-3.3081,-3.3081,-3.3081,-3.3081,-3.3081,-3.3307,-3.1395,-3.1306,-3.0925,-2.9338,-2.8691,-2.8049,-2.6542,0.0,0.0,0.0,0.0,0.0,0.0,0.0,0.0,-2.3247,-2.2698,-2.203,-2.1268,-2.066,-2.0292,-2.0292,-2.0292,-2.0292,-2.0292,-2.0292,-2.0292,-2.0292,-2.0292,-1.9629,-1.8041,-1.7948,-1.7576,-1.6546,-1.625,-1.5967,-1.5704,-1.59,-1.6089,-1.656,-1.7037,-1.7326,-1.7326,-1.7326,-1.7326,-1.7326,-1.7326,-1.7878,-1.8788,-1.9239,-2.0413,-2.2041,-2.2492,-2.3212,-2.4024,-2.4024,-2.411,-2.4378,-2.4378,-2.4946,-2.5924,-2.7313,-2.8712,-2.9934,-2.9934,-3.0011,-3.0011,-2.9869,-2.9792,-3.0043,-3.111,-3.1386,-3.1675,-3.2805,-3.324,-3.3713,-3.4746,-3.4759,-3.469,-3.4992,-3.4897,-3.4677,-3.3894,-3.4121,-3.4275,-3.3894,-3.3823,-3.3823,-3.3823,-3.3411,-3.324,-3.3738,-3.3411,-3.3081,-3.3081,-3.3484,-3.3823,-3.3823,-3.3326,-3.3081,-3.3081,-3.3081,-3.3081,-3.3081,-3.3081,-3.3081,-3.3081,-3.3081,-3.3081,-3.3081,-3.3332,-3.3608,-3.1104,-3.1026,-3.0464,-2.8577,-2.7851,-2.702,-2.5109,0.0,0.0,0.0,0.0,0.0,0.0,-2.3555,-2.3247,-2.3046,-2.2382,-2.167,-2.0977,-2.054,-2.0292,-2.0292,-2.0292,-2.0292,-2.0292,-2.0292,-2.0292,-2.0292,-2.0292,-1.9828,-1.888,-1.8788,-1.8419,-1.7576,-1.7282,-1.7274,-1.7461,-1.7203,-1.7124,-1.7217,-1.7326,-1.7419,-1.7426,-1.7333,-1.7326,-1.7326,-1.7326,-1.7878,-1.8972,-1.9877,-2.1042,-2.2217,-2.3222,-2.3851,-2.4292,-2.4292,-2.4368,-2.454,-2.4615,-2.5757,-2.7232,-2.8211,-2.9275,-3.0075,-3.0152,-3.0292,-3.0292,-3.0011,-2.9869,-3.0108,-3.111,-3.1386,-3.1675,-3.2805,-3.324,-3.3641,-3.4594,-3.4371,-3.4134,-3.4677,-3.4191,-3.3556,-3.3154,-3.3081,-3.3081,-3.3081,-3.3081,-3.3081,-3.3081,-3.3081,-3.3081,-3.3081,-3.3081,-3.3081,-3.3081,-3.3081,-3.3081,-3.3081,-3.3081,-3.3081,-3.3081,-3.3081,-3.3081,-3.3081,-3.3081,-3.3081,-3.3081,-3.3156,-3.3206,-3.3219,-3.3771,-3.4073,-2.9977,-2.9521,-2.9349,-2.898,-2.8038,-2.6904,-2.5781,0.0,0.0,0.0,0.0,0.0,0.0,-2.3447,-2.3046,-2.3046,-2.2149,-2.1353,-2.0942,-2.054,-2.0292,-2.0292,-2.0292,-2.0292,-2.0292,-2.0292,-2.0292,-2.0292,-2.0292,-1.9828,-1.888,-1.8788,-1.8696,-1.8603,-1.8503,-1.888,-1.9812,-1.8334,-1.7878,-1.8542,-1.8172,-1.7994,-1.7986,-1.752,-1.7326,-1.7326,-1.7326,-1.8064,-1.9438,-2.024,-2.1498,-2.3047,-2.3764,-2.4206,-2.4454,-2.4454,-2.4454,-2.4625,-2.5337,-2.6246,-2.7313,-2.8383,-2.9353,-3.0152,-3.0292,-3.0368,-3.0368,-3.0292,-3.0228,-3.0251,-3.1191,-3.1386,-3.1675,-3.2805,-3.3167,-3.3326,-3.3797,-3.3725,-3.3569,-3.3882,-3.3641,-3.3398,-3.3154,-3.3081,-3.3081,-3.3081,-3.3081,-3.3081,-3.3081,-3.3081,-3.3081,-3.3081,-3.3081,-3.3081,-3.3081,-3.3081,-3.3081,-3.3081,-3.3081,-3.3081,-3.3081,-3.3081,-3.3081,-3.3081,-3.3081,-3.3081,-3.3081,-3.3545,-3.3771,-3.3784,-3.4336,-3.4851,-2.8773,-2.8319,-2.8236,-2.8132,-2.7189,-2.6157,-2.5118,0.0,0.0,0.0,0.0,0.0,0.0,-2.3247,-2.2807,-2.2192,-2.1733,-2.1208,-2.0643,-2.0403,-2.0292,-2.0292,-2.0292,-2.0292,-2.0292,-2.0292,-2.0292,-2.0292,-2.0292,-2.0102,-1.9637,-1.9637,-1.9637,-1.9637,-1.9637,-1.982,-2.0292,-1.9546,-1.918,-1.9188,-1.845,-1.8087,-1.8087,-1.752,-1.7426,-1.7707,-1.7707,-1.8535,-2.0002,-2.0701,-2.1784,-2.3135,-2.3937,-2.4292,-2.454,-2.454,-2.454,-2.47,-2.5997,-2.673,-2.7395,-2.8949,-2.9831,-3.0305,-3.0533,-3.0609,-3.0672,-3.0609,-3.0599,-3.0866,-3.144,-3.1789,-3.2218,-3.2965,-3.3081,-3.3154,-3.3471,-3.3471,-3.3398,-3.3556,-3.3484,-3.3313,-3.3154,-3.3081,-3.3081,-3.3081,-3.3081,-3.3081,-3.3081,-3.3081,-3.3081,-3.3081,-3.3081,-3.3081,-3.3081,-3.3081,-3.3081,-3.3081,-3.3081,-3.3081,-3.3081,-3.3081,-3.3081,-3.3081,-3.3081,-3.3219,-3.352,-3.3771,-3.406,-3.4361,-3.4914,-3.5303,-2.7568,-2.721,-2.702,-2.6617,0.0,0.0,0.0,0.0,0.0,0.0,0.0,0.0,0.0,-2.3046,-2.2594,-2.1533,-2.1413,-2.1148,-2.0394,-2.0292,-2.0292,-2.0292,-2.0292,-2.0292,-2.0292,-2.0292,-2.0292,-2.0292,-2.0292,-2.0292,-2.0292,-2.0292,-2.0292,-2.0292,-2.0292,-2.0292,-2.0292,-2.0292,-2.011,-1.9737,-1.8727,-1.8272,-1.8272,-1.7707,-1.7707,-1.8087,-1.8179,-1.9096,-2.0464,-2.1078,-2.2059,-2.3232,-2.4024,-2.4368,-2.454,-2.454,-2.4615,-2.5031,-2.6577,-2.7232,-2.7718,-2.9574,-3.0292,-3.0444,-3.0685,-3.0911,-3.1013,-3.0929,-3.1216,-3.1509,-3.1716,-3.2155,-3.2713,-3.3101,-3.3154,-3.3154,-3.3398,-3.3398,-3.3398,-3.3398,-3.3398,-3.3313,-3.3154,-3.3081,-3.3081,-3.3081,-3.3081,-3.3081,-3.3081,-3.3081,-3.3081,-3.3081,-3.3081,-3.3081,-3.3081,-3.3081,-3.3081,-3.3081,-3.3081,-3.3081,-3.3081,-3.3081,-3.3081,-3.3081,-3.3206,-3.3483,-3.3897,-3.4161,-3.45,-3.4926,-3.5479,-3.573,-2.6502,-2.5954,-2.5596,-2.4627,-2.502,0.0,-2.5596,-2.4726,0.0,-2.3854,-2.3447,-2.3046,-2.3046,-2.2846,-2.2395,-2.1533,-2.1413,-2.1148,-2.0394,-2.0292,-2.0292,-2.0292,-2.0292,-2.0292,-2.0292,-2.0292,-2.0292,-2.0292,-2.0292,-2.0292,-2.0292,-2.0292,-2.0292,-2.0292,-2.0292,-2.0292,-2.0292,-2.0292,-2.0292,-2.0201,-1.9196,-1.8735,-1.8735,-1.8272,-1.8087,-1.8087,-1.855,-1.9463,-2.0637,-2.1338,-2.2413,-2.3503,-2.4196,-2.4454,-2.454,-2.454,-2.502,-2.583,-2.6823,-2.7637,-2.8621,-2.9973,-3.0368,-3.0444,-3.0836,-3.0986,-3.1091,-3.155,-3.2045,-3.2262,-3.2072,-3.2319,-3.2701,-3.3259,-3.324,-3.3154,-3.3398,-3.3398,-3.3398,-3.3398,-3.3398,-3.3313,-3.3154,-3.3081,-3.3081,-3.3081,-3.3081,-3.3081,-3.3081,-3.3081,-3.3081,-3.3081,-3.3081,-3.3081,-3.3081,-3.3081,-3.3081,-3.3081,-3.3081,-3.3081,-3.3081,-3.3081,-3.3081,-3.3081,-3.3583,-3.3859,-3.3897,-3.4926,-3.5441,-3.5504,-3.6044,-3.6307,-2.5382,-2.4815,-2.4637,-2.4251,-2.444,0.0,0.0,-2.4143,-2.3746,-2.3555,-2.3247,-2.2946,-2.2745,-2.2644,-2.2295,-2.1533,-2.1413,-2.1148,-2.0394,-2.0292,-2.0292,-2.0292,-2.0292,-2.0292,-2.0292,-2.0292,-2.0292,-2.0292,-2.0292,-2.0292,-2.0292,-2.0292,-2.0292,-2.0292,-2.0292,-2.0292,-2.0292,-2.0292,-2.0292,-2.0292,-1.9646,-1.9279,-1.9279,-1.8727,-1.8727,-1.9004,-1.9188,-2.0002,-2.1177,-2.1872,-2.2677,-2.359,-2.4196,-2.454,-2.454,-2.454,-2.47,-2.5189,-2.6577,-2.7313,-2.7959,-2.9806,-3.0368,-3.0444,-3.0911,-3.1235,-3.1561,-3.1707,-3.2358,-3.2843,-3.2692,-3.2842,-3.3145,-3.3189,-3.3154,-3.3167,-3.324,-3.324,-3.324,-3.324,-3.324,-3.3154,-3.3081,-3.3081,-3.3081,-3.3081,-3.3081,-3.3081,-3.3081,-3.3081,-3.3081,-3.3081,-3.3081,-3.3081,-3.3081,-3.3081,-3.3081,-3.3081,-3.3081,-3.3081,-3.3081,-3.3407,-3.3583,-3.3583,-3.4123,-3.4575,-3.4926,-3.5341,-3.5717,-3.6056,-3.6257,-3.6358,-2.5118,-2.4637,-2.4637,-2.4251,0.0,0.0,-2.3845,-2.3646,-2.3546,-2.3347,-2.3046,-2.2846,-2.2644,-2.2644,-2.2295,-2.1533,-2.1413,-2.1148,-2.0394,-2.0292,-2.0292,-2.0292,-2.0292,-2.0292,-2.0292,-2.0292,-2.0292,-2.0292,-2.0292,-2.0292,-2.0292,-2.0292,-2.0292,-2.0292,-2.0292,-2.0292,-2.0292,-2.0292,-2.0292,-2.0292,-2.0011,-1.9737,-1.9554,-1.9188,-1.9345,-1.9812,-2.018,-2.1063,-2.218,-2.2881,-2.3536,-2.4052,-2.4344,-2.454,-2.454,-2.454,-2.47,-2.5105,-2.6246,-2.7151,-2.7879,-2.9484,-3.0203,-3.0559,-3.112,-3.1459,-3.1772,-3.2124,-3.2626,-3.3026,-3.3053,-3.3204,-3.3398,-3.324,-3.3154,-3.3081,-3.3081,-3.3081,-3.3081,-3.3081,-3.3081,-3.3081,-3.3081,-3.3081,-3.2982,-3.2711,-3.2896,-3.2982,-3.2711,-3.2896,-3.3081,-3.3081,-3.3081,-3.3081,-3.3081,-3.2959,-3.2972,-3.3332,-3.3208,-3.3146,-3.3345,-3.3872,-3.4161,-3.4161,-3.47,-3.5165,-3.5542,-3.5717,-3.5994,-3.6358,-3.6358,-3.6358,-2.579,-2.5693,-2.5499,-2.444,0.0,0.0,-2.3637,-2.3447,-2.3347,-2.3046,-2.2745,-2.2644,-2.2644,-2.2644,-2.2295,-2.1533,-2.1413,-2.1148,-2.0394,-2.0292,-2.0292,-2.0292,-2.0292,-2.0292,-2.0292,-2.0292,-2.0292,-2.0292,-2.0292,-2.0292,-2.0292,-2.0292,-2.0292,-2.0292,-2.0292,-2.0292,-2.0292,-2.0292,-2.0292,-2.03,-2.03,-2.0019,-1.9646,-1.9646,-1.9761,-2.0193,-2.1481,-2.2631,-2.3765,-2.4487,-2.4977,-2.5192,-2.465,-2.4464,-2.455,-2.455,-2.502,-2.583,-2.5819,-2.7151,-2.8791,-2.9015,-2.9819,-3.0814,-3.1602,-3.1707,-3.1719,-3.2924,-3.2905,-3.263,-3.3246,-3.3398,-3.3398,-3.3398,-3.324,-3.3081,-3.3081,-3.3081,-3.3081,-3.3081,-3.3068,-3.3068,-3.3081,-3.3068,-3.2711,-3.1713,-3.2438,-3.2711,-3.1725,-3.2438,-3.3081,-3.3081,-3.3081,-3.3081,-3.3081,-3.2589,-3.2804,-3.3821,-3.3369,-3.3326,-3.3935,-3.4437,-3.4726,-3.4726,-3.5278,-3.5554,-3.5554,-3.6094,-3.6358,-3.6358,-3.6358,-3.6358,-2.7092,-2.6254,-2.5596,-2.5109,0.0,0.0,0.0,-2.3147,0.0,0.0,-2.2644,-2.2644,-2.2644,-2.2644,-2.2295,-2.1533,-2.1413,-2.1148,-2.0394,-2.0292,-2.0292,-2.0292,-2.0292,-2.0292,-2.0292,-2.0292,-2.0292,-2.0292,-2.0292,-2.0292,-2.0292,-2.0292,-2.0292,-2.0292,-2.0292,-2.0292,-2.0292,-2.0292,-2.0429,-2.0703,-2.0703,-2.061,-2.0517,-2.0517,-2.0993,-2.1905,-2.2272,-2.3168,-2.4487,-2.5229,-2.5612,-2.5668,-2.5533,-2.5295,-2.5026,-2.5026,-2.4982,-2.4935,-2.5579,-2.6412,-2.7406,-2.8688,-2.9745,-3.0749,-3.1552,-3.2254,-3.2807,-3.3144,-3.3187,-3.3183,-3.3348,-3.3313,-3.3154,-3.3154,-3.3154,-3.3081,-3.3081,-3.3081,-3.2896,-3.2164,-3.2624,-3.2711,-3.1258,-3.1625,-3.1713,-3.0711,-3.0902,-3.1169,-3.1536,-3.1901,-3.2077,-3.2077,-3.2394,-3.2333,-3.151,-3.2361,-3.3039,-3.3326,-3.3546,-3.3991,-3.441,-3.5014,-3.5303,-3.5303,-3.5843,-3.6119,-3.6119,-3.6282,-3.6358,-3.6358,-3.6358,-3.6358,-2.7504,-2.6446,-2.5596,-2.5011,-2.452,-2.4026,-2.3046,-2.2846,-2.2846,-2.2644,-2.2644,-2.2644,-2.2644,-2.2644,-2.2295,-2.1533,-2.1413,-2.1148,-2.0394,-2.0292,-2.0292,-2.0292,-2.0292,-2.0292,-2.0292,-2.0292,-2.0292,-2.0292,-2.0292,-2.0292,-2.0292,-2.0292,-2.0292,-2.0292,-2.0292,-2.0292,-2.0292,-2.0446,-2.0643,-2.0883,-2.102,-2.1174,-2.1319,-2.1156,-2.176,-2.2885,-2.3623,-2.4724,-2.5837,-2.6043,-2.6154,-2.6134,-2.5947,-2.572,-2.5492,-2.5492,-2.5316,-2.5155,-2.5646,-2.6409,-2.7341,-2.8233,-2.9268,-3.0424,-3.0948,-3.139,-3.1891,-3.255,-3.2425,-3.2227,-3.2599,-3.2339,-3.2164,-3.2896,-3.3081,-3.2982,-3.2624,-3.2525,-3.2164,-3.1258,-3.1536,-3.1613,-3.0441,-3.0711,-3.0711,-2.9715,-2.9897,-3.0441,-3.0991,-3.1538,-3.1759,-3.1286,-3.1734,-3.1751,-3.1109,-3.1757,-3.2343,-3.283,-3.2928,-3.3575,-3.4706,-3.5494,-3.5868,-3.5868,-3.6194,-3.6358,-3.6358,-3.6358,-3.6358,-3.6358,-3.6358,-3.6358,-2.7567,-2.6562,-2.5499,-2.4538,-2.452,-2.4402,-2.2937,-2.2644,-2.2644,-2.2644,-2.2644,-2.2644,-2.2644,-2.2644,-2.2295,-2.1533,-2.1413,-2.1148,-2.0394,-2.0292,-2.0292,-2.0382,-2.0382,-2.0292,-2.0382,-2.0382,-2.0292,-2.0292,-2.0292,-2.0292,-2.0292,-2.0292,-2.0292,-2.0292,-2.0292,-2.0309,-2.0343,-2.0703,-2.0917,-2.0985,-2.1311,-2.167,-2.203,-2.1733,-2.2241,-2.3593,-2.5431,-2.6582,-2.7231,-2.6806,-2.663,-2.6589,-2.6165,-2.5978,-2.5937,-2.5937,-2.5916,-2.5875,-2.5875,-2.6928,-2.8049,-2.7678,-2.8568,-2.9832,-2.995,-2.9864,-3.0003,-3.148,-3.1069,-3.0441,-3.1258,-3.08,-3.0621,-3.2438,-3.281,-3.2624,-3.1625,-3.1448,-3.1169,-3.026,-3.017,-3.017,-2.9988,-2.9988,-2.9715,-2.8724,-2.9485,-3.0148,-3.0148,-3.1237,-3.1748,-3.0787,-3.1149,-3.1445,-3.136,-3.1042,-3.1329,-3.2218,-3.1839,-3.2476,-3.4581,-3.5667,-3.6263,-3.6358,-3.6358,-3.6358,-3.6358,-3.6358,-3.6358,-3.6358,-3.6358,-3.6358,-2.9126,-2.7383,0.0,-2.5206,-2.4223,-2.3338,-2.2946,-2.2745,-2.2644,-2.2644,-2.2644,-2.2644,-2.2644,-2.2644,-2.2295,-2.1533,-2.1413,-2.1148,-2.0394,-2.0292,-2.0464,-2.1087,-2.0645,-2.0564,-2.1087,-2.0645,-2.0292,-2.0292,-2.0292,-2.0292,-2.0292,-2.0292,-2.0292,-2.0292,-2.0292,-2.0437,-2.0754,-2.084,-2.1174,-2.1756,-2.1833,-2.2064,-2.2515,-2.2708,-2.3805,-2.5566,-2.6638,-2.7156,-2.7251,-2.7148,-2.7107,-2.7107,-2.7003,-2.6734,-2.6423,-2.6423,-2.6196,-2.5875,-2.5875,-2.6325,-2.7039,-2.7338,-2.8285,-2.9328,-2.9881,-3.0108,-3.0357,-3.0742,-3.0508,-3.026,-3.0441,-3.0351,-3.0351,-3.0711,-3.08,-3.08,-3.0531,-3.0531,-3.017,-2.9176,-2.9624,-2.9715,-2.8175,-2.8538,-2.8724,-2.7715,-2.8769,-2.9576,-2.9576,-3.0186,-3.0496,-3.0303,-3.0711,-3.0701,-2.9833,-3.0755,-3.1523,-3.1726,-3.1622,-3.2185,-3.3499,-3.4581,-3.5571,-3.6358,-3.6358,-3.6358,-3.6358,-3.6358,-3.6358,-3.6358,-3.6358,-3.6358,-2.9661,0.0,0.0,-2.5285,0.0,-2.3147,-2.2846,-2.2745,-2.2644,-2.2644,-2.2644,-2.2644,-2.2644,-2.2644,-2.2295,-2.1533,-2.1413,-2.1148,-2.0394,-2.0292,-2.0555,-2.1266,-2.1096,-2.1087,-2.1784,-2.1347,-2.0997,-2.0997,-2.0645,-2.0473,-2.0473,-2.0382,-2.0292,-2.0292,-2.0292,-2.048,-2.0874,-2.1045,-2.1422,-2.1996,-2.2175,-2.2555,-2.3129,-2.3699,-2.4802,-2.6091,-2.6965,-2.7262,-2.7262,-2.7262,-2.7262,-2.7262,-2.7262,-2.7117,-2.69,-2.69,-2.6744,-2.6537,-2.6537,-2.6907,-2.7274,-2.7334,-2.7941,-2.8503,-2.8685,-2.8862,-2.9061,-2.951,-2.9257,-2.8899,-2.936,-2.9176,-2.8806,-2.8806,-2.9532,-3.0079,-2.9624,-2.9452,-2.9176,-2.8269,-2.8445,-2.8445,-2.7441,-2.7715,-2.7883,-2.7637,-2.8625,-2.9341,-2.9095,-2.9828,-3.0219,-2.9742,-3.0147,-3.0218,-2.9632,-3.0348,-3.0785,-3.0785,-3.0785,-3.1597,-3.3101,-3.3289,-3.397,-3.5571,-3.5667,-3.587,-3.6358,-3.6358,-3.6358,-3.6358,-3.6358,-3.6358,-2.9792,0.0,-2.6809,-2.5373,-2.4313,0.0,-2.2846,-2.2644,-2.2644,-2.2644,-2.2644,-2.2644,-2.2644,-2.2644,-2.2412,-2.1812,-2.1639,-2.1354,-2.0837,-2.068,-2.0997,-2.1793,-2.1793,-2.1961,-2.2736,-2.2129,-2.1784,-2.1784,-2.1087,-2.0744,-2.0744,-2.0473,-2.0382,-2.0292,-2.036,-2.0583,-2.0968,-2.1328,-2.1713,-2.2098,-2.2398,-2.2946,-2.3728,-2.4501,-2.5294,-2.6091,-2.6965,-2.7262,-2.7262,-2.7262,-2.7262,-2.7262,-2.7262,-2.7262,-2.7262,-2.7262,-2.7262,-2.7262,-2.7262,-2.7536,-2.7809,-2.7441,-2.7536,-2.7809,-2.7452,-2.7262,-2.7441,-2.8269,-2.7904,-2.7441,-2.8269,-2.7904,-2.7262,-2.7262,-2.8538,-2.9441,-2.8631,-2.8445,-2.8269,-2.7441,-2.7262,-2.7262,-2.7262,-2.7324,-2.75,-2.7872,-2.8731,-2.9267,-2.878,-2.9812,-3.0301,-2.9517,-2.9766,-2.9994,-2.9994,-2.9994,-2.9994,-2.9994,-2.9994,-3.0899,-3.2801,-3.2083,-3.2577,-3.4775,-3.4775,-3.5367,-3.6358,-3.6358,-3.6358,-3.6358,-3.6358,-3.6358,0.0,0.0,-2.6904,0.0,-2.4992,-2.4412,0.0,-2.2745,-2.2644,-2.2644,-2.2644,-2.2644,-2.2644,-2.2644,-2.2698,-2.2938,-2.2667,-2.2469,-2.2646,-2.2363,-2.2482,-2.3607,-2.327,-2.326,-2.4361,-2.2979,-2.2041,-2.2306,-2.1356,-2.0744,-2.0744,-2.0654,-2.0564,-2.0292,-2.0626,-2.0977,-2.1336,-2.1722,-2.2107,-2.2475,-2.2518,-2.2946,-2.3728,-2.4501,-2.5294,-2.6091,-2.6965,-2.7262,-2.7262,-2.7262,-2.7262,-2.7262,-2.7262,-2.7262,-2.7262,-2.7262,-2.7262,-2.7262,-2.7262,-2.7357,-2.7347,-2.7357,-2.7357,-2.7347,-2.7357,-2.7262,-2.7357,-2.7441,-2.7452,-2.7357,-2.7441,-2.7347,-2.7262,-2.7262,-2.7536,-2.7631,-2.7536,-2.7441,-2.7441,-2.7347,-2.7262,-2.7262,-2.7262,-2.7583,-2.7852,-2.7914,-2.8707,-2.9237,-2.9208,-2.9715,-3.0099,-2.9901,-2.9953,-2.9994,-2.9994,-2.9994,-2.9994,-2.9994,-2.9994,-3.0588,-3.1779,-3.1677,-3.2577,-3.4775,-3.4775,-3.5367,-3.6358,-3.6358,-3.6358,-3.6358,-3.6358,-3.6358,-3.0163,-2.8956,-2.7702,0.0,-2.5382,-2.4894,-2.4214,-2.4016,-2.3917,-2.3917,-2.3917,-2.3619,-2.2745,-2.2946,-2.3114,-2.2628,-2.3084,-2.3213,-2.2493,-2.2867,-2.3369,-2.3993,-2.3877,-2.3867,-2.4372,-2.3531,-2.2755,-2.205,-2.1526,-2.1087,-2.0744,-2.0564,-2.0486,-2.0617,-2.0788,-2.1156,-2.173,-2.191,-2.2184,-2.2644,-2.2644,-2.2946,-2.3728,-2.4501,-2.5294,-2.6091,-2.6965,-2.7262,-2.7262,-2.7262,-2.7262,-2.7262,-2.7262,-2.7262,-2.7262,-2.7262,-2.7262,-2.7262,-2.7262,-2.7262,-2.7262,-2.7262,-2.7262,-2.7262,-2.7262,-2.7262,-2.7262,-2.7262,-2.7262,-2.7262,-2.7262,-2.7262,-2.7262,-2.7262,-2.7262,-2.7262,-2.7262,-2.7262,-2.7262,-2.7262,-2.7262,-2.7334,-2.7593,-2.779,-2.81,-2.8618,-2.9042,-2.9394,-2.9653,-2.987,-2.9994,-2.9994,-2.9994,-2.9994,-2.9994,-2.9994,-2.9994,-2.9994,-2.9994,-3.0795,-3.2387,-3.188,-3.2867,-3.5667,-3.5078,-3.5367,-3.6358,-3.6358,-3.6358,-3.6358,-3.6358,-3.6358,0.0,0.0,-2.886,-2.7064,-2.6237,-2.5674,0.0,-2.4894,-2.4894,-2.4894,-2.4894,-2.4599,-2.3619,-2.3728,-2.3826,-2.3153,-2.3873,-2.4259,-2.326,-2.3716,-2.4265,-2.4533,-2.4464,-2.4402,-2.4573,-2.3983,-2.3299,-2.2482,-2.1784,-2.1257,-2.1006,-2.065,-2.0658,-2.0874,-2.1062,-2.143,-2.1996,-2.2279,-2.2568,-2.2846,-2.2846,-2.3138,-2.3728,-2.4501,-2.5294,-2.6091,-2.6965,-2.7262,-2.7262,-2.7262,-2.7262,-2.7262,-2.7262,-2.7262,-2.7262,-2.7262,-2.7262,-2.7262,-2.7262,-2.7262,-2.7262,-2.7262,-2.7262,-2.7262,-2.7262,-2.7262,-2.7262,-2.7262,-2.7262,-2.7262,-2.7262,-2.7262,-2.7262,-2.7262,-2.7262,-2.7262,-2.7262,-2.7262,-2.7262,-2.7262,-2.7345,-2.7531,-2.7872,-2.8121,-2.8504,-2.9197,-2.9404,-2.9601,-2.9953,-2.9994,-2.9994,-2.9994,-2.9994,-2.9994,-2.9994,-2.9994,-2.9994,-2.9994,-2.9994,-3.1002,-3.3101,-3.2387,-3.3377,-3.6358,-3.5571,-3.5571,-3.6358,-3.6358,-3.6358,-3.6358,-3.6358,-3.6358,0.0,-3.1624,0.0,-2.8615,-2.7798,-2.701,-2.5275,-2.4894,-2.4894,-2.4894,-2.4894,-2.4982,-2.546,-2.5178,-2.5089,-2.5771,-2.5609,-2.5605,-2.6218,-2.5671,-2.53,-2.5783,-2.538,-2.5285,-2.5728,-2.4145,-2.3454,-2.4317,-2.2138,-2.0997,-2.1606,-2.1352,-2.1035,-2.0874,-2.1567,-2.1961,-2.1996,-2.3026,-2.361,-2.3628,-2.3628,-2.3628,-2.3728,-2.4501,-2.5294,-2.6091,-2.6965,-2.7262,-2.7262,-2.7262,-2.7262,-2.7262,-2.7262,-2.7262,-2.7262,-2.7262,-2.7262,-2.7262,-2.7262,-2.7262,-2.7262,-2.7262,-2.7262,-2.7262,-2.7262,-2.7262,-2.7262,-2.7262,-2.7262,-2.7262,-2.7262,-2.7262,-2.7262,-2.7262,-2.7262,-2.7262,-2.7262,-2.7262,-2.7262,-2.7262,-2.7603,-2.7893,-2.7914,-2.8649,-2.9249,-2.9301,-2.9684,-2.9973,-2.9994,-2.9994,-2.9994,-2.9994,-2.9994,-2.9994,-2.9994,-2.9994,-2.9994,-2.9994,-2.9994,-3.1002,-3.3101,-3.3101,-3.419,-3.6358,-3.6358,-3.6358,-3.6358,-3.6358,-3.6358,-3.6358,-3.6358,-3.6358,0.0,0.0,0.0,-2.9096,-2.8732,-2.8455,-2.7187,-2.6924,-2.6829,-2.6466,-2.6648,-2.6924,-2.7115,-2.636,-2.5684,-2.5868,-2.623,-2.6428,-2.5852,-2.6197,-2.643,-2.6402,-2.6211,-2.59,-2.5225,-2.4321,-2.3408,-2.2599,-2.1852,-2.1378,-2.1204,-2.1292,-2.1423,-2.1593,-2.1859,-2.2304,-2.3035,-2.3076,-2.3529,-2.4501,-2.3926,-2.4223,-2.5206,-2.5499,-2.6081,-2.687,-2.7156,-2.7262,-2.7262,-2.7262,-2.7262,-2.7262,-2.7262,-2.7262,-2.7262,-2.7262,-2.7262,-2.7262,-2.7262,-2.7262,-2.7262,-2.7262,-2.7262,-2.7262,-2.7262,-2.7262,-2.7262,-2.7262,-2.7262,-2.7262,-2.7262,-2.7262,-2.7262,-2.7262,-2.7262,-2.7262,-2.7262,-2.7262,-2.7345,-2.7624,-2.781,-2.811,-2.8711,-2.9083,-2.9404,-2.9704,-2.9891,-2.9994,-2.9994,-2.9994,-2.9994,-2.9994,-2.9994,-2.9994,-2.9994,-2.9994,-2.9994,-2.9994,-3.0692,-3.1688,-3.3101,-3.3895,-3.4884,-3.6358,-3.6358,-3.6358,-3.6358,-3.6358,-3.6358,-3.6358,-3.6358,-3.6358,-3.204,0.0,0.0,0.0,-2.9696,-2.9485,-2.8507,-2.8115,-2.7904,-2.7452,-2.762,-2.8092,-2.8175,-2.7505,-2.6839,-2.6532,-2.703,-2.7138,-2.6168,-2.6744,-2.7098,-2.6609,-2.643,-2.603,-2.5262,-2.4696,-2.3848,-2.2578,-2.2272,-2.1973,-2.1421,-2.15,-2.1782,-2.2167,-2.2184,-2.2685,-2.3728,-2.3529,-2.3917,-2.4894,-2.4609,-2.5109,-2.61,-2.61,-2.6582,-2.7262,-2.7262,-2.7262,-2.7262,-2.7262,-2.7262,-2.7262,-2.7262,-2.7262,-2.7262,-2.7262,-2.7262,-2.7262,-2.7262,-2.7262,-2.7262,-2.7262,-2.7262,-2.7262,-2.7262,-2.7262,-2.7262,-2.7262,-2.7262,-2.7262,-2.7262,-2.7262,-2.7262,-2.7262,-2.7262,-2.7303,-2.7448,-2.7479,-2.7572,-2.7862,-2.8173,-2.8587,-2.9197,-2.9435,-2.9642,-2.9953,-2.9994,-2.9994,-2.9994,-2.9994,-2.9994,-2.9994,-2.9994,-2.9994,-2.9994,-2.9994,-2.9994,-2.9994,-3.0981,-3.2083,-3.3201,-3.419,-3.5271,-3.6358,-3.6358,-3.6358,-3.6358,-3.6358,-3.6358,-3.6358,-3.6358,-3.6358,0.0,0.0,0.0,-3.1901,-3.1083,-2.9986,-2.9021,-2.8455,-2.7914,-2.7452,-2.7715,-2.8175,-2.8631,-2.8724,-2.8538,-2.8081,-2.7987,-2.7809,-2.7357,-2.7325,-2.7123,-2.6682,-2.6196,-2.5916,-2.5896,-2.524,-2.4772,-2.468,-2.3392,-2.2564,-2.2546,-2.2179,-2.2175,-2.2636,-2.2644,-2.2946,-2.3728,-2.4501,-2.4894,-2.4894,-2.5693,-2.6091,-2.61,-2.61,-2.6582,-2.7262,-2.7262,-2.7262,-2.7262,-2.7262,-2.7262,-2.7262,-2.7262,-2.7262,-2.7262,-2.7262,-2.7262,-2.7262,-2.7262,-2.7262,-2.7262,-2.7262,-2.7262,-2.7262,-2.7262,-2.7262,-2.7262,-2.7262,-2.7262,-2.7262,-2.7262,-2.7262,-2.7262,-2.7262,-2.7272,-2.7396,-2.7831,-2.7945,-2.7966,-2.7966,-2.869,-2.9311,-2.9321,-2.9704,-2.9994,-2.9994,-2.9994,-2.9994,-2.9994,-2.9994,-2.9994,-2.9994,-2.9994,-2.9994,-2.9994,-2.9994,-2.9994,-2.9994,-3.1084,-3.2083,-3.3201,-3.4288,-3.5367,-3.6358,-3.6358,-3.6358,-3.6358,-3.6358,-3.6358,-3.6358,-3.6358,-3.6358,-3.3281,0.0,0.0,0.0,0.0,0.0,-3.0108,-2.9653,-2.9255,-2.8062,-2.8175,-2.8445,-2.8269,-2.8175,-2.8175,-2.7987,-2.8269,-2.8269,-2.7441,-2.761,-2.7609,-2.716,-2.6962,-2.6744,-2.6413,-2.5714,-2.5192,-2.4782,-2.3654,-2.3066,-2.297,-2.267,-2.2441,-2.2644,-2.2644,-2.2946,-2.3728,-2.3926,-2.4609,-2.579,-2.5994,-2.638,-2.6965,-2.6965,-2.7061,-2.7262,-2.7262,-2.7262,-2.7262,-2.7262,-2.7262,-2.7262,-2.7262,-2.7262,-2.7262,-2.7262,-2.7262,-2.7262,-2.7262,-2.7262,-2.7262,-2.7262,-2.7262,-2.7262,-2.7262,-2.7262,-2.7262,-2.7262,-2.7262,-2.7262,-2.7262,-2.7262,-2.7262,-2.7262,-2.751,-2.7769,-2.7903,-2.8452,-2.8918,-2.8918,-2.9125,-2.9415,-2.9746,-2.9911,-2.9994,-2.9994,-2.9994,-2.9994,-2.9994,-2.9994,-2.9994,-2.9994,-2.9994,-2.9994,-2.9994,-2.9994,-2.9994,-2.9994,-3.1688,-3.2901,-3.3201,-3.4981,-3.6061,-3.6358,-3.6358,-3.6358,-3.6358,-3.6358,-3.6358,-3.6358,-3.6358,-3.6358,-3.3281,-3.3281,-3.3212,-3.2902,0.0,0.0,-3.0622,-3.0097,-2.9525,-2.7999,-2.8081,-2.8362,-2.8269,-2.8456,-2.8549,-2.8362,-2.8735,-2.8642,-2.7441,-2.7715,-2.7809,-2.7357,-2.7262,-2.7148,-2.6879,-2.6472,-2.5973,-2.5431,-2.4785,-2.4156,-2.3474,-2.2915,-2.2644,-2.2644,-2.2644,-2.2846,-2.3238,-2.3926,-2.4707,-2.5596,-2.6284,-2.687,-2.7262,-2.7262,-2.7262,-2.7262,-2.7262,-2.7262,-2.7262,-2.7262,-2.7262,-2.7262,-2.7262,-2.7262,-2.7262,-2.7262,-2.7262,-2.7262,-2.7262,-2.7262,-2.7262,-2.7262,-2.7262,-2.7262,-2.7262,-2.7262,-2.7262,-2.7262,-2.7262,-2.7262,-2.7262,-2.7262,-2.7303,-2.7489,-2.7738,-2.8028,-2.8411,-2.8918,-2.9301,-2.9301,-2.9466,-2.9684,-2.9953,-2.9994,-2.9994,-2.9994,-2.9994,-2.9994,-2.9994,-2.9994,-2.9994,-2.9994,-2.9994,-3.0193,-3.0588,-3.0692,-3.0899,-3.13,-3.3195,-3.4211,-3.4211,-3.6027,-3.7048,-3.7048,-3.7048,-3.6935,-3.6709,-3.6471,-3.6358,-3.6358,-3.6358,-3.6358,-3.3281,-3.3281,-3.3281,-3.3281,-3.2925,0.0,-3.0874,-3.0141,-2.9393,-2.7915,-2.7988,-2.8333,-2.8642,-2.9106,-2.929,-2.8817,-2.9106,-2.8839,-2.7441,-2.7715,-2.7809,-2.7357,-2.7262,-2.7262,-2.7262,-2.7262,-2.6965,-2.6294,-2.6197,-2.5411,-2.3926,-2.3138,-2.2745,-2.2745,-2.2644,-2.2644,-2.2644,-2.4115,-2.4894,-2.4894,-2.6572,-2.7262,-2.7262,-2.7262,-2.7262,-2.7262,-2.7262,-2.7262,-2.7262,-2.7262,-2.7262,-2.7262,-2.7262,-2.7262,-2.7262,-2.7262,-2.7262,-2.7262,-2.7262,-2.7262,-2.7262,-2.7262,-2.7262,-2.7262,-2.7262,-2.7262,-2.7262,-2.7262,-2.7262,-2.7262,-2.7262,-2.7293,-2.7438,-2.7821,-2.8007,-2.8297,-2.9125,-2.9342,-2.9384,-2.9384,-2.9715,-2.9994,-2.9994,-2.9994,-2.9994,-2.9994,-2.9994,-2.9994,-2.9994,-2.9994,-2.9994,-2.9994,-2.9994,-3.0412,-3.1457,-3.1662,-3.2093,-3.3161,-3.4793,-3.5653,-3.5653,-3.7134,-3.8002,-3.8002,-3.8002,-3.7764,-3.7274,-3.6659,-3.6358,-3.6358,-3.6358,-3.6358,-3.3281,-3.3281,-3.3281,-3.3281,-3.3201,0.0,-3.2259,-3.1968,-3.1445,-2.9986,-2.9725,-2.9604,-2.8801,-2.8817,-2.8817,-2.8724,-2.8456,-2.8092,-2.7347,-2.7715,-2.7809,-2.7357,-2.7262,-2.7262,-2.7262,-2.7262,-2.7262,-2.7071,-2.6486,-2.5693,-2.4698,-2.3926,-2.3538,-2.3538,-2.2946,-2.2644,-2.2644,-2.4115,-2.4894,-2.4894,-2.6572,-2.7262,-2.7262,-2.7262,-2.7262,-2.7262,-2.7262,-2.7262,-2.7262,-2.7262,-2.7262,-2.7262,-2.7262,-2.7262,-2.7262,-2.7262,-2.7262,-2.7262,-2.7262,-2.7262,-2.7262,-2.7262,-2.7262,-2.7262,-2.7262,-2.7262,-2.7262,-2.7262,-2.7262,-2.7262,-2.7262,-2.7521,-2.781,-2.7903,-2.8493,-2.9083,-2.927,-2.9601,-2.986,-2.986,-2.9932,-2.9994,-2.9994,-2.9994,-2.9994,-2.9994,-2.9994,-2.9994,-2.9994,-2.9994,-2.9994,-2.9994,-2.9994,-3.0244,-3.082,-3.1758,-3.2526,-3.3027,-3.5116,-3.6194,-3.6194,-3.7332,-3.8002,-3.8002,-3.8002,-3.7952,-3.7839,-3.6847,-3.6358,-3.6358,-3.6358,-3.6358,-3.3281,-3.3281,-3.3281,-3.3281,-3.3281,0.0,0.0,-3.2195,-3.1784,-3.0463,-3.033,-3.0175,-2.9581,-2.9482,-2.9393,-2.915,-2.8642,-2.8175,-2.7715,-2.7631,-2.7536,-2.7357,-2.7262,-2.7262,-2.7262,-2.7262,-2.7262,-2.7262,-2.6572,-2.5897,-2.5489,-2.4707,-2.4115,-2.3728,-2.3338,-2.3138,-2.3138,-2.4313,-2.5089,-2.5489,-2.6764,-2.7262,-2.7262,-2.7262,-2.7262,-2.7262,-2.7262,-2.7262,-2.7262,-2.7262,-2.7262,-2.7262,-2.7262,-2.7262,-2.7262,-2.7262,-2.7262,-2.7262,-2.7262,-2.7262,-2.7262,-2.7262,-2.7262,-2.7262,-2.7262,-2.7262,-2.7262,-2.7262,-2.7262,-2.7314,-2.7531,-2.7759,-2.8038,-2.8504,-2.897,-2.9363,-2.9601,-2.9829,-2.9994,-2.9994,-2.9994,-2.9994,-2.9994,-2.9994,-2.9994,-2.9994,-2.9994,-2.9994,-2.9994,-2.9994,-3.0276,-3.1115,-3.124,-3.183,-3.3451,-3.4108,-3.4727,-3.5498,-3.6921,-3.7599,-3.7599,-3.839,-3.8856,-3.8856,-3.858,-3.8442,-3.8442,-3.76,-3.7186,-3.7186,-3.7186,-3.7186,-3.3281,-3.3281,-3.3281,-3.3281,-3.3281,-3.3066,0.0,0.0,0.0,-3.0918,-3.0721,-3.0674,-3.0589,-3.0582,-3.0308,-2.9906,-2.9342,-2.8833,-2.8196,-2.7715,-2.7452,-2.7357,-2.7262,-2.7262,-2.7262,-2.7262,-2.7262,-2.7262,-2.6678,-2.6294,-2.6294,-2.5586,-2.4805,-2.4223,-2.4016,-2.3926,-2.3926,-2.4698,-2.5489,-2.6091,-2.6965,-2.7262,-2.7262,-2.7262,-2.7262,-2.7262,-2.7262,-2.7262,-2.7262,-2.7262,-2.7262,-2.7262,-2.7262,-2.7262,-2.7262,-2.7262,-2.7262,-2.7262,-2.7262,-2.7262,-2.7262,-2.7262,-2.7262,-2.7262,-2.7262,-2.7262,-2.7262,-2.7262,-2.7324,-2.7469,-2.7831,-2.8059,-2.838,-2.9125,-2.9373,-2.9539,-2.9911,-2.9994,-2.9994,-2.9994,-2.9994,-2.9994,-2.9994,-2.9994,-2.9994,-2.9994,-2.9994,-2.9994,-2.9994,-3.0077,-3.0674,-3.2252,-3.2477,-3.3555,-3.6038,-3.6405,-3.6974,-3.7904,-3.8667,-3.9032,-3.9032,-3.9459,-3.9697,-3.9697,-3.9258,-3.9032,-3.9032,-3.8555,-3.8216,-3.8002,-3.8002,-3.8002,-3.3281,-3.3281,-3.3281,-3.3281,-3.3281,-3.3269,-3.3212,0.0,-3.2941,-3.2414,0.0,-3.2151,-3.167,0.0,0.0,-3.0915,-3.045,-2.9731,-2.879,-2.8175,-2.7809,-2.7347,-2.7262,-2.7262,-2.7262,-2.7262,-2.7262,-2.7262,-2.7262,-2.7156,-2.7156,-2.638,-2.5897,-2.58,-2.5099,-2.4796,-2.4796,-2.5596,-2.5994,-2.6091,-2.6965,-2.7262,-2.7262,-2.7262,-2.7262,-2.7262,-2.7262,-2.7262,-2.7262,-2.7262,-2.7262,-2.7262,-2.7262,-2.7262,-2.7262,-2.7262,-2.7262,-2.7262,-2.7262,-2.7262,-2.7262,-2.7262,-2.7262,-2.7262,-2.7262,-2.7262,-2.7262,-2.7262,-2.7541,-2.7852,-2.7914,-2.8535,-2.9177,-2.928,-2.9622,-2.9932,-2.9984,-2.9994,-2.9994,-2.9994,-2.9994,-2.9994,-2.9994,-2.9994,-2.9994,-2.9994,-2.9994,-2.9994,-2.9994,-3.0356,-3.1031,-3.2285,-3.2783,-3.3754,-3.5513,-3.654,-3.7392,-3.7839,-3.9018,-3.9597,-3.9597,-3.9659,-3.9697,-3.9697,-3.9634,-3.9597,-3.9597,-3.9534,-3.8981,-3.8002,-3.8002,-3.8002,-3.3201,-3.3058,-3.2846,-3.3181,-3.3069,-3.2846,-3.3181,-3.3281,-3.3224,-3.2994,0.0,0.0,0.0,0.0,0.0,0.0,-3.0385,-2.9836,-2.8847,-2.8307,-2.7829,-2.7378,-2.7262,-2.7262,-2.7262,-2.7262,-2.7262,-2.7262,-2.7262,-2.7262,-2.7262,-2.6965,-2.6582,-2.6091,-2.579,-2.5596,-2.5596,-2.5897,-2.6284,-2.6774,-2.7156,-2.7262,-2.7262,-2.7262,-2.7262,-2.7262,-2.7262,-2.7262,-2.7262,-2.7262,-2.7262,-2.7262,-2.7262,-2.7262,-2.7262,-2.7262,-2.7262,-2.7262,-2.7262,-2.7262,-2.7262,-2.7262,-2.7262,-2.7262,-2.7262,-2.7262,-2.7314,-2.7572,-2.7779,-2.8048,-2.8587,-2.9011,-2.9373,-2.9642,-2.9849,-2.9994,-2.9994,-2.9994,-2.9994,-2.9994,-2.9994,-2.9994,-2.9994,-2.9994,-2.9994,-2.9994,-2.9994,-3.0087,-3.0356,-3.0563,-3.1401,-3.3082,-3.3944,-3.5112,-3.6803,-3.8044,-3.8803,-3.8921,-3.9465,-3.9697,-3.9697,-3.9697,-3.9697,-3.9697,-3.9697,-3.9697,-3.9697,-3.9697,-3.9446,-3.8981,-3.8981,-3.8981,-3.2761,-3.2632,-3.2521,-3.317,-3.2958,-3.2745,-3.3181,-3.3281,-3.3281,-3.3069,-3.317,0.0,0.0,0.0,-3.2022,-3.0548,0.0,-3.0035,-2.9063,-2.86,-2.8098,-2.7419,-2.7262,-2.7262,-2.7262,-2.7262,-2.7262,-2.7262,-2.7262,-2.7262,-2.7262,-2.7262,-2.7061,-2.6486,-2.639,-2.639,-2.639,-2.639,-2.6678,-2.7262,-2.7262,-2.7262,-2.7262,-2.7262,-2.7262,-2.7262,-2.7262,-2.7262,-2.7262,-2.7262,-2.7262,-2.7262,-2.7262,-2.7262,-2.7262,-2.7262,-2.7262,-2.7262,-2.7262,-2.7262,-2.7262,-2.7262,-2.7262,-2.7262,-2.7262,-2.7345,-2.751,-2.7831,-2.811,-2.8452,-2.9125,-2.9404,-2.958,-2.9911,-2.9994,-2.9994,-2.9994,-2.9994,-2.9994,-2.9994,-2.9994,-2.9994,-2.9994,-2.9994,-2.9994,-2.9994,-3.0098,-3.041,-3.1042,-3.1422,-3.2351,-3.4538,-3.5566,-3.6756,-3.8243,-3.9154,-3.9697,-3.9697,-3.9697,-3.9697,-3.9697,-3.9697,-3.9697,-3.9697,-3.9697,-3.9697,-3.9697,-3.9697,-3.9697,-3.9697,-3.9697,-3.9697,-3.1715,-3.2162,-3.2521,-3.317,-3.3281,-3.3281,-3.3281,-3.3281,-3.317,-3.2521,-3.2857,-3.2958,-3.1812,-3.1993,-3.2029,-3.1052,-3.0876,0.0,0.0,-2.9391,-2.8855,-2.7461,-2.7262,-2.7262,-2.7262,-2.7262,-2.7262,-2.7262,-2.7262,-2.7262,-2.7262,-2.7262,-2.7262,-2.7262,-2.7262,-2.7262,-2.7262,-2.7262,-2.7251,-2.7262,-2.7262,-2.7262,-2.7262,-2.7262,-2.7262,-2.7262,-2.7262,-2.7262,-2.7262,-2.7262,-2.7262,-2.7262,-2.7262,-2.7262,-2.7262,-2.7262,-2.7262,-2.7262,-2.7262,-2.7262,-2.7262,-2.7262,-2.7262,-2.7262,-2.7262,-2.7562,-2.7903,-2.7914,-2.8566,-2.927,-2.9301,-2.9642,-2.9973,-2.9994,-2.9994,-2.9994,-2.9994,-2.9994,-2.9994,-2.9994,-2.9994,-2.9994,-2.9994,-2.9994,-2.9994,-2.9994,-3.0377,-3.1073,-3.2191,-3.3126,-3.4571,-3.696,-3.7625,-3.836,-3.9581,-3.9697,-3.9697,-3.9697,-3.9697,-3.9697,-3.9697,-3.9697,-3.9697,-3.9697,-3.9697,-3.9697,-3.9697,-3.9697,-3.9697,-3.9697,-3.9697,-3.9697,-3.102,-3.1007,-3.1192,-3.2443,-3.2443,-3.2353,-3.3181,-3.2958,-3.2633,-3.242,-3.2331,-3.1936,-3.1208,-3.1516,-3.1564,-3.0501,-3.0561,-3.0493,0.0,-2.9105,-2.8703,-2.8193,-2.7624,-2.7262,-2.7262,-2.7262,-2.7262,-2.7262,-2.7262,-2.7262,-2.7262,-2.7262,-2.7262,-2.7262,-2.7262,-2.7262,-2.7262,-2.7262,-2.7262,-2.7262,-2.7262,-2.7262,-2.7262,-2.7262,-2.7262,-2.7262,-2.7262,-2.7262,-2.7262,-2.7262,-2.7262,-2.7262,-2.7262,-2.7262,-2.7262,-2.7262,-2.7262,-2.7262,-2.7262,-2.7262,-2.7262,-2.7262,-2.7262,-2.7314,-2.7614,-2.78,-2.8048,-2.8659,-2.9063,-2.9373,-2.9684,-2.988,-2.9994,-2.9994,-2.9994,-2.9994,-2.9994,-2.9994,-2.9994,-2.9994,-2.9994,-2.9994,-2.9994,-3.0253,-3.045,-3.045,-3.0584,-3.1314,-3.3073,-3.3649,-3.4511,-3.634,-3.7405,-3.8056,-3.8489,-3.9258,-3.9697,-3.9697,-3.9697,-3.9697,-3.9697,-3.9697,-3.9697,-3.9697,-3.9697,-3.9697,-3.9697,-3.9697,-3.9697,-3.9697,-3.9697,-3.9697,-2.9937,-3.0138,-3.0349,-3.1572,-3.1691,-3.1834,-3.2555,-3.2443,-3.2015,-3.1902,-3.171,-3.1424,-3.0703,-3.0899,-3.1013,-3.0099,-3.0287,-3.0286,0.0,-2.9156,-2.8856,-2.8856,-2.8048,-2.7489,-2.7489,-2.7345,-2.7262,-2.7262,-2.7262,-2.7262,-2.7262,-2.7262,-2.7262,-2.7262,-2.7262,-2.7262,-2.7262,-2.7262,-2.7262,-2.7262,-2.7262,-2.7262,-2.7262,-2.7262,-2.7262,-2.7262,-2.7262,-2.7262,-2.7262,-2.7262,-2.7452,-2.7536,-2.7357,-2.7452,-2.7536,-2.7357,-2.7262,-2.7262,-2.7262,-2.7262,-2.7282,-2.7448,-2.7489,-2.7583,-2.8028,-2.8286,-2.8576,-2.9332,-2.9549,-2.9653,-3.0118,-3.0118,-2.9994,-2.9994,-2.9994,-2.9994,-2.9994,-2.9994,-2.9994,-2.9994,-2.9994,-3.0046,-3.0212,-3.0491,-3.0688,-3.0688,-3.0957,-3.1895,-3.4084,-3.4534,-3.5409,-3.724,-3.8056,-3.8489,-3.8489,-3.9258,-3.9697,-3.9697,-3.9697,-3.9697,-3.9697,-3.9697,-3.9697,-3.9697,-3.9697,-3.9697,-3.9697,-3.9697,-3.9478,-3.9037,-3.9037,-3.8816]}]]